[[{"header":{"parameterUnit":"m.s-1","parameterCategory":1,"la1":30.6,"la2":29.2853,"lo1":-89.7004,"lo2":-87.6739,"dy":0.0162,"dx":0.0183,"nx":112,"ny":82,"refTime":"2023-02-25T06:00:00:Z","depth":0,"parameterNumber":2,"parameterNumberName":"U-component_of_WINDS"},"data":[0.0,0.0,0.0,0.0,0.0,0.0,0.0,0.0,0.0,0.0,0.0,0.0,0.0,0.0,0.0,0.0,0.0,0.0,0.0,0.0,0.0,0.0,0.0,0.0,0.0,0.0,0.0,0.0,0.0,0.0,0.0,0.0,0.0,0.0,0.0,0.0,0.0,0.0,0.0,0.0,0.0,0.0,0.0,0.0,0.0,0.0,0.0,0.0,0.0,0.0,0.0,0.0,0.0,0.0,0.0,0.0,0.0,0.0,0.0,0.0,0.0,0.0,0.0,0.0,0.0,0.0,0.0,0.0,0.0,0.0,0.0,0.0,0.0,0.0,0.0,0.0,0.0,0.0,0.0,0.0,0.0,0.0,0.0,0.0,0.0,0.0,0.0,0.0,0.0,0.0,-4.0235,-4.2453,-4.6601,-4.8798,-4.7798,-4.6047,-4.2508,-3.668,0.0,0.0,0.0,0.0,0.0,0.0,0.0,0.0,0.0,0.0,0.0,0.0,0.0,0.0,0.0,0.0,0.0,0.0,0.0,0.0,0.0,0.0,0.0,0.0,0.0,0.0,0.0,0.0,0.0,0.0,0.0,0.0,0.0,0.0,0.0,0.0,0.0,0.0,0.0,0.0,0.0,0.0,0.0,0.0,0.0,0.0,0.0,0.0,0.0,0.0,0.0,0.0,0.0,0.0,0.0,0.0,0.0,0.0,0.0,0.0,0.0,0.0,0.0,0.0,0.0,0.0,0.0,0.0,0.0,0.0,0.0,0.0,0.0,0.0,0.0,0.0,0.0,0.0,0.0,0.0,0.0,0.0,0.0,0.0,0.0,0.0,0.0,0.0,0.0,0.0,0.0,0.0,0.0,0.0,0.0,0.0,0.0,0.0,0.0,0.0,0.0,0.0,0.0,0.0,-4.0474,-4.568,-4.7458,-4.7663,-4.6114,-4.3778,-4.0142,-3.4911,0.0,0.0,0.0,0.0,0.0,0.0,0.0,0.0,0.0,0.0,0.0,0.0,0.0,0.0,0.0,0.0,0.0,0.0,0.0,0.0,0.0,0.0,0.0,0.0,0.0,0.0,0.0,0.0,0.0,0.0,0.0,0.0,0.0,0.0,0.0,0.0,0.0,0.0,0.0,0.0,0.0,0.0,0.0,0.0,0.0,0.0,0.0,0.0,0.0,0.0,0.0,0.0,0.0,0.0,0.0,0.0,0.0,0.0,0.0,0.0,0.0,0.0,0.0,0.0,0.0,0.0,0.0,0.0,0.0,0.0,0.0,0.0,0.0,0.0,0.0,0.0,0.0,0.0,0.0,0.0,0.0,0.0,0.0,0.0,0.0,0.0,0.0,0.0,0.0,0.0,0.0,0.0,0.0,0.0,0.0,0.0,0.0,0.0,0.0,0.0,0.0,0.0,0.0,-3.9096,-4.1466,-4.5933,-4.6667,-4.6356,-4.5113,-4.1763,-3.8192,-3.4544,-3.2496,0.0,0.0,0.0,0.0,0.0,0.0,0.0,0.0,0.0,0.0,0.0,0.0,0.0,0.0,0.0,0.0,0.0,0.0,0.0,0.0,0.0,0.0,0.0,0.0,0.0,0.0,0.0,0.0,0.0,0.0,0.0,0.0,0.0,0.0,0.0,0.0,0.0,0.0,0.0,0.0,0.0,0.0,0.0,0.0,0.0,0.0,0.0,0.0,0.0,0.0,0.0,0.0,0.0,0.0,0.0,0.0,0.0,0.0,0.0,0.0,0.0,0.0,0.0,0.0,0.0,0.0,0.0,0.0,0.0,0.0,0.0,0.0,0.0,0.0,0.0,0.0,0.0,0.0,0.0,0.0,0.0,0.0,0.0,0.0,0.0,0.0,0.0,0.0,0.0,0.0,0.0,0.0,0.0,0.0,0.0,0.0,0.0,0.0,0.0,0.0,0.0,0.0,-4.1051,-4.2114,-4.5044,-4.5283,-4.48,-4.3722,-3.9818,-3.6388,-3.3935,-3.0462,0.0,0.0,0.0,0.0,0.0,0.0,0.0,0.0,0.0,0.0,0.0,0.0,0.0,0.0,0.0,0.0,0.0,0.0,0.0,0.0,0.0,0.0,0.0,0.0,0.0,0.0,0.0,0.0,0.0,0.0,0.0,0.0,0.0,0.0,0.0,0.0,0.0,0.0,0.0,0.0,0.0,0.0,0.0,0.0,0.0,0.0,0.0,0.0,0.0,0.0,0.0,0.0,0.0,0.0,0.0,0.0,0.0,0.0,0.0,0.0,0.0,0.0,0.0,0.0,0.0,0.0,0.0,0.0,0.0,0.0,0.0,0.0,0.0,0.0,0.0,0.0,0.0,0.0,0.0,0.0,0.0,0.0,0.0,0.0,0.0,0.0,0.0,0.0,0.0,0.0,0.0,0.0,0.0,0.0,0.0,0.0,0.0,0.0,0.0,0.0,0.0,0.0,-3.9609,-4.1707,-4.3561,-4.3642,-4.2892,-4.1196,-3.7812,-3.4691,-3.2148,-2.8719,0.0,0.0,0.0,0.0,0.0,0.0,0.0,0.0,0.0,0.0,0.0,0.0,0.0,0.0,0.0,0.0,0.0,0.0,0.0,0.0,0.0,0.0,0.0,0.0,0.0,0.0,0.0,0.0,0.0,0.0,0.0,0.0,0.0,0.0,0.0,0.0,0.0,0.0,0.0,0.0,0.0,0.0,0.0,0.0,0.0,0.0,0.0,0.0,0.0,0.0,0.0,0.0,0.0,0.0,0.0,0.0,0.0,0.0,0.0,0.0,0.0,0.0,0.0,0.0,0.0,0.0,0.0,0.0,0.0,0.0,0.0,0.0,0.0,0.0,0.0,0.0,0.0,0.0,0.0,0.0,0.0,0.0,0.0,0.0,0.0,0.0,0.0,0.0,0.0,0.0,0.0,0.0,0.0,0.0,0.0,0.0,0.0,0.0,0.0,0.0,0.0,0.0,-3.7771,-3.9731,-4.2496,-4.2256,-4.1203,-3.9441,-3.6064,-3.321,-3.1249,0.0,0.0,0.0,0.0,0.0,0.0,0.0,0.0,0.0,0.0,0.0,0.0,0.0,0.0,0.0,0.0,0.0,0.0,0.0,0.0,0.0,0.0,0.0,0.0,0.0,0.0,0.0,0.0,0.0,0.0,0.0,0.0,0.0,0.0,0.0,0.0,0.0,0.0,0.0,0.0,0.0,0.0,0.0,0.0,0.0,0.0,0.0,0.0,0.0,0.0,0.0,0.0,0.0,0.0,0.0,0.0,0.0,0.0,0.0,0.0,0.0,0.0,0.0,0.0,0.0,0.0,0.0,0.0,0.0,0.0,0.0,0.0,0.0,0.0,0.0,0.0,0.0,0.0,0.0,0.0,0.0,0.0,0.0,0.0,0.0,0.0,0.0,0.0,0.0,0.0,0.0,0.0,0.0,0.0,0.0,0.0,0.0,0.0,0.0,0.0,0.0,0.0,-3.4766,-3.6172,-3.7987,-4.0821,-4.0351,-3.9237,-3.7768,-3.415,-3.1488,-3.0365,0.0,0.0,0.0,0.0,0.0,0.0,0.0,0.0,0.0,0.0,0.0,0.0,0.0,0.0,0.0,0.0,0.0,0.0,0.0,0.0,0.0,0.0,0.0,0.0,0.0,0.0,0.0,0.0,0.0,0.0,0.0,0.0,0.0,0.0,0.0,0.0,0.0,0.0,0.0,0.0,0.0,0.0,0.0,0.0,0.0,0.0,0.0,0.0,0.0,0.0,0.0,0.0,0.0,0.0,0.0,0.0,0.0,0.0,0.0,0.0,0.0,0.0,0.0,0.0,0.0,0.0,0.0,0.0,0.0,0.0,0.0,0.0,0.0,0.0,0.0,0.0,0.0,0.0,0.0,0.0,0.0,0.0,0.0,0.0,0.0,0.0,0.0,0.0,0.0,0.0,0.0,0.0,0.0,0.0,0.0,0.0,0.0,0.0,0.0,0.0,0.0,0.0,-3.3047,-3.4883,-3.6621,-3.8379,-3.7793,-3.6914,-3.6035,-3.1987,-2.9465,0.0,0.0,0.0,0.0,0.0,0.0,0.0,0.0,0.0,0.0,0.0,0.0,0.0,0.0,0.0,0.0,0.0,0.0,0.0,0.0,0.0,0.0,0.0,0.0,0.0,0.0,0.0,0.0,0.0,0.0,0.0,0.0,0.0,0.0,0.0,0.0,0.0,0.0,0.0,0.0,0.0,0.0,0.0,0.0,0.0,0.0,0.0,0.0,0.0,0.0,0.0,0.0,0.0,0.0,0.0,0.0,0.0,0.0,0.0,0.0,0.0,0.0,0.0,0.0,0.0,0.0,0.0,0.0,0.0,0.0,0.0,0.0,0.0,0.0,0.0,0.0,0.0,0.0,0.0,0.0,0.0,0.0,0.0,0.0,0.0,0.0,0.0,0.0,0.0,0.0,0.0,0.0,0.0,0.0,0.0,0.0,0.0,0.0,0.0,0.0,0.0,0.0,0.0,-3.1387,-3.2617,-3.4219,-3.6523,-3.5996,-3.4883,-3.3437,-3.097,-2.8962,-2.7717,0.0,0.0,0.0,0.0,0.0,0.0,0.0,0.0,0.0,0.0,0.0,0.0,0.0,0.0,0.0,0.0,0.0,0.0,0.0,0.0,0.0,0.0,0.0,0.0,0.0,0.0,0.0,0.0,0.0,0.0,0.0,0.0,0.0,0.0,0.0,0.0,0.0,0.0,0.0,0.0,0.0,0.0,0.0,0.0,0.0,0.0,0.0,0.0,0.0,0.0,0.0,0.0,0.0,0.0,0.0,0.0,0.0,0.0,0.0,0.0,0.0,0.0,0.0,0.0,0.0,0.0,0.0,0.0,0.0,0.0,0.0,0.0,0.0,0.0,0.0,0.0,0.0,0.0,0.0,0.0,0.0,0.0,0.0,0.0,0.0,0.0,0.0,0.0,0.0,0.0,0.0,0.0,0.0,0.0,0.0,0.0,0.0,0.0,0.0,0.0,0.0,0.0,-3.0156,-3.1133,-3.2519,-3.4726,-3.4219,-3.3144,-3.1797,-3.0056,-2.827,-2.6482,0.0,0.0,0.0,0.0,0.0,0.0,0.0,0.0,0.0,0.0,0.0,0.0,0.0,0.0,0.0,0.0,0.0,0.0,0.0,0.0,0.0,0.0,0.0,0.0,0.0,0.0,0.0,0.0,0.0,0.0,0.0,0.0,0.0,0.0,0.0,0.0,0.0,0.0,0.0,0.0,0.0,0.0,0.0,0.0,0.0,0.0,0.0,0.0,0.0,0.0,0.0,0.0,0.0,0.0,0.0,0.0,0.0,0.0,0.0,0.0,0.0,0.0,0.0,0.0,0.0,0.0,0.0,0.0,0.0,0.0,0.0,0.0,0.0,0.0,0.0,0.0,0.0,0.0,0.0,0.0,0.0,0.0,0.0,0.0,0.0,0.0,0.0,0.0,0.0,0.0,0.0,0.0,0.0,0.0,0.0,0.0,0.0,0.0,0.0,0.0,0.0,0.0,-2.9277,-3.0176,-3.1328,-3.3105,-3.2559,-3.1758,-3.0976,-2.9297,-2.7537,-2.5724,0.0,0.0,0.0,0.0,0.0,0.0,0.0,0.0,0.0,0.0,0.0,0.0,0.0,0.0,0.0,0.0,0.0,0.0,0.0,0.0,0.0,0.0,0.0,0.0,0.0,0.0,0.0,0.0,0.0,0.0,0.0,0.0,0.0,0.0,0.0,0.0,0.0,0.0,0.0,0.0,0.0,0.0,0.0,0.0,0.0,0.0,0.0,0.0,0.0,0.0,0.0,0.0,0.0,0.0,0.0,0.0,0.0,0.0,0.0,0.0,-3.8944,0.0,0.0,0.0,0.0,0.0,0.0,0.0,0.0,0.0,0.0,0.0,0.0,0.0,0.0,0.0,0.0,0.0,0.0,0.0,0.0,0.0,0.0,0.0,0.0,0.0,0.0,0.0,0.0,0.0,0.0,0.0,0.0,0.0,0.0,0.0,0.0,0.0,0.0,0.0,0.0,0.0,-2.8437,-2.873,-2.9785,-3.2207,-3.1699,-3.1094,-3.0918,-2.9297,-2.7558,-2.578,-2.5038,0.0,0.0,0.0,0.0,0.0,0.0,0.0,0.0,0.0,0.0,0.0,0.0,0.0,0.0,0.0,0.0,0.0,0.0,0.0,0.0,0.0,0.0,0.0,0.0,0.0,0.0,0.0,0.0,0.0,0.0,0.0,0.0,0.0,0.0,0.0,0.0,0.0,0.0,0.0,0.0,0.0,0.0,0.0,0.0,0.0,0.0,0.0,0.0,0.0,0.0,0.0,0.0,0.0,0.0,0.0,0.0,0.0,0.0,0.0,0.0,-3.9851,0.0,0.0,0.0,0.0,0.0,0.0,0.0,0.0,0.0,0.0,0.0,0.0,0.0,0.0,0.0,0.0,0.0,0.0,0.0,0.0,0.0,0.0,0.0,0.0,0.0,0.0,0.0,0.0,0.0,0.0,0.0,0.0,0.0,0.0,0.0,0.0,0.0,0.0,0.0,0.0,-2.8184,-2.8301,-2.9141,-3.1348,-3.1172,-3.0723,-3.0312,-2.9062,-2.7559,-2.5801,-2.5273,0.0,0.0,0.0,0.0,0.0,0.0,0.0,0.0,0.0,0.0,0.0,0.0,0.0,0.0,0.0,0.0,0.0,0.0,0.0,0.0,0.0,0.0,0.0,0.0,0.0,0.0,0.0,0.0,0.0,0.0,0.0,0.0,0.0,0.0,0.0,0.0,0.0,0.0,0.0,0.0,0.0,0.0,0.0,0.0,0.0,0.0,0.0,0.0,0.0,0.0,0.0,0.0,0.0,-4.5021,-4.5681,-4.6324,-4.6324,-4.564,-4.4408,-4.3361,-4.1768,-3.9905,-3.9568,0.0,0.0,0.0,0.0,0.0,0.0,0.0,0.0,0.0,0.0,0.0,0.0,0.0,0.0,0.0,0.0,0.0,0.0,0.0,0.0,0.0,0.0,0.0,0.0,-3.3695,-3.2629,-3.0466,0.0,0.0,0.0,0.0,0.0,0.0,0.0,0.0,0.0,0.0,0.0,-2.8223,-2.8437,-2.9141,-3.0723,-3.0898,-3.0547,-2.9668,-2.8809,-2.7559,-2.5801,-2.5566,-2.5135,0.0,0.0,0.0,0.0,0.0,0.0,0.0,0.0,0.0,0.0,0.0,0.0,0.0,0.0,0.0,0.0,0.0,0.0,0.0,0.0,0.0,0.0,0.0,0.0,0.0,0.0,0.0,0.0,0.0,0.0,0.0,0.0,-4.2396,-4.3094,0.0,0.0,0.0,0.0,0.0,0.0,0.0,0.0,0.0,0.0,0.0,0.0,0.0,-4.414,-4.6122,-4.636,-4.6856,-4.7682,-4.7774,-4.7884,-4.7994,-4.7994,-4.7517,-4.6673,-4.6488,0.0,-4.1531,-3.9849,0.0,0.0,0.0,0.0,0.0,0.0,0.0,0.0,0.0,0.0,0.0,0.0,0.0,0.0,0.0,0.0,0.0,0.0,0.0,0.0,0.0,0.0,-3.4071,-3.4167,-3.4122,-3.3756,0.0,-3.207,-3.1478,-3.0617,-3.0077,0.0,0.0,0.0,0.0,0.0,0.0,0.0,-2.8379,-2.8965,-2.9805,-3.0781,-3.0898,-3.0547,-2.9668,-2.8809,-2.7559,-2.5801,-2.498,-2.4512,-2.4394,-2.4492,0.0,0.0,0.0,0.0,0.0,0.0,0.0,0.0,0.0,0.0,0.0,0.0,0.0,0.0,0.0,0.0,0.0,0.0,0.0,0.0,0.0,0.0,0.0,0.0,0.0,0.0,0.0,0.0,0.0,-4.3352,-4.4287,-4.2378,-4.4452,-4.5186,0.0,0.0,0.0,0.0,0.0,0.0,0.0,0.0,0.0,-4.5516,-4.6874,-4.7884,-4.8453,-4.9389,-5.0031,-5.038,-5.0839,-5.1059,-5.1059,-5.1059,-5.0618,-4.9829,-4.9389,-4.7795,-4.5317,-4.2667,-4.1604,-4.1545,0.0,0.0,0.0,0.0,-4.0412,-4.1029,-4.0108,-3.9566,-3.9282,-3.9296,0.0,0.0,0.0,0.0,0.0,0.0,0.0,0.0,0.0,0.0,-3.5488,-3.5045,-3.6026,-3.6687,-3.5334,-3.4453,-3.3248,0.0,-3.103,-3.1142,-3.0227,0.0,0.0,0.0,0.0,-2.878,-2.8952,-2.9307,-2.9897,-3.0801,-3.0469,-3.0019,-2.9629,-2.8359,-2.7246,-2.6484,-2.5605,-2.5137,-2.5137,-2.5137,-2.5271,0.0,0.0,0.0,0.0,0.0,0.0,0.0,0.0,0.0,0.0,0.0,0.0,0.0,0.0,0.0,0.0,0.0,0.0,0.0,0.0,0.0,0.0,0.0,0.0,0.0,0.0,0.0,0.0,-4.4636,-4.5517,-4.2121,-4.5461,-4.6764,0.0,0.0,0.0,0.0,0.0,0.0,-4.592,-4.7847,-4.8857,-4.8672,-5.0453,-5.1298,-5.1059,-5.2289,-5.2821,-5.2619,-5.3225,-5.3387,-5.3185,-5.3185,-5.2656,-5.1665,-5.1059,-4.9848,-4.8067,-4.5039,-4.3332,-4.254,-4.1776,-4.1456,-4.1468,-4.146,-4.1646,-4.1876,-4.168,-4.1274,-4.0714,-3.9937,-3.8974,-3.7681,-3.5349,0.0,0.0,0.0,0.0,-3.4068,-3.3916,-3.5276,-3.6712,-3.6776,-3.8065,-3.8873,-3.7353,-3.6385,-3.4879,0.0,-3.1777,-3.1956,-3.0754,0.0,0.0,0.0,-2.8952,-2.8888,-2.9381,-2.9642,-3.0069,-3.0778,-3.0076,-2.9491,-2.9277,-2.7871,-2.6894,-2.668,-2.6055,-2.5703,-2.5703,-2.5488,-2.5331,-2.53,0.0,0.0,0.0,0.0,0.0,0.0,0.0,0.0,0.0,0.0,0.0,0.0,0.0,0.0,0.0,0.0,0.0,0.0,0.0,0.0,0.0,0.0,0.0,0.0,0.0,0.0,0.0,0.0,0.0,-4.3571,-4.7664,0.0,0.0,0.0,0.0,-4.7939,-4.8049,-4.8434,-4.9317,-5.0196,-5.1371,-5.2837,-5.3002,-5.3794,-5.5284,-5.5394,-5.5042,-5.4271,-5.4326,-5.394,-5.3185,-5.3185,-5.2344,-5.0857,-5.082,-4.9848,-4.8122,-4.5663,-4.4176,-4.3294,-4.1734,-4.1128,-4.1018,-4.0278,-4.0688,-4.139,-3.9811,-3.9413,-3.9717,-4.0474,-4.0158,-3.9169,-3.7462,-3.6394,0.0,0.0,-3.3786,-3.4235,-3.6034,-3.6596,-3.7296,-3.9688,-3.9765,-3.9053,-3.8123,-3.7257,-3.5872,0.0,-3.1551,-3.0512,-3.0427,0.0,-2.9147,-2.9195,-2.9879,-3.0118,-2.9404,-3.0022,-3.0599,-3.0693,-2.9994,-2.9205,-2.8437,-2.7539,-2.6641,-2.582,-2.5723,-2.5703,-2.5703,-2.4902,-2.4453,-2.4453,-2.3594,0.0,0.0,0.0,0.0,0.0,0.0,0.0,0.0,0.0,0.0,0.0,0.0,0.0,0.0,0.0,0.0,0.0,0.0,0.0,0.0,0.0,0.0,0.0,0.0,0.0,0.0,0.0,0.0,-4.8269,-5.1114,0.0,-5.0031,-5.0086,-5.0362,-5.0655,-5.1646,-5.2362,-5.2656,-5.394,-5.4932,-5.55,-5.6014,-5.6565,-5.7134,-5.7134,-5.6473,-5.517,-5.517,-5.4473,-5.3185,-5.3185,-5.2601,-5.1536,-5.1022,-5.0178,-4.8985,-4.7058,-4.6067,-4.5663,-4.4066,-4.3407,-4.3315,-4.2506,-4.2478,-4.277,-4.2389,-4.1977,-4.1409,-4.0117,-3.8459,-3.6831,-3.6196,-3.5841,-3.5567,-3.5186,-3.5483,-3.6121,-3.6998,-3.7632,-3.8057,-3.8047,-3.8681,-3.8757,-3.6815,-3.6538,-3.6122,-3.4122,-3.2795,-3.1673,-3.0596,-2.9679,-2.9292,-2.9869,-2.9755,-2.9709,-3.0032,-2.9858,-2.9765,-2.9907,-2.8665,-2.7721,-2.748,-2.666,-2.6035,-2.5723,-2.5176,-2.4863,-2.4863,-2.4023,-2.3574,-2.3633,-2.2773,-2.2852,0.0,0.0,0.0,0.0,0.0,0.0,0.0,0.0,0.0,0.0,0.0,0.0,0.0,0.0,0.0,0.0,0.0,0.0,0.0,0.0,0.0,0.0,0.0,0.0,0.0,-4.9213,-5.1315,-5.0474,-5.3228,-5.4465,-5.2575,-5.3126,-5.3608,-5.3608,-5.4854,-5.5611,-5.5611,-5.6638,-5.7207,-5.7207,-5.7721,-5.7997,-5.7997,-5.7997,-5.7189,-5.5614,-5.5614,-5.4748,-5.3185,-5.2931,-5.2362,-5.1555,-5.0729,-4.9921,-4.904,-4.7663,-4.7094,-4.6947,-4.5333,-4.4544,-4.4232,-4.3699,-4.3515,-4.3531,-4.374,-4.3116,-4.1952,-4.0314,-3.8331,-3.652,-3.6202,-3.5951,-3.5763,-3.5719,-3.61,-3.6686,-3.7221,-3.7794,-3.808,-3.7529,-3.7862,-3.7855,-3.6255,-3.6115,-3.5788,-3.4083,-3.3295,-3.2468,-3.1077,-3.0121,-2.9737,-3.0308,-2.991,-2.966,-2.9984,-2.9781,-2.9543,-2.9401,-2.8143,-2.7332,-2.7398,-2.662,-2.5898,-2.5293,-2.5,-2.4707,-2.4414,-2.3574,-2.3281,-2.3594,-2.248,-2.2441,-2.3555,0.0,0.0,0.0,0.0,0.0,0.0,0.0,0.0,0.0,0.0,0.0,0.0,0.0,0.0,0.0,0.0,0.0,0.0,0.0,0.0,0.0,0.0,0.0,-4.6184,-5.0214,-5.2359,-5.0127,-5.4007,-5.5888,-5.3517,-5.5455,-5.6837,-5.6827,-5.7559,-5.7992,-5.7997,-5.7997,-5.7997,-5.7997,-5.7997,-5.7997,-5.7997,-5.7978,-5.7171,-5.5614,-5.5578,-5.473,-5.3167,-5.238,-5.1573,-5.0765,-4.9996,-4.9132,-4.8251,-4.7388,-4.7058,-4.6911,-4.5315,-4.4213,-4.3533,-4.3515,-4.3515,-4.3515,-4.3515,-4.2451,-4.1132,-4.1113,-4.0031,-3.8597,-3.7786,-3.6997,-3.6264,-3.5726,-3.5566,-3.5807,-3.6825,-3.709,-3.7362,-3.8451,-3.747,-3.6347,-3.6584,-3.6024,-3.4974,-3.3231,-3.2885,-3.2641,-3.1795,-3.0962,-3.0404,-3.0404,-3.0404,0.0,-2.9242,-2.9852,-3.0062,-2.9313,-2.856,-2.8128,-2.819,-2.7457,-2.6269,-2.4551,-2.5215,-2.5273,-2.4434,-2.3594,-2.3516,-2.4277,-2.2715,-2.1894,-2.1894,0.0,0.0,0.0,0.0,0.0,0.0,0.0,0.0,0.0,0.0,0.0,0.0,0.0,0.0,0.0,0.0,0.0,0.0,0.0,0.0,0.0,-4.789,-4.9724,-5.0198,-5.195,-5.3831,-5.5493,-5.6864,-5.7635,-5.7518,-5.7646,-5.7713,-5.7673,-5.7916,-5.805,-5.7992,-5.7997,-5.7997,-5.7997,-5.7997,-5.7997,-5.7997,-5.7428,-5.662,-5.5574,-5.5005,-5.4197,-5.3185,-5.2968,-5.2105,-5.0784,-5.0563,-4.9646,-4.8196,-4.6801,-4.6232,-4.614,-4.5112,-4.4562,-4.4305,-4.3718,-4.3515,-4.3515,-4.3515,-4.2818,-4.1882,-4.1279,-4.0414,-3.9423,-3.8615,-3.8212,-3.7878,-3.7168,-3.6938,-3.693,-3.6833,-3.6807,-3.6796,-3.672,-3.6356,-3.5865,-3.5353,-3.5231,-3.469,-3.2944,-3.2779,-3.2449,-3.1,-3.0558,-3.0404,-3.0404,-3.0404,0.0,-3.0077,-2.9698,-2.9641,-3.0166,-2.8954,-2.8154,-2.8257,-2.75,-2.6523,-2.541,-2.4961,-2.4648,-2.4414,-2.3027,-2.2051,-2.1641,-2.1816,-2.1894,0.0,0.0,0.0,0.0,0.0,0.0,0.0,0.0,0.0,0.0,0.0,0.0,0.0,0.0,0.0,0.0,0.0,0.0,0.0,0.0,0.0,0.0,-4.931,-5.1528,-5.3207,-5.4132,-5.5248,-5.6846,-5.7578,-5.8012,-5.8198,-5.8398,-5.8211,-5.7546,-5.7864,-5.7783,-5.7083,-5.7054,-5.7054,-5.7054,-5.7358,-5.754,-5.754,-5.7052,-5.64,-5.5574,-5.4785,-5.3977,-5.3185,-5.2858,-5.2013,-5.0784,-5.0435,-4.9536,-4.8177,-4.6562,-4.5902,0.0,0.0,0.0,0.0,0.0,-4.3515,-4.3515,-4.3515,-4.2965,-4.2176,-4.1352,-4.0561,-3.9753,-3.8946,-3.8469,-3.8102,-3.7621,-3.7492,-3.7441,-3.7119,-3.6785,-3.6487,-3.6286,-3.5691,-3.5096,-3.4768,-3.4917,-3.4581,-3.2839,-3.2725,0.0,-3.0692,-3.0404,-3.0404,-3.0404,-3.0404,-3.0154,-2.9442,-2.9198,-2.9191,-2.9435,-2.8293,-2.7693,-2.8135,-2.7397,0.0,0.0,0.0,-2.4709,-2.4338,-2.3402,0.0,0.0,0.0,-2.1698,-2.1367,0.0,0.0,0.0,-2.2964,-2.3513,0.0,0.0,0.0,0.0,0.0,0.0,0.0,0.0,0.0,0.0,0.0,0.0,0.0,0.0,0.0,0.0,-5.0471,-5.2385,-5.5221,-5.6238,-5.6489,-5.5888,-5.7053,-5.7577,-5.6765,-5.7895,-5.8146,-5.6777,-5.7342,-5.7123,-5.5777,-5.5706,0.0,0.0,0.0,-5.6876,-5.6786,-5.67,-5.6253,-5.5445,-5.4638,-5.3904,-5.3167,-5.2362,-5.1555,-5.0765,-4.9939,-4.9095,-4.8196,-4.6654,-4.5938,-4.5608,-4.4102,-4.3515,-4.3515,-4.3515,-4.3515,-4.3515,-4.3515,0.0,0.0,-4.1515,-4.0689,-3.9882,-3.9074,-3.8267,-3.7621,-3.7529,-3.7437,-3.7364,-3.7364,-3.6703,-3.6094,-3.643,-3.5299,-3.4242,-3.4529,-3.4832,-3.4566,-3.2912,-3.2761,-3.241,-3.0827,-3.0462,-3.0404,-3.0404,-3.0404,-2.9865,-2.8371,-2.8819,-2.9017,-2.8403,0.0,0.0,-2.8101,-2.7417,-2.6194,-2.4453,-2.508,-2.5119,-2.4236,-2.4265,-2.3918,-2.3092,-2.2336,-2.1588,-2.0879,-2.166,-2.2031,-2.2051,-2.2773,-2.3532,0.0,0.0,0.0,0.0,0.0,0.0,0.0,0.0,0.0,0.0,0.0,0.0,0.0,0.0,0.0,-5.105,-5.2834,-5.4313,-5.5501,-5.6299,-5.6739,-5.6596,-5.7357,-5.7374,-5.6055,-5.6161,-5.6235,-5.5931,-5.5525,-5.5387,-5.5667,-5.5706,-5.5706,-5.5706,-5.6492,-5.6606,-5.5956,-5.5884,-5.5427,-5.462,0.0,0.0,-5.3167,-5.2362,-5.1555,-5.0765,-4.9939,-4.9095,-4.8233,-4.7259,-4.6104,-4.4837,-4.3864,-4.3515,-4.3515,-4.3515,-4.3515,-4.3515,-4.3515,-4.3387,-4.313,-4.2323,-4.1534,-4.0726,-3.99,-3.9111,0.0,-3.7676,-3.7033,-3.6523,-3.6523,-3.5404,-3.4463,-3.5161,-3.4581,-3.3908,-3.3954,-3.4398,-3.4462,-3.3431,-3.3047,-3.2583,-3.1621,-3.0865,-3.0404,-3.0404,-3.0404,-3.0288,-2.9962,-3.0058,-3.0384,-3.0979,-3.0281,-2.9586,-2.9162,-2.834,-2.7103,-2.5352,-2.5413,-2.5119,-2.4236,-2.4219,-2.3832,-2.3039,-2.2845,-2.2718,-2.2619,-2.2795,-2.2864,-2.2871,-2.3086,-2.3571,0.0,0.0,0.0,0.0,0.0,0.0,0.0,0.0,0.0,0.0,0.0,-4.8034,-4.8221,0.0,-5.1045,-5.256,-5.4109,-5.5412,-5.6156,-5.6258,-5.6122,-5.5733,-5.6342,-5.6359,-5.526,-5.5497,-5.5552,-5.5174,-5.4812,-5.4613,-5.461,-5.4606,-5.4606,-5.4606,-5.5713,-5.5911,-5.5124,-5.5447,-5.5188,-5.4399,-5.3592,-5.3185,-5.3206,-5.2784,-5.216,-5.1353,-5.0545,-4.9719,-4.882,-4.7186,-4.5792,-4.4618,-4.3809,-4.3515,-4.3515,-4.3515,-4.3515,-4.3515,-4.3515,-4.3515,-4.3369,-4.2561,-4.2029,-4.1479,-4.0267,-3.9625,-3.9129,-3.8322,-3.7808,-3.7404,-3.7015,-3.5973,-3.5037,-3.5004,-3.438,-3.3807,-3.3807,-3.426,-3.4439,-3.357,-3.3473,-3.3276,-3.2449,-3.1621,-3.0904,-3.0462,-3.0404,-3.0231,-2.9813,-2.9756,-2.9924,-3.0394,-2.9699,-2.9047,-2.8682,-2.7443,-2.6335,-2.5444,-2.5406,-2.5208,-2.4775,-2.4353,-2.3964,-2.3563,-2.3165,-2.3006,-2.3098,-2.3509,-2.3719,-2.3769,-2.4238,-2.4413,0.0,0.0,0.0,0.0,0.0,0.0,0.0,-4.6838,-4.7422,-4.8611,-4.9758,-5.0641,-5.0879,-5.233,-5.3619,-5.4075,-5.5158,-5.6139,-5.6714,-5.6173,-5.5446,-5.4685,-5.526,-5.5361,-5.4465,-5.5057,-5.5192,-5.4431,-5.438,-5.4126,-5.3534,-5.3501,-5.3501,-5.3501,-5.4805,-5.5025,-5.4081,-5.4819,-5.4752,-5.395,-5.3291,-5.306,-5.3185,-5.3041,-5.2619,-5.194,-5.0986,-5.0086,-4.917,-4.6838,-4.5516,-4.4837,-4.3864,-4.3515,-4.3515,-4.3515,-4.3515,-4.3515,-4.3515,-4.3515,-4.3404,-4.2745,-4.2433,-4.2029,-4.0561,-4.001,-3.9717,-3.8927,-3.8597,-3.8322,-3.7676,-3.6905,-3.6083,-3.5206,-3.4491,-3.399,-3.3825,-3.426,-3.4495,-3.3777,-3.3939,-3.3975,-3.3276,-3.2468,-3.1698,-3.0981,-3.075,-3.0404,-2.9704,-2.9608,-2.955,-2.9377,-2.8775,-2.8255,-2.7934,-2.6467,-2.5481,-2.5308,-2.5308,-2.5308,-2.5308,-2.4678,-2.4334,-2.4324,-2.3694,-2.343,-2.3543,-2.4217,-2.4572,-2.4647,-2.5371,-2.5312,-4.6654,-4.5039,-4.4764,-4.7278,-4.6893,-4.7205,0.0,-5.227,-5.1775,-5.3308,-5.3845,-5.4022,-5.3924,-5.422,-5.4885,-5.6195,-5.6579,-5.6714,-5.6799,-5.6173,-5.5446,-5.4685,-5.526,-5.5175,-5.3771,-5.4296,-5.4414,-5.3687,-5.3619,-5.3602,-5.3501,-5.3501,-5.3501,-5.3501,-5.4296,-5.4018,-5.2547,-5.3294,-5.3228,-5.2351,-5.226,-5.2576,-5.3167,-5.2454,-5.2087,-5.1903,-5.04,-4.9242,-4.8324,-4.6599,-4.5847,-4.5608,-4.4102,-4.3515,-4.3515,-4.3515,-4.3515,-4.3515,-4.3515,-4.3515,-4.3496,-4.3387,-4.2873,-4.2139,-4.1242,-4.0469,-3.9717,-3.8927,-3.8193,-3.7621,-3.7529,-3.6905,-3.6083,-3.5206,-3.4931,-3.4674,-3.3954,-3.426,-3.4675,-3.4581,-3.4367,-3.4167,-3.4071,-3.3333,-3.2737,-3.2641,-3.2006,-3.1525,-3.1429,-3.141,-3.1121,-3.0346,-3.0173,-2.9519,-2.803,-2.7005,-2.6115,-2.5346,-2.5308,-2.5308,-2.5308,-2.5212,-2.5178,-2.5168,-2.5072,-2.5063,-2.5136,-2.5293,-2.5393,-2.547,-2.5623,-2.5644,-4.8601,-4.7572,-4.726,-4.8086,-4.8875,-5.0068,-5.2454,-5.2839,-5.3151,-5.4766,-5.5523,-5.5734,-5.5271,-5.5595,-5.5997,-5.613,-5.6528,-5.6799,-5.6799,-5.6173,-5.5277,-5.4093,-5.3822,-5.367,-5.3518,-5.3788,-5.3822,-5.3518,-5.3501,-5.3501,-5.3501,-5.3501,-5.3298,-5.2824,-5.3547,-5.3221,-5.1667,-5.2768,-5.2927,-5.2112,-5.2531,-5.2915,-5.3185,-5.2858,-5.2197,-5.1261,-5.0582,-4.9536,-4.8177,-4.6562,-4.5902,-4.5736,-4.4121,-4.3515,-4.3515,-4.3515,-4.3515,-4.3515,-4.3515,-4.3515,-4.3515,-4.3515,-4.3276,-4.2763,-4.148,-4.0873,-4.0341,-3.9056,-3.8469,-3.8083,-3.7621,-3.7254,-3.678,-3.5954,-3.5771,-3.5532,-3.4674,-3.4975,-3.5269,-3.4788,-3.4844,-3.4968,-3.4968,-3.4237,-3.3833,-3.4334,-3.3256,-3.2391,-3.2391,-3.1987,-3.1371,-3.05,-3.0404,-2.9904,-2.8703,-2.7838,-2.7198,-2.6832,-2.6346,-2.6058,-2.6058,-2.5577,-2.5308,-2.5308,-2.5308,-2.533,-2.5406,-2.5425,-2.5503,-2.5602,-2.5633,-2.5661,-4.9445,-4.9077,-4.9077,-4.9811,-5.1334,-5.2894,-5.3775,-5.4271,-5.4932,-5.6308,-5.6877,-5.6968,-5.6429,-5.6804,-5.7011,-5.6389,-5.6575,-5.6811,-5.6801,-5.5818,-5.4718,-5.3636,-5.2621,-5.2232,-5.2824,-5.3061,-5.3264,-5.3484,-5.3501,-5.3501,-5.3501,-5.3501,-5.323,-5.2655,-5.2983,-5.254,-5.1202,-5.2019,-5.2116,-5.1526,-5.2266,-5.2725,-5.2897,-5.3103,-5.2325,-5.0802,-5.0802,-4.9719,-4.7865,-4.6709,-4.5975,-4.5461,-4.4287,-4.3699,-4.3515,-4.3515,-4.3515,-4.3515,-4.3515,-4.3515,-4.3515,-4.3515,-4.3515,-4.3239,-4.1864,-4.1279,-4.0802,-3.9423,-3.8872,-3.8505,-3.7713,-3.7658,-3.7584,-3.6541,-3.6468,-3.635,-3.5349,-3.5539,-3.5685,-3.4954,-3.519,-3.55,-3.55,-3.4988,-3.4776,-3.5404,-3.4423,-3.3526,-3.3295,-3.2545,-3.1795,-3.1154,-3.0885,-3.0404,-2.9525,-2.8703,-2.8145,-2.7915,-2.7082,-2.6601,-2.6601,-2.5769,-2.5308,-2.5308,-2.5308,-2.5317,-2.5368,-2.5391,-2.545,-2.5547,-2.5573,-2.5632,0.0,-4.7755,-4.8305,-5.3041,-5.4271,-5.5152,-5.8267,-5.84,-5.8088,-5.8909,-5.8492,-5.7951,-5.7939,-5.797,-5.7938,-5.7838,-5.7263,-5.6793,-5.6787,-5.4938,-5.3551,-5.3518,-5.2164,-5.1251,-5.1252,-5.1928,-5.2655,-5.345,-5.3501,-5.3501,-5.3501,-5.3501,-5.3501,-5.3467,-5.2739,-5.1977,-5.1216,-5.0534,-5.0137,-5.0072,-5.0823,-5.1494,-5.2159,-5.2875,-5.2325,-5.0802,-5.0802,-4.9426,-4.7131,-4.7076,-4.614,-4.4728,-4.4673,-4.4195,-4.3515,-4.3515,-4.3515,-4.3515,-4.3515,-4.3515,-4.3515,-4.3515,-4.3515,-4.3349,-4.2506,-4.1735,-4.093,-4.0102,-3.9294,-3.8505,-3.7713,-3.8065,-3.8267,-3.667,-3.6905,-3.7098,-3.577,-3.569,-3.5737,-3.5196,-3.5304,-3.55,-3.55,-3.5481,-3.5462,-3.55,-3.5442,-3.5115,-3.4263,-3.3391,-3.2852,-3.2833,-3.2122,-3.1308,-3.0423,-2.9563,-2.8723,-2.7953,-2.7082,-2.6601,-2.6601,-2.5769,-2.5308,-2.5308,-2.5308,-2.5308,-2.5293,-2.5379,-2.539,-2.5413,-2.5543,-2.5602,0.0,0.0,-5.2601,-5.5317,-5.6804,-5.7863,-5.8946,-5.8982,-5.8584,-5.7776,-5.6547,-5.5281,-5.4218,-5.4024,-5.42,-5.4705,-5.5483,-5.6012,-5.6069,-5.5422,-5.4198,-5.2213,-5.1539,-5.1014,-5.0524,-5.115,0.0,-5.2655,-5.2706,-5.2942,-5.3467,-5.3501,-5.3264,-5.2723,-5.1978,-5.1234,-5.0473,-5.0184,-5.0021,-5.0004,-5.1197,-5.188,-5.2118,-5.2309,-5.2105,-5.1536,-5.0453,-4.9517,-4.8618,-4.6985,-4.5993,-4.5388,-4.4323,-4.3736,-4.3515,-4.3515,-4.3515,-4.3515,-4.3515,-4.3515,-4.3515,-4.3515,-4.3515,-4.3349,-4.2543,-4.1754,-4.093,-4.012,-3.9313,-3.8634,-3.8377,-3.8505,-3.856,-3.8028,-3.8235,-3.8294,-3.7316,-3.7487,-3.7604,-3.6897,-3.6968,-3.7161,-3.7161,-3.7161,-3.6969,-3.6385,-3.5846,-3.5192,-3.4321,-3.4449,-3.4173,-3.3026,-3.3179,-3.3006,-3.2141,-3.1295,-3.0717,-3.0448,-2.9063,-2.8025,-2.7486,-2.664,-2.5885,-2.5308,-2.5308,-2.5308,-2.5308,-2.5312,-2.5354,-2.539,-2.5484,-2.5558,0.0,-5.3463,-5.5776,-5.7978,-5.93,-6.007,-6.007,-5.9606,-5.8652,-5.6767,-5.5097,-5.3481,-5.1877,-5.157,-5.1829,-5.2596,-5.3202,-5.3855,-5.4724,-5.4187,-5.3171,-5.1773,-5.1369,-5.1014,-5.0541,-5.0676,-5.1116,-5.186,-5.2418,-5.2841,-5.3061,-5.3597,-5.3642,-5.313,-5.2372,-5.1752,-5.1283,-5.0678,-5.0527,-5.0752,-5.1667,-5.2247,-5.2495,-5.2139,-5.1995,-5.1903,-5.0308,-4.9427,-4.9003,-4.7425,-4.625,-4.5406,-4.4654,-4.401,-4.3515,-4.3515,-4.3515,-4.3515,-4.3515,-4.3515,-4.3515,-4.3515,-4.3515,-4.3387,-4.2892,-4.2176,-4.1423,-4.0891,-4.0175,-3.957,-3.957,-3.957,-3.9496,-3.9203,-3.932,-3.9256,-3.8265,-3.8442,-3.8584,-3.7879,-3.7886,-3.8007,-3.8007,-3.8007,-3.77,-3.6827,-3.625,-3.5615,-3.4776,-3.5154,-3.5077,-3.3949,-3.4045,-3.3975,-3.341,-3.2333,-3.1698,-3.1698,-3.0063,-2.8876,-2.8357,-2.7217,-2.6351,-2.5788,-2.5462,-2.5308,-2.5308,-2.5308,-2.5312,-2.5375,-2.5431,-2.5508,-5.4473,-5.64,-5.7813,-6.0933,-6.1649,-6.1575,-6.1502,-6.0199,-5.8345,-5.5904,-5.4069,-5.2417,-5.0784,-5.0563,-5.0871,-5.1638,-5.0809,-5.0849,-5.3099,-5.1637,-5.0824,-5.2131,-5.1691,-5.1251,-5.1185,-5.0608,-5.049,-5.1134,0.0,-5.3078,-5.2401,-5.3788,-5.4589,-5.4589,-5.3862,-5.344,-5.3405,-5.1865,-5.1419,-5.2047,-5.2089,-5.2468,-5.3106,-5.2341,-5.1995,-5.1903,-5.0308,-4.9132,-4.8361,-4.8269,-4.6874,-4.4837,-4.5571,-4.4874,-4.3515,-4.3515,-4.3515,-4.3515,-4.3515,-4.3515,-4.3515,-4.3515,-4.3515,-4.3515,-4.3515,-4.2928,-4.2304,-4.2304,-4.1735,-4.1095,-4.1095,-4.1095,-4.091,-4.0152,-4.0163,-3.9976,-3.8707,-3.8674,-3.8744,-3.8239,-3.8123,-3.8123,-3.8123,-3.8084,-3.7796,-3.6962,-3.6788,-3.6462,-3.5615,-3.55,-3.55,-3.55,-3.475,-3.425,-3.425,-3.2737,-3.1764,-3.1731,-3.0142,-2.9173,-2.9096,-2.7519,-2.6659,-2.6601,-2.5731,-2.5308,-2.5308,-2.5308,-2.5308,-2.5308,-2.5371,-2.5431,-5.7299,-5.9318,-6.086,-6.2952,-6.2511,-6.1282,-6.0107,-5.8107,-5.5831,-5.3429,-5.0637,-4.8158,-4.6562,-4.7241,-4.8523,-4.9955,-5.1416,-5.3008,-5.4843,-5.4131,-5.3161,-5.2382,-5.2131,-5.1809,-5.1236,-5.1539,-5.1589,-5.1251,-5.154,-5.2215,-5.3145,-5.4097,-5.4589,-5.4589,-5.44,-5.3999,-5.3405,-5.1865,-5.1189,-5.1368,-5.1856,-5.2201,-5.2386,-5.2118,-5.1995,-5.1903,-5.0308,-4.9482,-4.9169,-4.7921,-4.6691,-4.5553,-4.5168,-4.4397,-4.3515,-4.3515,-4.3515,-4.3515,-4.3515,-4.3515,-4.3515,-4.3515,-4.3515,-4.3515,-4.3515,-4.2928,-4.2304,-4.2304,-4.1735,-4.1095,-4.1095,-4.1095,-4.1119,-4.1163,-4.0899,-4.0652,-4.0566,-4.0281,-4.0021,-3.9885,-3.9861,-3.9861,-3.9861,-3.9381,-3.8892,-3.8661,-3.8084,-3.7142,-3.5692,-3.55,-3.55,-3.55,-3.5128,-3.4863,-3.4863,-3.3705,-3.2699,-3.21,-3.1222,-3.0178,-2.8937,-2.8021,-2.7255,-2.6621,-2.5731,-2.5308,-2.5308,-2.5308,-2.5308,-2.5308,-2.5371,-2.5417,-6.0474,-6.2016,-6.2823,-6.3392,-6.2291,-6.0474,-5.8143,-5.6033,-5.3555,-5.0031,-4.759,-4.537,-4.3178,-4.429,-4.5993,-4.7432,-4.9626,-5.1886,-5.3839,-5.3818,-5.3429,-5.289,-5.2841,-5.2672,-5.2266,-5.2266,-5.2283,-5.2215,-5.2215,-5.2599,-5.3449,-5.4165,-5.4712,-5.5058,-5.5061,-5.4647,-5.3848,-5.2624,-5.2012,-5.203,-5.2399,-5.2576,-5.2581,-5.2178,-5.1995,-5.1903,0.0,-4.939,-4.893,-4.7626,-4.6415,-4.5333,-4.4892,-4.4213,-4.3515,-4.3515,-4.3515,-4.3515,-4.3515,-4.3515,-4.3515,-4.3515,-4.3515,-4.3515,-4.3515,-4.3167,-4.2818,-4.2818,-4.2506,-4.2158,-4.2158,-4.2253,-4.2329,-4.2162,-4.1838,-4.1604,-4.1815,-4.1146,-4.0496,-4.0496,-4.1131,-4.1401,-4.0631,-4.0321,-3.9928,-3.9191,-3.8665,-3.7879,-3.6549,-3.6173,-3.5991,-3.5864,-3.5409,-3.5043,-3.4935,-3.3979,-3.3061,-3.2251,-3.1623,-3.0716,-2.9377,-2.84,-2.7659,-2.7178,-2.5942,-2.5308,-2.5308,-2.5308,-2.5308,-2.5308,-2.5339,-2.536,-6.3392,-6.4163,-6.3906,-6.3172,-6.152,-5.9281,-5.6143,-5.3867,-5.1132,-4.6654,-4.4929,-4.3412,-4.0745,-4.2028,-4.3924,-4.5247,-4.731,-4.9582,-5.2086,-5.249,-5.2774,-5.3415,-5.3501,-5.3501,-5.3501,-5.2875,-5.2756,-5.345,-5.35,-5.3487,-5.3485,-5.4224,-5.4973,-5.5659,-5.5524,-5.5097,-5.4418,-5.361,-5.3185,-5.3185,-5.3185,-5.3185,-5.3167,-5.2472,-5.2032,-5.1756,-5.0381,-4.9187,-4.8251,-4.7424,-4.6214,-4.4856,-4.4745,-4.4213,-4.3515,-4.3515,-4.3515,-4.3515,-4.3515,-4.3515,-4.3515,-4.3515,-4.3515,-4.3515,-4.3515,-4.3515,-4.3515,-4.3515,-4.3515,-4.3496,-4.3546,-4.3772,-4.386,-4.3249,-4.288,-4.2694,-4.2803,-4.1785,-4.0843,-4.0843,-4.2066,-4.2577,-4.0899,-4.1073,-4.0911,-3.9308,-3.9099,-3.8861,-3.8099,-3.7351,-3.6788,-3.6555,-3.5821,-3.5239,-3.4884,-3.4093,-3.3235,-3.2363,-3.1846,-3.1161,-3.0216,-2.8918,-2.8121,-2.7895,-2.6288,-2.5423,-2.5308,-2.5308,-2.5308,-2.5308,-2.5308,-2.533,-6.4383,-6.4604,-6.4053,-6.3906,-6.1117,-5.774,-5.5188,-5.1261,0.0,-4.5351,-4.3205,-4.1354,-4.0189,-4.1887,-4.4214,-4.6396,-4.8252,-5.0522,-5.3627,-5.3597,-5.3283,-5.3483,-5.3501,-5.3501,-5.3501,-5.3382,-5.3348,-5.3501,-5.3462,-5.3422,-5.3437,-5.4729,-5.5539,-5.5596,-5.4961,-5.4546,-5.4399,-5.361,-5.3185,-5.3185,-5.3185,-5.3185,-5.3185,-5.3078,-5.227,-5.0986,-5.071,0.0,-4.8251,-4.7424,-4.6526,-4.5626,-4.4966,-4.4213,-4.3515,-4.3515,-4.3515,-4.3515,-4.3515,-4.3515,-4.3515,-4.3515,-4.3515,-4.3515,-4.3515,-4.3515,-4.3515,-4.3515,-4.3515,-4.3546,-4.3833,-4.3955,-4.4123,-4.4592,-4.4124,-4.3661,-4.3951,-4.3291,-4.2643,-4.2643,-4.2893,-4.268,-4.1399,-4.179,-4.1876,-4.0643,-4.0688,-4.0814,-4.0662,-3.8952,-3.7762,-3.7713,-3.7128,-3.6474,-3.5763,-3.51,-3.4191,-3.2933,-3.2963,-3.2436,-3.1138,-3.0356,-2.9313,-2.7934,-2.6909,-2.6019,-2.5308,-2.5308,-2.5308,-2.5308,-2.5308,-2.5317,-6.5375,-6.5338,-6.4512,-6.3649,-6.0052,-5.5996,-5.317,0.0,0.0,-4.3242,-4.157,-4.0148,-3.9061,-4.1054,-4.33,-4.46,-4.7126,-4.9905,-5.2799,-5.3247,-5.3478,-5.3997,-5.4074,-5.3913,-5.3534,-5.3501,-5.3501,-5.3501,-5.3827,-5.4001,-5.3952,-5.464,-5.5003,-5.4987,-5.4197,-5.3977,-5.4399,-5.361,-5.3185,-5.3185,-5.3185,-5.3185,-5.3206,-5.2766,-5.194,-5.0784,-5.0362,-4.9224,-4.7608,-4.6819,-4.6012,-4.5204,-4.4397,-4.3828,-4.3515,-4.3515,-4.3515,-4.3515,-4.3515,-4.3515,-4.3515,-4.3515,-4.3515,-4.3515,-4.3515,-4.3515,-4.3515,-4.3515,-4.3515,-4.3531,-4.3693,-4.4016,-4.4401,-4.4745,-4.4802,-4.4537,-4.3829,-4.3931,-4.3877,-4.2948,-4.3376,-4.3412,-4.1916,-4.2219,-4.2322,-4.1357,-4.1505,-4.1495,-4.0858,-4.0311,-3.9584,-3.8586,-3.7803,-3.6956,-3.5981,-3.5623,-3.4815,-3.3304,-3.3034,-3.2438,-3.1348,-3.0286,-2.9352,-2.8549,-2.7255,-2.639,-2.5981,-2.5519,-2.5308,-2.5308,-2.5308,-2.5308,-6.5595,-6.565,-6.4916,-6.3202,-5.9043,-5.4491,-5.1279,-4.726,0.0,-4.1161,-4.0111,-3.9278,-3.8123,-4.0043,-4.202,-4.274,-4.5496,-4.853,-5.1355,-5.2456,-5.3338,-5.4446,-5.4578,-5.4374,-5.3766,-5.3584,-5.3501,-5.3501,-5.4003,-5.4379,-5.4498,-5.4259,-5.4142,-5.4142,-5.3537,-5.35,-5.4142,-5.3537,-5.3185,-5.3185,-5.3185,-5.3185,-5.3167,-5.2546,-5.172,-5.0765,-5.0123,-4.8802,-4.7039,-4.6232,-4.5424,-4.4618,-4.3809,-4.3515,-4.3515,-4.3515,-4.3515,-4.3515,-4.3515,-4.3515,-4.3515,-4.3515,-4.3515,-4.3515,-4.3515,-4.3515,-4.3515,-4.3515,-4.3515,-4.3513,-4.3597,-4.4035,-4.4487,-4.458,-4.5,-4.5007,-4.3723,-4.4244,-4.4577,-4.3216,-4.3848,-4.4082,-4.244,-4.2656,-4.2753,-4.1872,-4.2038,-4.1897,-4.0975,-4.1497,-4.1297,-3.9595,-3.866,-3.77,-3.6631,-3.6474,-3.5746,-3.4112,-3.3583,-3.2813,-3.1682,-3.0535,-2.9665,-2.9107,-2.7813,-2.6967,-2.6601,-2.5904,-2.5481,-2.5308,-2.5308,-2.5308,-6.4071,-6.4806,-6.4916,-6.3202,-5.8621,-5.3665,-5.0455,0.0,-4.191,-3.973,-3.9023,-3.8619,-3.8015,-3.9132,-4.0855,-4.306,0.0,-4.641,-5.0353,-5.1604,-5.2702,-5.4313,-5.4563,-5.4558,-5.4513,-5.3881,-5.3501,-5.3501,-5.3458,-5.3735,-5.4464,-5.3749,-5.3295,-5.3295,-5.3243,-5.3243,-5.3295,-5.3243,-5.3185,-5.3185,-5.3185,-5.3185,-5.3185,-5.3112,-5.2252,-5.0802,-5.0729,-4.9334,0.0,-4.6232,-4.5424,-4.4618,-4.3809,-4.3515,-4.3515,-4.3515,-4.3515,-4.3515,-4.3515,-4.3515,-4.3515,-4.3515,-4.3515,-4.3515,-4.3515,-4.3515,-4.3515,-4.3515,-4.3515,-4.3563,-4.3881,-4.4001,-4.4146,-4.4514,-4.4663,-4.4644,-4.4493,-4.4562,-4.4594,-4.4442,-4.4511,-4.4186,-4.2936,-4.3375,-4.3522,-4.2402,-4.2526,-4.2698,-4.2579,-4.2484,-4.2094,-4.1186,-4.0358,-3.9528,-3.8699,-3.8348,-3.7558,-3.6118,-3.5982,-3.4985,-3.284,-3.2615,-3.1448,-2.9146,-2.8953,-2.8121,-2.6601,-2.6524,-2.6077,-2.5308,-2.5308,-2.5308,-6.2108,-6.3558,-6.4182,-6.2493,-5.785,-5.2968,-5.0235,0.0,-4.1209,-3.9855,-3.9111,-3.8627,-3.8415,-3.9202,-4.0359,0.0,0.0,0.0,-4.8079,-4.886,-5.0206,-5.334,-5.3358,-5.3492,-5.4481,-5.3502,-5.2768,-5.2786,-5.307,-5.3372,-5.3699,-5.3389,-5.3185,-5.3185,-5.3185,-5.3185,-5.3185,-5.3185,-5.3185,-5.3185,-5.3185,-5.3185,-5.3167,-5.2711,-5.1867,-5.0765,-5.0288,-4.9224,0.0,-4.6434,-4.5718,-4.5296,-4.3993,-4.3515,-4.3515,-4.3515,-4.3515,-4.3515,-4.3515,-4.3515,-4.3515,-4.3515,-4.3515,-4.3515,-4.3515,-4.3515,-4.3515,-4.3515,-4.3515,-4.3531,-4.3662,-4.3849,-4.4102,-4.4501,-4.4593,-4.4593,-4.4593,-4.4419,-4.4233,-4.4233,-4.408,-4.3791,-4.3301,-4.349,-4.3552,-4.3091,-4.331,-4.3262,-4.2585,-4.2969,-4.2895,-4.1882,-4.1399,-4.0596,-3.9243,-3.9025,-3.8491,-3.7386,-3.637,-3.5403,-3.45,-3.3468,-3.2199,-3.0698,-3.016,-2.9294,-2.8102,-2.7082,-2.6428,-2.6077,-2.5538,-2.5308,-5.9696,-6.1741,-6.2952,-6.13,-5.684,-5.216,0.0,0.0,-4.0751,-3.9557,-3.8978,-3.8643,-3.8496,-3.9253,-4.0157,0.0,0.0,-4.3351,-4.6324,-4.6947,-4.835,-5.1719,-5.165,-5.2104,-5.4015,-5.3658,-5.3205,-5.2979,-5.3334,-5.3471,-5.3219,-5.3207,-5.3185,-5.3185,-5.3185,-5.3185,-5.3185,-5.3185,-5.3185,-5.3185,-5.2968,-5.2858,-5.2821,-5.2013,-5.1206,-5.0398,-4.9849,-4.8967,0.0,-4.6471,-4.5755,-4.5406,-4.4047,-4.3515,-4.3515,-4.3515,-4.3515,-4.3515,-4.3515,-4.3515,-4.3515,-4.3515,-4.3515,-4.3515,-4.3515,-4.3515,-4.3515,-4.3515,-4.3515,-4.3515,-4.3515,-4.3679,-4.3927,-4.4194,-4.4266,-4.4266,-4.4266,-4.4046,-4.3849,-4.3849,-4.3662,-4.3515,-4.3515,-4.3515,-4.3515,-4.3515,-4.3693,-4.3553,-4.2759,-4.3357,-4.3509,-4.2561,-4.2188,-4.1464,-4.0154,-3.9804,-3.9284,-3.843,-3.7026,-3.6019,-3.5519,-3.4064,-3.2776,-3.1718,-3.1096,-3.0237,-2.9107,-2.7909,-2.7082,-2.6582,-2.5962,-2.5558,-5.6713,-5.9189,-6.1245,-5.9648,-5.5592,-5.1151,0.0,-4.3994,-4.0504,-3.8357,-3.8334,-3.8546,-3.8015,-3.9004,-4.0157,0.0,0.0,0.0,-4.5571,-4.6599,-4.77,-4.9352,-4.9579,-5.0572,-5.2997,-5.4697,-5.5341,-5.4535,-5.4478,0.0,-5.3255,-5.3207,-5.3185,-5.3185,-5.3185,-5.3185,-5.3185,-5.3185,-5.3185,-5.3185,-5.238,-5.1995,-5.1977,-5.1187,-5.0362,-4.961,-4.961,-4.8655,0.0,-4.625,-4.5424,-4.4635,-4.3809,-4.3515,-4.3515,-4.3515,-4.3515,-4.3515,-4.3515,-4.3515,-4.3515,-4.3515,-4.3515,-4.3515,-4.3515,-4.3515,-4.3515,-4.3515,-4.3515,-4.3515,-4.3515,-4.3496,-4.3515,-4.3496,-4.3496,-4.3496,-4.3496,-4.3515,-4.3515,-4.3515,-4.3496,-4.3515,-4.3515,-4.3515,-4.3515,-4.3515,-4.3496,-4.3496,-4.3496,-4.3786,-4.3829,-4.3327,-4.2803,-4.2298,-4.1811,-4.0969,-4.015,-3.9342,-3.845,-3.7238,-3.5577,-3.4641,-3.3391,-3.1737,-3.1698,-3.0833,-2.9107,-2.9088,-2.8222,-2.6601,-2.6601,-2.6115,-5.2367,-5.4252,-5.5611,-5.4546,-5.1867,-4.8765,-4.6067,-4.3187,-4.0604,-3.8809,-3.8578,-3.8643,-3.8481,-3.8779,-3.9533,-4.0875,0.0,0.0,0.0,0.0,-4.7297,-5.0068,-5.1939,-5.2919,-5.2687,-5.2634,-5.2299,-5.1468,-5.2335,-5.2738,-5.2468,-5.2937,-5.3185,-5.3185,-5.3185,-5.3185,-5.3185,-5.3185,-5.3185,-5.3185,-5.238,-5.2289,-5.2766,-5.1426,-5.0655,-5.038,-4.9849,-4.8655,-4.7039,-4.6232,-4.5424,-4.4618,-4.3809,-4.3515,-4.3515,-4.3515,-4.3515,-4.3515,-4.3515,-4.3515,-4.3515,-4.3515,-4.3515,-4.3515,-4.3515,-4.3515,-4.3515,-4.3515,-4.3515,-4.3515,-4.3515,-4.3515,-4.3515,-4.3515,-4.3515,-4.3515,-4.3515,-4.3515,-4.3515,-4.3515,-4.3515,-4.3515,-4.3515,-4.3515,-4.3515,-4.3515,-4.3515,-4.3515,-4.3515,-4.3788,-4.4053,-4.4163,-4.3707,-4.2957,-4.1888,-4.0989,-4.04,-4.015,-3.8796,-3.7757,-3.7238,-3.5834,-3.4564,-3.343,-3.341,-3.2564,-3.0871,-3.0275,-2.8813,-2.6601,-2.6601,-2.6135,0.0,-5.082,-5.2105,-5.1298,-4.9462,0.0,0.0,-4.2616,-4.0636,-3.9038,-3.8707,-3.8707,-3.8707,-3.8946,-3.9478,-4.0487,0.0,0.0,0.0,-4.469,-4.6874,-4.9536,-5.2094,-5.3167,-5.1951,-5.1994,-5.1738,-5.0924,-5.1685,-5.2137,-5.2089,-5.2531,-5.2915,-5.3185,-5.3185,-5.3185,-5.3185,-5.3185,-5.3185,-5.3185,-5.238,-5.2105,-5.2252,-5.093,-5.0141,-4.9829,-4.9334,-4.8343,0.0,-4.6232,-4.5424,-4.4618,-4.3809,-4.3515,-4.3515,-4.3515,-4.3515,-4.3515,-4.3515,-4.3515,-4.3515,-4.3515,-4.3515,-4.3515,-4.3515,-4.3515,-4.3515,-4.3515,-4.3515,-4.3515,-4.3515,-4.3515,-4.3515,-4.3515,-4.3515,-4.3515,-4.3515,-4.3515,-4.3515,-4.3515,-4.3515,-4.3515,-4.3515,-4.3515,-4.3515,-4.3515,-4.3515,-4.3515,-4.3515,-4.3788,-4.4146,-4.4553,-4.4125,-4.3396,-4.2387,-4.1489,-4.0854,-4.0516,-3.9246,-3.8334,-3.8007,-3.6673,-3.5411,-3.4225,-3.4205,-3.3526,-3.216,-3.0962,-2.9423,-2.7544,-2.7236,-2.6621,0.0,0.0,0.0,0.0,0.0,0.0,0.0,0.0,0.0,0.0,-3.8707,-3.8726,-3.8781,-3.935,-3.9845,-3.9955,-4.124,0.0,-4.2286,-4.458,-4.6856,-4.8471,-5.0788,-5.1927,-5.0996,-5.2317,-5.2918,-5.213,-5.2103,-5.2082,-5.2036,-5.2071,-5.2445,-5.3185,-5.313,-5.313,-5.3185,-5.3185,-5.3185,-5.3185,-5.2325,-5.1555,-5.0857,-4.9866,-4.9003,0.0,-4.8251,-4.7718,-4.6874,-4.6122,-4.5351,-4.4544,-4.3791,-4.3515,-4.3515,-4.3515,-4.3515,-4.3515,-4.3515,-4.3515,-4.3515,-4.3515,-4.3515,-4.3515,-4.3515,-4.3515,-4.3515,-4.3515,-4.3515,-4.3515,-4.3515,-4.3515,-4.3515,-4.3515,-4.3515,-4.3515,-4.3515,-4.3515,-4.3515,-4.3515,-4.3515,-4.3515,-4.3515,-4.3515,-4.3515,-4.3515,-4.3515,-4.3515,-4.3531,-4.382,-4.4161,-4.4593,-4.4193,-4.3702,-4.3242,-4.2335,-4.1431,-4.0554,-3.9746,-3.8911,-3.8046,-3.7161,-3.5949,-3.4321,-3.4225,-3.3782,-3.2891,-3.1269,-3.0006,-2.9088,-2.8338,-2.7525,0.0,0.0,0.0,0.0,0.0,0.0,0.0,0.0,0.0,0.0,0.0,0.0,0.0,0.0,0.0,-4.0618,-4.1132,-4.159,-4.2213,-4.6544,-5.0251,-5.1846,-5.3208,-5.3223,-5.1251,-5.09,-5.0512,-4.9842,-5.0253,-5.0774,-5.131,-5.1832,-5.2445,-5.3185,-5.2601,-5.2582,-5.3185,-5.3185,-5.3185,-5.3167,-5.1756,-5.1316,-5.1646,-4.9536,-4.8489,-4.8269,-4.7645,-4.6581,-4.5241,-4.5058,-4.4507,-4.3754,-4.357,-4.3515,-4.3515,-4.3515,-4.3515,-4.3515,-4.3515,-4.3515,-4.3515,-4.3515,-4.3515,-4.3515,-4.3515,-4.3515,-4.3515,-4.3515,-4.3515,-4.3515,-4.3515,-4.3515,-4.3515,-4.3515,-4.3515,-4.3515,-4.3515,-4.3515,-4.3515,-4.3515,-4.3515,-4.3515,-4.3515,-4.3515,-4.3515,-4.3515,-4.3515,-4.3597,-4.3849,-4.3955,-4.4243,-4.4919,-4.4862,-4.4572,-4.4068,-4.2662,-4.1431,-4.0554,-3.9746,-3.8911,-3.8046,-3.7161,-3.6231,-3.5212,-3.4545,-3.3782,-3.2891,-3.1891,-3.0602,-2.9107,-2.8915,-2.8376,0.0,0.0,0.0,0.0,0.0,0.0,0.0,0.0,0.0,0.0,0.0,0.0,0.0,0.0,0.0,-4.0414,-4.1479,-4.2745,-4.4305,-4.748,-5.027,-5.1903,-5.2899,-5.2826,0.0,-5.0417,-4.9722,-4.9063,-4.9022,-4.9332,-5.0055,-5.0759,-5.1292,-5.1632,-5.187,-5.2197,-5.2656,-5.2289,-5.2105,-5.2105,-5.1224,-5.0839,-5.0859,-4.9499,-4.8489,-4.7718,-4.7278,-4.6195,-4.4691,-4.4691,-4.4232,-4.3515,-4.3515,-4.3515,-4.3515,-4.3515,-4.3515,-4.3515,-4.3515,-4.3515,-4.3515,-4.3515,-4.3515,-4.3515,-4.3515,-4.3515,-4.3515,-4.3515,-4.3515,-4.3515,-4.3515,-4.3515,-4.3515,-4.3515,-4.3515,-4.3515,-4.3515,-4.3515,-4.3548,-4.3693,-4.3614,-4.3548,-4.3693,-4.3614,-4.3515,-4.3515,-4.3515,-4.3612,-4.3955,-4.4161,-4.4482,-4.5052,-4.5232,-4.5055,-4.4365,-4.347,-4.2412,-4.1162,-4.0304,-3.9477,-3.8623,-3.7757,-3.6731,-3.5519,-3.5045,-3.418,-3.2891,-3.2468,-3.1371,-2.9698,-2.9698,-2.9256,0.0,0.0,0.0,0.0,0.0,0.0,0.0,0.0,0.0,0.0,0.0,0.0,0.0,-3.9515,-4.0026,-4.0377,-4.2359,-4.48,-4.7461,-4.8525,-4.9591,-5.1004,-5.2043,-5.2186,-5.1022,-5.0352,-4.9694,-4.8894,-4.8156,-4.8038,-4.8688,-4.9424,-4.9822,-4.9807,-5.0991,-5.1628,-5.1628,-5.1077,-5.0802,-5.0802,-5.0674,-5.0178,-4.9408,-4.928,-4.8306,-4.6727,0.0,0.0,-4.4525,-4.4525,-4.4121,-4.3515,-4.3515,-4.3515,-4.3515,-4.3515,-4.3515,-4.3515,-4.3515,-4.3515,-4.3515,-4.3515,-4.3515,-4.3515,-4.3515,-4.3515,-4.3515,-4.3515,-4.3515,-4.3515,-4.3515,-4.3515,-4.3515,-4.3515,-4.3515,-4.3513,-4.3582,-4.358,-4.3679,-4.4031,-4.382,-4.3679,-4.3955,-4.3726,-4.3513,-4.3563,-4.358,-4.371,-4.4117,-4.4455,-4.4793,-4.5129,-4.5429,-4.5306,-4.4566,-4.4374,-4.3682,-4.2277,-4.1239,-4.0285,-3.9342,-3.8334,-3.7142,-3.5712,-3.5558,-3.4712,-3.3103,-3.3103,-3.2237,-3.0596,-3.0596,-3.014,-3.9551,-4.0487,0.0,0.0,0.0,0.0,0.0,0.0,0.0,0.0,0.0,0.0,0.0,-4.0286,-4.0577,-4.2633,-4.4397,-4.6874,-5.071,-5.194,-5.2525,-5.2803,-5.4151,-5.3748,-5.0409,-5.0028,-4.9464,-4.8162,-4.7394,-4.7254,-4.7937,-4.8607,-4.9209,-4.9771,-4.9914,-4.9978,-4.9978,-5.0508,-5.0802,-5.0802,-5.0105,-4.9315,-4.8489,-4.7791,-4.6599,-4.5058,0.0,-4.4544,-4.3681,-4.3681,-4.3608,-4.3515,-4.3515,-4.3515,-4.3515,-4.3515,-4.3515,-4.3515,-4.3515,-4.3515,-4.3515,-4.3515,-4.3515,-4.3515,-4.3515,-4.3515,-4.3515,-4.3515,-4.3515,-4.3515,-4.3515,-4.3515,-4.3515,-4.3515,-4.3515,-4.358,-4.3865,-4.3924,-4.4046,-4.4433,-4.4175,-4.394,-4.4001,-4.3726,-4.3597,-4.3881,-4.3924,-4.4161,-4.4842,-4.4977,-4.514,-4.5495,-4.5568,-4.5556,-4.5421,-4.472,-4.4182,-4.3932,-4.247,-4.0912,-3.9361,-3.7757,-3.6769,-3.6519,-3.5846,-3.5007,-3.3994,-3.3994,-3.3141,-3.1506,-3.1506,-3.1019,-3.9148,-3.9845,-4.0469,0.0,0.0,0.0,0.0,0.0,0.0,0.0,0.0,0.0,0.0,0.0,-4.2782,-4.5626,-4.6709,-4.8012,-5.0306,-5.1371,-5.1903,-5.1903,-5.3316,-5.3302,-5.0695,-5.0162,-4.9407,-4.7912,-4.6816,-4.635,-4.664,-4.7317,-4.7756,-4.7954,-4.8667,-4.9017,-4.8893,-4.8838,-4.88,-4.88,-4.8434,-4.781,-4.6985,-4.6636,-4.581,-4.4691,0.0,-4.425,-4.3515,-4.3515,-4.3515,-4.3515,-4.3515,-4.3515,-4.3515,-4.3515,-4.3515,-4.3515,-4.3515,-4.3515,-4.3515,-4.3515,-4.3515,-4.3515,-4.3515,-4.3515,-4.3515,-4.3515,-4.3515,-4.3515,-4.3515,-4.3515,-4.3515,-4.3515,-4.3629,-4.382,-4.3971,-4.4161,-4.4428,-4.4793,-4.4561,-4.4373,-4.4574,-4.415,-4.3818,-4.3986,-4.4001,-4.4204,-4.4757,-4.4996,-4.5222,-4.5568,-4.5594,-4.5594,-4.5594,-4.5229,-4.4412,-4.3047,-4.2239,-4.1046,-3.9381,-3.8084,-3.718,-3.6712,-3.5904,-3.5064,-3.4205,-3.4205,-3.3564,-3.2333,-3.191,-3.1487,-3.8652,-3.9148,-3.9808,0.0,0.0,0.0,0.0,0.0,0.0,0.0,0.0,0.0,0.0,-4.2983,-4.4984,-4.7847,-4.8636,-4.937,-5.0729,-5.1334,-5.172,-5.1903,-5.2858,-5.2787,-5.1058,-5.0198,-4.9027,-4.7296,-4.6112,-4.5365,-4.5179,-4.579,-4.6147,-4.6118,-4.7366,-4.8039,-4.8012,-4.7406,-4.7094,-4.7094,-4.6911,-4.6397,-4.5626,-4.5626,-4.5186,-4.4415,-4.4415,-4.4066,-4.3515,-4.3515,-4.3515,-4.3515,-4.3515,-4.3515,-4.3515,-4.3515,-4.3515,-4.3515,-4.3515,-4.3515,-4.3515,-4.3515,-4.3515,-4.3515,-4.3515,-4.3515,-4.3515,-4.3515,-4.3515,-4.3515,-4.3515,-4.3515,-4.3513,-4.3597,-4.382,-4.4043,-4.4233,-4.4495,-4.4825,-4.514,-4.4943,-4.48,-4.5063,-4.4495,-4.4028,-4.4136,-4.4058,-4.4175,-4.4657,-4.4943,-4.5222,-4.5568,-4.5594,-4.5594,-4.5594,-4.5594,-4.4682,-4.2527,-4.2019,-4.1219,-3.9931,-3.8661,-3.77,-3.7019,-3.6,-3.5173,-3.4507,-3.4507,-3.4064,-3.3179,-3.2564,-3.2179,-3.8505,-3.8744,-3.8982,-3.979,0.0,0.0,-4.2892,-4.2213,0.0,-4.302,0.0,0.0,0.0,-4.4635,-4.6287,-4.8031,-4.9609,-5.1683,-5.4711,-5.4564,-5.4418,-5.5152,-5.4693,-5.3412,-5.1135,-4.9746,-4.8055,-4.5823,-4.5036,-4.435,-4.3595,-4.4182,-4.4796,-4.5264,-4.6043,-4.6701,-4.7186,-4.7131,-4.7094,-4.7094,-4.6342,-4.5571,-4.4783,-4.4783,-4.436,-4.3589,-4.3589,-4.3551,-4.3515,-4.3515,-4.3515,-4.3515,-4.3515,-4.3515,-4.3515,-4.3515,-4.3515,-4.3515,-4.3515,-4.3515,-4.3515,-4.3515,-4.3515,-4.3515,-4.3515,-4.3515,-4.3515,-4.3515,-4.3515,-4.3515,-4.3515,-4.3515,-4.358,-4.3896,-4.3986,-4.419,-4.4865,-4.5033,-4.515,-4.5504,-4.5283,-4.5074,-4.5096,-4.4495,-4.4136,-4.4501,-4.4233,-4.4261,-4.4966,-4.5085,-4.5222,-4.5568,-4.5594,-4.5594,-4.5594,-4.5594,-4.519,-4.4182,-4.2662,-4.175,-4.1635,-3.9296,-3.7969,-3.7911,-3.6327,-3.5462,-3.5404,-3.5404,-3.4968,-3.4109,-3.4052,-3.3583,-3.7878,-3.8322,-3.8781,-3.9074,0.0,0.0,0.0,-4.3424,-4.3498,-4.4121,-4.48,0.0,0.0,-4.5902,-4.7168,-4.8783,-5.0453,-5.2142,-5.3867,-5.4289,-5.4142,-5.3427,-5.3537,-5.2718,-5.0331,-4.88,-4.7265,-4.551,-4.4368,-4.3433,-4.2753,-4.2959,-4.3373,-4.3989,-4.429,-4.4884,-4.5868,-4.5358,-4.5275,-4.559,-4.5314,-4.4727,-4.3956,-4.3956,-4.3791,-4.3515,-4.3515,-4.3515,-4.3515,-4.3515,-4.3515,-4.3515,-4.3515,-4.3515,-4.3515,-4.3515,-4.3515,-4.3515,-4.3515,-4.3515,-4.3515,-4.3515,-4.3515,-4.3515,-4.3515,-4.3515,-4.3548,-4.374,-4.382,-4.3756,-4.3546,-4.3515,-4.358,-4.3909,-4.419,-4.4514,-4.4988,-4.5253,-4.5438,-4.5577,-4.5495,-4.5342,-4.5148,-4.4707,-4.4332,-4.4233,-4.4106,-4.419,-4.472,-4.4966,-4.5159,-4.5282,-4.5292,-4.5362,-4.5577,-4.5594,-4.546,-4.5133,-4.3547,-4.2374,-4.1808,-3.9873,-3.8815,-3.8815,-3.7642,-3.6788,-3.625,-3.625,-3.5827,-3.5007,-3.4449,-3.4013,-3.678,-3.7312,-3.801,0.0,0.0,0.0,-4.3406,-4.4507,-4.5223,-4.5736,-4.6507,-4.6856,-4.6049,0.0,-4.726,-4.8857,-5.0306,-5.1775,-5.3371,-5.3408,-5.3041,-5.2454,-5.2179,-5.1279,-4.9352,-4.7866,-4.6424,-4.4981,-4.3821,-4.2932,-4.227,-4.2063,-4.2253,-4.2895,-4.2944,-4.343,-4.442,-4.4079,-4.408,-4.4455,-4.4362,-4.403,-4.3515,-4.3515,-4.3515,-4.3515,-4.3515,-4.3515,-4.3515,-4.3515,-4.3515,-4.3515,-4.3515,-4.3515,-4.3515,-4.3515,-4.3515,-4.3515,-4.3515,-4.3515,-4.3515,-4.3515,-4.3515,-4.3513,-4.3631,-4.3662,-4.3726,-4.4091,-4.419,-4.4106,-4.3758,-4.3742,-4.3899,-4.4136,-4.4468,-4.4881,-4.5368,-4.5553,-4.5691,-4.5951,-4.5787,-4.5522,-4.5302,-4.4896,-4.4514,-4.4219,-4.3986,-4.3971,-4.4346,-4.4612,-4.4806,-4.4931,-4.5041,-4.5201,-4.5419,-4.555,-4.5594,-4.5594,-4.4259,-4.3104,-4.2258,-4.0335,-3.9304,-3.9304,-3.843,-3.7565,-3.6692,-3.6981,-3.6558,-3.5481,-3.5141,-3.4853,-3.5243,-3.5628,-3.6486,0.0,0.0,0.0,-4.3975,-4.5314,-4.6342,-4.7976,-4.7663,-4.6856,-4.6067,-4.5902,-4.6434,-4.8049,-4.9022,-5.073,-5.3922,-5.2307,-5.1389,-5.2965,-5.0986,-4.9169,-4.8379,-4.7009,-4.5544,-4.4012,-4.3462,-4.2871,-4.2144,-4.1511,-4.1478,-4.2044,-4.2157,-4.2434,-4.2969,-4.3571,-4.3868,-4.3888,-4.3633,-4.3515,-4.3515,-4.3515,-4.3497,-4.3479,-4.3497,-4.3497,-4.3479,-4.3497,-4.3515,-4.3515,-4.3515,-4.3515,-4.3515,-4.3515,-4.3515,-4.3515,-4.3515,-4.3515,-4.3515,-4.3515,-4.3515,-4.3546,-4.3912,-4.4001,-4.4073,-4.4487,-4.4593,-4.4514,-4.4102,-4.4323,-4.4593,-4.4612,-4.4849,-4.5306,-4.6118,-4.5927,-4.5855,-4.6721,-4.6182,-4.5605,-4.5605,-4.5033,-4.4593,-4.4612,-4.3958,-4.3612,-4.3955,-4.4001,-4.4146,-4.4553,-4.4896,-4.5096,-4.5096,-4.541,-4.5594,-4.5594,-4.4778,-4.3932,-4.3124,-4.0662,-3.9323,-3.9304,-3.845,-3.7603,-3.6731,-3.7584,-3.7154,-3.5538,-3.6327,-3.6262,-3.5389,-3.5628,0.0,-3.7309,0.0,0.0,0.0,-4.4488,0.0,0.0,-4.7663,-4.7021,-4.6782,-4.6727,-4.7076,-4.8141,-4.9022,-5.0143,-5.1646,-5.1261,-5.0765,-5.0674,-4.9481,-4.8343,-4.7516,-4.6047,-4.4798,-4.3961,-4.3258,-4.2391,-4.129,-4.1095,-4.0896,-4.0719,-4.0701,-4.0985,-4.1509,-4.2125,-4.2642,-4.3074,-4.3359,-4.3515,-4.3515,-4.3515,-4.3286,-4.2958,-4.3339,-4.3304,-4.2958,-4.3339,-4.3515,-4.3515,-4.3515,-4.3515,-4.3515,-4.3515,-4.3515,-4.3515,-4.3515,-4.3515,-4.3515,-4.3515,-4.3515,-4.3546,-4.3912,-4.4001,-4.4132,-4.4769,-4.4943,-4.4919,-4.4806,-4.4853,-4.4818,-4.4304,-4.4261,-4.4538,-4.5293,-4.5605,-4.578,-4.5946,-4.6033,-4.591,-4.5357,-4.5085,-4.4781,-4.4261,-4.3986,-4.3896,-4.3986,-4.4001,-4.4146,-4.4553,-4.4682,-4.4849,-4.5074,-4.541,-4.5594,-4.5594,-4.4778,-4.3932,-4.3124,-4.1797,-4.0777,-4.0169,-3.99,-3.9361,-3.8527,-3.8542,-3.7997,-3.688,-3.6377,-3.6008,-3.4802,-3.5385,0.0,-3.7698,-4.0396,-4.3057,-4.4195,0.0,0.0,0.0,-4.8378,-4.7571,-4.7571,-4.7314,-4.7259,-4.7736,-4.8269,-4.8893,-4.9701,-4.926,-4.8783,-4.8618,-4.759,-4.6672,-4.6195,-4.4984,-4.4107,-4.3778,-4.3079,-4.2282,-4.1313,-4.1041,-4.0655,-4.0121,-4.0096,-4.0254,-4.0577,-4.1155,-4.1746,-4.2342,-4.2902,-4.3286,-4.3515,-4.3515,-4.3214,-4.2731,-4.3032,-4.3124,-4.3032,-4.3375,-4.3515,-4.3515,-4.3515,-4.3515,-4.3515,-4.3515,-4.3515,-4.3515,-4.3515,-4.3515,-4.3515,-4.3515,-4.3515,-4.3597,-4.4091,-4.4233,-4.4387,-4.5107,-4.5302,-4.5232,-4.4966,-4.4908,-4.4745,-4.4146,-4.4117,-4.4412,-4.5028,-4.5255,-4.5433,-4.58,-4.5863,-4.5709,-4.5359,-4.5085,-4.4745,-4.4304,-4.3986,-4.3804,-4.3804,-4.3804,-4.3943,-4.4318,-4.4501,-4.4751,-4.5074,-4.541,-4.5594,-4.5594,-4.4778,-4.3932,-4.3124,-4.2258,-4.1393,-4.0516,-4.0496,-4.0092,-3.9304,-3.9315,-3.869,-3.7489,-3.6843,-3.6366,-3.3917,-3.5018,-3.6597,-3.8377,-4.1222,0.0,-4.5553,-4.704,-4.8526,-5.0141,0.0,-4.8288,-4.8214,-4.7516,-4.6984,-4.6984,-4.6984,-4.7241,-4.7994,-4.6819,-4.6177,-4.6892,-4.5627,-4.4691,-4.4691,-4.3975,-4.3515,-4.3515,-4.2995,-4.244,-4.1832,-4.1246,-4.0655,-4.0121,-4.0096,-4.0096,-4.0096,-4.0631,-4.1183,-4.181,-4.242,-4.2976,-4.3515,-4.3515,-4.3232,-4.2769,-4.2655,-4.2958,-4.3515,-4.3515,-4.3515,-4.3515,-4.3515,-4.3515,-4.3515,-4.3515,-4.3515,-4.3515,-4.3515,-4.3515,-4.3515,-4.3515,-4.3513,-4.3679,-4.4378,-4.4618,-4.4769,-4.5419,-4.5594,-4.5448,-4.4769,-4.4593,-4.4487,-4.4061,-4.4219,-4.4645,-4.5166,-4.5017,-4.5073,-4.6089,-4.5821,-4.5479,-4.5589,-4.5189,-4.4826,-4.4685,-4.4002,-4.3515,-4.3515,-4.3515,-4.3629,-4.3971,-4.4346,-4.4751,-4.5074,-4.541,-4.5594,-4.5594,-4.4855,-4.4028,-4.3143,-4.2258,-4.1393,-4.0516,-4.0496,-4.0142,-3.9369,-3.9869,-3.9261,-3.768,-3.7528,-3.7071,0.0,-3.5004,0.0,0.0,-4.2066,-4.4709,-4.5681,-4.6177,-4.6709,-4.7681,-4.8122,-4.8122,-4.7461,-4.6709,-4.6159,-4.6159,-4.6159,-4.6214,-4.6397,-4.6122,-4.5957,-4.614,-4.5314,-4.4691,-4.4691,-4.3975,-4.3515,-4.3515,-4.2995,-4.244,-4.1832,-4.1246,-4.0655,-4.0121,-4.0096,-4.0096,-4.0096,-4.0631,-4.1183,-4.181,-4.242,-4.2976,-4.3515,-4.3515,-4.3427,-4.3268,-4.2384,-4.2562,-4.3515,-4.3515,-4.3515,-4.3515,-4.3515,-4.3515,-4.3515,-4.3515,-4.3515,-4.3515,-4.3515,-4.3515,-4.3515,-4.3515,-4.3695,-4.3971,-4.446,-4.4769,-4.5085,-4.5495,-4.5594,-4.5448,-4.4769,-4.4593,-4.4433,-4.3775,-4.3679,-4.4013,-4.5013,-4.5677,-4.6134,-4.6266,-4.7209,-4.7483,-4.5877,-4.6313,-4.6468,-4.5252,-4.4163,-4.3515,-4.3515,-4.3515,-4.3629,-4.3971,-4.4346,-4.4751,-4.5074,-4.541,-4.5594,-4.5594,-4.5421,-4.4643,-4.3162,-4.2258,-4.1393,-4.0516,-4.0496,-4.0312,-3.9928,-4.0053,-3.9763,-3.9123,-3.781,-3.7091,0.0,0.0,0.0,-4.0616,0.0,-4.4911,-4.5718,-4.5902,-4.6012,-4.6452,-4.6856,-4.7021,-4.6599,-4.6177,-4.5773,-4.5388,-4.5333,-4.5186,-4.48,-4.4745,-4.4745,-4.4745,-4.4378,-4.4121,-4.4121,-4.3736,-4.3332,-4.2947,-4.3013,-4.2389,-4.0772,-4.0778,-4.0255,-3.9088,-3.9402,-3.9571,-3.9571,-4.0197,-4.0797,-4.138,-4.1979,-4.2696,-4.3479,-4.3232,-4.325,-4.3444,-4.2599,-4.2696,-4.3515,-4.3515,-4.3515,-4.3515,-4.3515,-4.3515,-4.3515,-4.3515,-4.3515,-4.3515,-4.3515,-4.3515,-4.3515,-4.3515,-4.3726,-4.4091,-4.4474,-4.4837,-4.518,-4.5504,-4.5594,-4.5448,-4.4769,-4.4593,-4.4406,-4.3681,-4.3515,-4.3768,-4.4744,-4.514,-4.5447,-4.5969,-4.6771,-4.6939,-4.5589,-4.5615,-4.5496,-4.4538,-4.3872,-4.3515,-4.3515,-4.3515,-4.3712,-4.4237,-4.4474,-4.4793,-4.5302,-4.5504,-4.5594,-4.5594,-4.521,-4.4412,-4.3143,-4.2258,-4.1393,-4.0516,-4.0496,-4.0422,-4.0295,-4.0158,-4.0012,-3.981,-3.8521,-3.7914,0.0,0.0,-3.7533,-4.1825,-4.3589,0.0,-4.5296,-4.548,-4.548,-4.548,-4.559,-4.5681,-4.5681,-4.5571,-4.5259,-4.4599,-4.4488,-4.4268,-4.3589,-4.3515,-4.3515,-4.3515,-4.3386,-4.3277,-4.3277,-4.3167,-4.28,-4.2139,-4.2622,-4.1923,-3.9623,-4.0032,-3.9595,-3.7946,-3.8481,-3.887,-3.8988,-3.9486,-4.0129,-4.0903,-4.1512,-4.2364,-4.3357,-4.2902,-4.2995,-4.3462,-4.2939,-4.2995,-4.3515,-4.3515,-4.3515,-4.3515,-4.3515,-4.3515,-4.3515,-4.3515,-4.3515,-4.3515,-4.3515,-4.3515,-4.3515,-4.3515,-4.3726,-4.4091,-4.4474,-4.4837,-4.518,-4.5504,-4.5594,-4.5448,-4.4769,-4.4593,-4.4406,-4.3681,-4.3515,-4.3752,-4.4612,-4.449,-4.4543,-4.5679,-4.5778,-4.5628,-4.5449,-4.4624,-4.3934,-4.3731,-4.3589,-4.3515,-4.3515,-4.3515,-4.3761,-4.4433,-4.4553,-4.4861,-4.5457,-4.5568,-4.5594,-4.5594,-4.4913,-4.4162,-4.3335,-4.2489,-4.1604,-4.0746,-4.0573,-4.0481,-4.0441,-4.025,-4.0139,-4.0081,-3.9271,-3.8888,0.0,0.0,-3.7841,0.0,-4.1515,-4.2837,0.0,0.0,-4.3827,0.0,-4.4378,-4.4874,-4.4874,-4.4287,-4.379,-4.368,-4.3644,-4.3608,-4.3533,-4.3515,-4.3515,-4.3515,-4.2873,-4.2451,-4.2451,-4.1827,-4.137,-4.126,-4.0887,-4.0307,-3.9549,-3.9105,-3.8589,-3.7929,-3.8007,-3.8345,-3.8988,-3.8464,-3.9105,-4.0903,-4.1512,-4.2162,-4.2789,-4.2713,-4.2995,-4.3462,-4.2939,-4.2995,-4.3515,-4.3515,-4.3515,-4.3515,-4.3515,-4.3515,-4.3515,-4.3515,-4.3515,-4.3515,-4.3515,-4.3515,-4.3515,-4.3515,-4.3726,-4.4091,-4.4474,-4.4837,-4.518,-4.5504,-4.5594,-4.5448,-4.4769,-4.4593,-4.4406,-4.3681,-4.3515,-4.3801,-4.4904,-4.5137,-4.5352,-4.608,-4.5666,-4.5513,-4.6573,-4.5208,-4.4122,-4.4504,-4.3956,-4.3515,-4.3515,-4.3515,-4.3646,-4.4046,-4.4387,-4.4745,-4.5129,-4.5429,-4.5594,-4.5594,-4.5498,-4.5037,-4.4182,-4.3355,-4.2527,-4.1643,-4.0873,-4.0381,-4.0148,-4.0356,-4.033,-4.0081,-3.9495,-3.9238,-3.3587,-3.4266,-3.5367,0.0,-3.9423,-4.0487,-4.1295,-4.1827,-4.2286,-4.2727,-4.3112,-4.3497,-4.3938,-4.3736,-4.3515,-4.3515,-4.3112,-4.2818,-4.2818,-4.2433,-4.2037,-4.1739,-4.1657,-4.1507,-4.1212,-4.1127,-4.0912,-4.0469,-4.0325,-3.9659,-3.8274,-3.8101,-3.7593,-3.6637,-3.7043,-3.7432,-3.7777,-3.7855,-3.8491,-3.9661,-3.9949,-4.0521,-4.1359,-4.1359,-4.2141,-4.3497,-4.325,-4.3268,-4.3515,-4.3515,-4.3515,-4.3515,-4.3515,-4.3515,-4.3515,-4.3515,-4.3515,-4.3515,-4.3515,-4.3515,-4.3515,-4.3515,-4.3726,-4.4091,-4.4474,-4.4837,-4.518,-4.5504,-4.5457,-4.5211,-4.4739,-4.4433,-4.4136,-4.3631,-4.3515,-4.3756,-4.4658,-4.4895,-4.5124,-4.5874,-4.5381,-4.5009,-4.5612,-4.4615,-4.3789,-4.4009,-4.3718,-4.3515,-4.3515,-4.3515,-4.3629,-4.3971,-4.4346,-4.4751,-4.5074,-4.541,-4.5594,-4.5594,-4.5594,-4.521,-4.4335,-4.3951,-4.3143,-4.1827,-4.0931,-4.0449,-4.033,-4.0449,-4.0449,-4.0311,-4.0084,-3.9977,0.0,0.0,-3.3201,-3.5642,-3.7331,-3.8615,0.0,0.0,-4.102,0.0,-4.2011,-4.2176,-4.2782,-4.3057,-4.313,-4.291,-4.2396,-4.2011,-4.2011,-4.148,-4.0909,-4.0366,-4.0589,-4.058,-4.004,-4.0314,-4.0249,-3.9643,-3.9652,-3.8959,-3.7281,-3.7266,-3.6771,-3.5639,-3.618,-3.6586,-3.6795,-3.7533,-3.8012,-3.8215,-3.8542,-3.9171,-4.0092,-4.0221,-4.1215,-4.2892,-4.3112,-4.3185,-4.3185,-4.3185,-4.3331,-4.3478,-4.3276,-4.3331,-4.3515,-4.3515,-4.3515,-4.3515,-4.3515,-4.3515,-4.3515,-4.3515,-4.3679,-4.394,-4.4337,-4.4612,-4.4889,-4.5253,-4.518,-4.4896,-4.454,-4.4219,-4.3927,-4.358,-4.3515,-4.3662,-4.4308,-4.4762,-4.5117,-4.5429,-4.5084,-4.4697,-4.4543,-4.3951,-4.3515,-4.3515,-4.3515,-4.3515,-4.3515,-4.3515,-4.3597,-4.3849,-4.4308,-4.4695,-4.4943,-4.5352,-4.5594,-4.5594,-4.5594,-4.5306,-4.4662,-4.4412,-4.3701,-4.247,-4.1373,-4.0727,-4.0496,-4.0496,-4.0496,-4.0496,-4.0496,-4.0496,0.0,-3.2045,0.0,-3.2803,-3.522,0.0,0.0,0.0,-4.0194,-4.0985,-4.115,-4.1168,-4.1224,-4.1864,-4.2121,-4.1352,-4.1187,-4.115,-4.115,-4.1132,-4.0909,-4.0366,-4.0096,-3.9739,-3.9209,-3.8964,-3.8817,-3.8781,-3.829,-3.7792,-3.7228,-3.6719,-3.6195,-3.5622,-3.5633,-3.6028,-3.6795,-3.7533,-3.7557,-3.6909,-3.8052,-3.8936,-3.9552,-3.9999,-4.058,-4.126,-4.2029,-4.2359,-4.2359,-4.2359,-4.28,-4.3423,-4.2653,-4.2818,-4.3515,-4.3515,-4.3515,-4.3515,-4.3515,-4.3515,-4.3515,-4.3515,-4.3496,-4.3597,-4.3924,-4.4043,-4.4132,-4.454,-4.4631,-4.454,-4.4132,-4.4031,-4.3927,-4.358,-4.3515,-4.3597,-4.3955,-4.5178,-4.5905,-4.4852,-4.4932,-4.4929,-4.4172,-4.3747,-4.3515,-4.3515,-4.3515,-4.3515,-4.3515,-4.3515,-4.3515,-4.3513,-4.4184,-4.4624,-4.4618,-4.5213,-4.5594,-4.5594,-4.5594,-4.5575,-4.5537,-4.4739,-4.4259,-4.4162,-4.2566,-4.1335,-4.0496,-4.0496,-4.0496,-4.0496,-4.0496,-4.0496,0.0,0.0,0.0,-3.1568,-3.2706,-3.3802,-3.4614,-3.5811,-3.6986,-3.7845,-3.8836,-3.957,-3.957,-4.0636,-4.1425,-4.115,-4.0671,-4.0322,-4.0322,-3.99,-3.9355,-3.8829,-3.868,-3.8333,-3.7623,-3.7938,-3.8132,-3.794,-3.7641,-3.7378,-3.7209,-3.6357,-3.5805,-3.56,-3.56,-3.552,-3.534,-3.5588,-3.5771,-3.5847,-3.6761,-3.7632,-3.8492,-3.8653,-3.9037,-3.9591,-4.0414,-4.1056,-4.1534,-4.1534,-4.2011,-4.269,-4.2415,-4.2782,-4.3515,-4.3515,-4.3515,-4.3515,-4.3515,-4.3515,-4.3515,-4.3515,-4.3515,-4.3546,-4.3912,-4.4001,-4.4073,-4.4487,-4.4401,-4.4175,-4.4046,-4.3833,-4.3646,-4.3531,-4.3662,-4.3849,-4.3971,-4.464,-4.4997,-4.4346,-4.433,-4.4259,-4.3765,-4.358,-4.3515,-4.3515,-4.3515,-4.3515,-4.3515,-4.3695,-4.3742,-4.3513,-4.4346,-4.4837,-4.4606,-4.5203,-4.5594,-4.5594,-4.5594,-4.5594,-4.5594,-4.5306,-4.4874,-4.4316,-4.3701,-4.272,-4.1335,-4.0766,-4.0496,-4.0496,-4.0496,-4.0496,-3.1686,0.0,0.0,0.0,0.0,-3.1544,-3.2082,-3.3225,-3.4435,-3.5293,-3.6541,-3.7551,-3.7845,-3.8781,-3.968,-4.0212,-3.9386,-3.8872,-3.9423,-3.8799,-3.8204,-3.7927,-3.7893,-3.7626,-3.6932,-3.7484,-3.7763,-3.7423,-3.7292,0.0,-3.6941,-3.6097,-3.5481,-3.525,-3.4974,-3.4641,-3.4134,-3.4287,-3.4682,-3.5312,-3.6134,-3.6982,-3.7911,-3.8082,-3.8366,-3.8726,-3.9276,-3.9955,-4.0708,-4.0708,-4.1332,-4.2268,-4.2011,-4.2543,-4.3515,-4.3515,-4.3515,-4.3515,-4.3515,-4.3515,-4.3515,-4.3515,-4.3515,-4.3548,-4.3756,-4.3818,-4.3881,-4.4169,-4.405,-4.3818,-4.3818,-4.3679,-4.3515,-4.3515,-4.3679,-4.391,-4.4188,-4.4756,-4.5054,-4.4509,-4.4525,-4.448,-4.399,-4.368,-4.3515,-4.3515,-4.3515,-4.3515,-4.3515,-4.3788,-4.3909,-4.3693,-4.4521,-4.5019,-4.48,-4.5273,-4.5594,-4.5594,-4.5594,-4.5594,-4.5594,-4.5594,-4.5325,-4.4739,-4.4451,-4.3758,-4.2643,-4.1489,-4.0785,-4.0496,-4.0496,-4.0496,0.0,0.0,0.0,0.0,0.0,0.0,-3.1342,0.0,-3.2729,-3.3495,-3.4344,-3.5188,-3.5991,-3.6156,-3.6707,-3.8303,-3.7294,-3.6853,-3.8414,-3.7988,-3.7598,-3.7853,-3.7857,-3.7684,-3.7212,-3.7596,-3.7666,-3.7211,-3.7156,-3.6944,-3.6402,-3.5847,-3.5216,-3.4489,-3.3744,-3.3372,-3.3372,-3.3814,-3.4473,-3.5298,-3.6257,-3.7119,-3.7946,-3.8465,-3.8707,-3.8707,-3.8707,-3.9148,-3.9845,-3.9845,-4.0799,-4.2194,-4.1389,-4.2084,-4.3515,-4.3515,-4.3515,-4.3515,-4.3515,-4.3515,-4.3515,-4.3515,-4.3515,-4.3515,-4.3515,-4.3515,-4.3515,-4.3515,-4.3515,-4.3515,-4.3515,-4.3515,-4.3515,-4.3515,-4.3515,-4.3718,-4.4544,-4.5591,-4.615,-4.5345,-4.5539,-4.5608,-4.48,-4.4011,-4.3515,-4.3515,-4.3515,-4.3515,-4.3515,-4.3788,-4.4001,-4.4001,-4.4663,-4.5096,-4.5096,-4.541,-4.5594,-4.5594,-4.5594,-4.5594,-4.5594,-4.5594,-4.5594,-4.5594,-4.4759,-4.4335,-4.4297,-4.2624,-4.1373,-4.0535,-4.0516,-4.0496,-3.204,0.0,0.0,0.0,0.0,0.0,0.0,0.0,-3.076,-3.0399,-3.1885,-3.3151,-3.2816,-3.3238,-3.3972,-3.5,-3.5789,-3.645,-3.6909,-3.7272,-3.7521,-3.7601,-3.7263,-3.6996,-3.6841,-3.6962,-3.6824,0.0,-3.6305,-3.6119,-3.5625,-3.4588,-3.3931,-3.3711,-3.2983,-3.2615,-3.2615,-3.3063,-3.3887,-3.5029,-3.6163,-3.7321,-3.8481,-3.8627,-3.8707,-3.8707,-3.8707,-3.8836,-3.9038,-3.9038,-3.9992,-4.1407,-4.1187,-4.2084,-4.3515,-4.3515,-4.3515,-4.3515,-4.3515,-4.3515,-4.3515,-4.3515,-4.3515,-4.3515,-4.3515,-4.3515,-4.3515,-4.3515,-4.3515,-4.3515,-4.3515,-4.3515,-4.3515,-4.3515,-4.3515,-4.3718,-4.4544,-4.5404,-4.5786,-4.4976,-4.4926,-4.4782,-4.3975,-4.3662,-4.3515,-4.3515,-4.3515,-4.3515,-4.3515,-4.3788,-4.4001,-4.4001,-4.4663,-4.5096,-4.5096,-4.541,-4.5594,-4.5594,-4.5594,-4.5594,-4.5594,-4.5594,-4.5594,-4.5594,-4.5364,-4.494,-4.4297,-4.2624,-4.1681,-4.1431,-4.0785,-4.0496,0.0,0.0,0.0,0.0,0.0,0.0,-2.8638,-2.887,-2.898,-2.8161,-2.9372,-3.0558,-3.043,-3.0785,-3.1353,-3.2173,-3.2985,-3.4022,-3.554,-3.6156,-3.6534,-3.6696,-3.6397,-3.6116,-3.593,-3.62,-3.615,-3.565,-3.5669,-3.5494,-3.4988,-3.3968,-3.3406,-3.3406,-3.2374,-3.1919,-3.2081,-3.2573,-3.3424,-3.4716,-3.5937,-3.7124,-3.8212,-3.856,-3.8707,-3.8707,-3.8707,-3.8707,-3.8707,-3.8707,-3.9646,-4.1132,-4.1462,-4.2378,-4.3515,-4.3515,-4.3515,-4.3515,-4.3515,-4.3515,-4.3515,-4.3515,-4.3515,-4.3515,-4.3515,-4.3515,-4.3515,-4.3515,-4.3515,-4.3515,-4.3515,-4.3515,-4.3515,-4.3515,-4.3754,-4.4213,-4.5039,-4.5828,-4.6269,-4.5792,-4.5443,-4.5057,-4.458,-4.3938,-4.3515,-4.3515,-4.3515,-4.3608,-4.3956,-4.3992,-4.4188,-4.4705,-4.4965,-4.5169,-4.5302,-4.5495,-4.5594,-4.5594,-4.5594,-4.5594,-4.5594,-4.5594,-4.5594,-4.5594,-4.5594,-4.5171,-4.4297,-4.3316,-4.2489,-4.1769,-4.0912,-4.0496,0.0,0.0,0.0,0.0,-3.1403,0.0,-2.8301,-2.7989,-2.7787,-2.6796,-2.7236,-2.7952,-2.8491,-2.8748,-2.9085,-2.9758,-2.975,-3.0835,-3.4192,-3.4704,-3.4903,-3.5329,-3.5339,-3.5142,-3.4765,-3.5295,-3.5479,-3.5034,-3.4964,-3.4768,-3.4278,-3.3626,-3.3288,-3.3288,-3.2002,-3.1528,-3.1928,-3.2317,-3.3191,-3.455,-3.5725,-3.6776,-3.7658,-3.8377,-3.8707,-3.8707,-3.8707,-3.8707,-3.8707,-3.8799,-3.9735,-4.1168,-4.1901,-4.2708,-4.3515,-4.3515,-4.3515,-4.3515,-4.3515,-4.3515,-4.3515,-4.3515,-4.3515,-4.3515,-4.3515,-4.3515,-4.3515,-4.3515,-4.3531,-4.3548,-4.3496,-4.3531,-4.3548,-4.3515,-4.4103,-4.4911,-4.5608,-4.6471,-4.7094,-4.7094,-4.6452,-4.5847,-4.5663,-4.4452,-4.3515,-4.3515,-4.3515,-4.3791,-4.4617,-4.4258,-4.4423,-4.5682,-4.5342,-4.5201,-4.5568,-4.5594,-4.5594,-4.5594,-4.5594,-4.5594,-4.5594,-4.5594,-4.5594,-4.5594,-4.5594,-4.5229,-4.4432,-4.4355,-4.3489,-4.1923,-4.1046,-4.0708,0.0,0.0,0.0,0.0,-3.1403,0.0,-2.9133,-2.9274,-2.9145,-2.7024,-2.7236,-2.7449,-2.6311,-2.7163,-2.7983,-2.7816,-2.9077,-3.0677,-3.2339,-3.2868,-3.3311,-3.3978,-3.4051,-3.4128,-3.4289,-3.4216,-3.4018,-3.3771,-3.3199,-3.2839,-3.2733,-3.2598,-3.2513,-3.2513,-3.2242,-3.2295,-3.2759,-3.2581,-3.3458,-3.5361,-3.5999,-3.7055,-3.8469,-3.8634,-3.8707,-3.8707,-3.8707,-3.8707,-3.8762,-3.9405,-4.023,-4.1113,-4.126,-4.2213,-4.3515,-4.3515,-4.3515,-4.3515,-4.3515,-4.3515,-4.3515,-4.3515,-4.3515,-4.3515,-4.3515,-4.3515,-4.3515,-4.3515,-4.3693,-4.3833,-4.3563,-4.3693,-4.3833,-4.3546,-4.4103,-4.4745,-4.4911,-4.6067,-4.7094,-4.7094,-4.6452,-4.548,-4.4176,-4.3717,-4.3515,-4.3515,-4.3515,-4.3791,-4.4617,-4.4044,-4.4151,-4.5636,-4.5141,-4.4943,-4.5559,-4.5594,-4.5594,-4.5594,-4.5594,-4.5594,-4.5594,-4.5594,-4.5594,-4.5594,-4.5594,-4.5518,-4.5344,-4.4643,-4.3797,-4.2835,-4.195,-4.1912,-3.2122,-3.238,-3.2211,-3.2031,-3.1696,0.0,0.0,-2.8998,-2.8668,-2.7457,-2.72,-2.7071,-2.6678,-2.6924,-2.7211,-2.7194,-2.7707,-2.8598,-3.0009,-3.0749,-3.1266,-3.1631,-3.1531,-3.1711,-3.2401,-3.265,-3.2782,-3.2842,-3.2848,-3.2848,-3.2848,-3.2848,-3.2848,-3.2848,-3.2721,-3.2871,-3.3353,-3.3414,-3.4297,-3.5964,-3.6597,-3.7327,-3.812,-3.8524,-3.8707,-3.8707,-3.8707,-3.8707,-3.8726,-3.9148,-4.001,-4.1132,-4.1535,-4.2433,-4.3515,-4.3515,-4.3515,-4.3515,-4.3515,-4.3515,-4.3515,-4.3515,-4.3515,-4.3515,-4.3515,-4.3515,-4.3531,-4.3693,-4.3865,-4.3955,-4.3788,-4.3881,-4.3927,-4.358,-4.4415,-4.5296,-4.5296,-4.6562,-4.7571,-4.7186,-4.6764,-4.6122,-4.4911,-4.4163,-4.3758,-4.3758,-4.3758,-4.4036,-4.4851,-4.4094,-4.4007,-4.5346,-4.4963,-4.4793,-4.5312,-4.5504,-4.5594,-4.5594,-4.5594,-4.5594,-4.5594,-4.5594,-4.5594,-4.5594,-4.5594,-4.5594,-4.5594,-4.5171,-4.4509,-4.3682,-4.2835,-4.2681,-3.2036,-3.2567,-3.263,-3.2607,-3.2228,-3.1439,0.0,0.0,0.0,-2.8081,-2.7383,0.0,0.0,0.0,0.0,-2.6966,0.0,0.0,0.0,-2.8629,0.0,-2.9642,-2.9119,-2.9213,-3.0456,-3.099,-3.1426,-3.1839,-3.2425,-3.2831,-3.2983,-3.3119,-3.3186,-3.3186,-3.3061,-3.3278,-3.3915,-3.4078,-3.4966,-3.6541,-3.7033,-3.7437,-3.7749,-3.8395,-3.8707,-3.8707,-3.8707,-3.8707,-3.8707,-3.8707,-3.9646,-4.115,-4.1827,-4.2653,-4.3515,-4.3515,-4.3515,-4.3515,-4.3515,-4.3515,-4.3515,-4.3515,-4.3515,-4.3513,-4.358,-4.3597,-4.3679,-4.4016,-4.4161,-4.419,-4.4028,-4.4061,-4.4038,-4.38,-4.4709,-4.5663,-4.5663,-4.6819,-4.7664,-4.7003,-4.6856,-4.6599,-4.581,-4.4818,-4.4095,-4.402,-4.4001,-4.428,-4.51,-4.4256,-4.4007,-4.5087,-4.4834,-4.4751,-4.5074,-4.541,-4.5594,-4.5594,-4.5594,-4.5594,-4.5594,-4.5594,-4.5612,-4.5635,-4.5612,-4.5612,-4.5635,-4.5612,-4.5248,-4.4528,-4.3701,-4.3412,-3.1978,-3.2793,-3.303,-3.2692,-3.3073,-3.3109,-3.1488,0.0,-3.0577,-2.9152,0.0,-2.7361,0.0,0.0,0.0,0.0,0.0,0.0,-2.7008,-2.6714,-2.7445,-2.9782,-2.8235,-2.7828,-2.9965,-2.9642,-2.9607,-3.0294,-3.0446,-3.0768,-3.141,-3.2073,-3.2429,-3.2429,-3.2805,-3.354,-3.4659,-3.3775,-3.4676,-3.7364,-3.674,-3.7184,-3.8579,-3.867,-3.8707,-3.8707,-3.8707,-3.8707,-3.8707,-3.8707,-3.9646,-4.1113,-4.1187,-4.2158,-4.3515,-4.3515,-4.3515,-4.3515,-4.3515,-4.3515,-4.3515,-4.3515,-4.3515,-4.3565,-4.3849,-4.394,-4.4031,-4.4433,-4.4745,-4.483,-4.4175,-4.4261,-4.4538,-4.4551,-4.4691,-4.4838,-4.4838,-4.5553,-4.614,-4.6049,-4.6049,-4.5773,-4.4984,-4.4726,-4.4475,-4.4067,-4.4001,-4.428,-4.51,-4.4454,-4.4271,-4.5118,-4.4834,-4.4751,-4.5074,-4.541,-4.5594,-4.5594,-4.5594,-4.5594,-4.5594,-4.5594,-4.5668,-4.5769,-4.5657,-4.5648,-4.5789,-4.5648,-4.5556,-4.5441,-4.4566,-4.4586,-3.2017,-3.2648,-3.2878,-3.3218,-3.3201,-3.2926,-3.2247,-3.1733,-3.1329,-3.1133,0.0,0.0,0.0,0.0,0.0,0.0,-2.7301,0.0,0.0,0.0,-2.6151,-2.7928,0.0,0.0,-2.7994,-2.823,-2.8433,-2.8737,-2.9194,-2.9973,-3.114,-3.1478,-3.1992,-3.2679,-3.3589,-3.4429,-3.5266,-3.5556,-3.654,-3.8193,-3.7845,-3.8046,-3.8707,-3.8707,-3.8707,-3.8707,-3.8707,-3.8707,-3.8707,-3.8707,-3.9646,-4.1095,-4.1095,-4.2084,-4.3515,-4.3515,-4.3515,-4.3515,-4.3515,-4.3515,-4.3515,-4.3515,-4.3629,-4.382,-4.3955,-4.4161,-4.4414,-4.4781,-4.4988,-4.5041,-4.4713,-4.4631,-4.4554,-4.4339,-4.4514,-4.4691,-4.4691,-4.57,-4.6599,-4.6599,-4.6985,-4.7114,-4.6531,-4.5818,-4.5103,-4.4449,-4.4763,-4.5181,-4.55,-4.5047,-4.482,-4.5155,-4.5012,-4.4943,-4.5085,-4.541,-4.5594,-4.5594,-4.5594,-4.5594,-4.5594,-4.5594,-4.5657,-4.5796,-4.5747,-4.574,-4.5803,-4.574,-4.568,-4.5594,-4.5229,-4.5248,-3.2088,-3.2599,-3.2872,-3.3606,-3.3366,-3.2931,-3.2931,-3.2485,-3.2155,-3.254,-3.1513,0.0,0.0,0.0,0.0,0.0,0.0,-2.7317,0.0,-2.6214,0.0,0.0,0.0,0.0,0.0,-2.708,-2.7538,-2.7641,-2.8284,-2.9182,-3.0362,-3.0724,-3.1357,-3.2326,-3.3741,-3.4848,-3.5596,-3.6638,-3.7679,-3.8707,-3.8487,-3.8487,-3.8707,-3.8707,-3.8707,-3.8707,-3.8707,-3.8707,-3.8726,-3.8946,-3.9863,-4.1113,-4.1334,-4.2286,-4.3515,-4.3515,-4.3515,-4.3515,-4.3515,-4.3515,-4.3515,-4.3515,-4.3644,-4.3881,-4.3971,-4.4276,-4.467,-4.5019,-4.5169,-4.5201,-4.5,-4.4959,-4.4799,-4.4309,-4.4437,-4.4691,-4.4691,-4.5608,-4.6507,-4.6727,-4.7406,-4.7886,-4.7599,-4.6856,-4.6125,-4.5502,-4.5912,-4.6278,-4.6278,-4.5824,-4.5475,-4.5357,-4.5205,-4.5096,-4.5096,-4.541,-4.5594,-4.5594,-4.5635,-4.5635,-4.5594,-4.5653,-4.5742,-4.5826,-4.5826,-4.585,-4.5869,-4.5828,-4.5754,-4.564,-4.562,-4.5594,0.0,0.0,0.0,-3.3694,0.0,0.0,0.0,0.0,-3.3513,-3.2748,0.0,0.0,0.0,0.0,0.0,0.0,0.0,0.0,0.0,0.0,0.0,0.0,0.0,0.0,0.0,-2.6302,-2.6891,-2.7291,-2.7623,-2.8032,-2.847,-2.9532,-3.0316,-3.0768,-3.2703,-3.4347,-3.5596,-3.609,-3.7129,-3.8689,-3.7915,-3.7936,-3.8707,-3.8707,-3.8707,-3.8707,-3.8707,-3.8707,-3.8762,-3.9533,-4.0359,-4.1168,-4.1974,-4.2763,-4.3515,-4.3515,-4.3515,-4.3515,-4.3515,-4.3515,-4.3515,-4.3515,-4.3515,-4.358,-4.3893,-4.4276,-4.467,-4.5019,-4.5332,-4.5438,-4.4781,-4.5183,-4.558,-4.4843,-4.469,-4.4691,-4.4691,-4.4728,-4.5021,-4.5792,-4.6599,-4.7131,-4.7113,-4.7399,-4.7609,-4.7512,-4.753,-4.753,-4.753,-4.6793,-4.6152,-4.5827,-4.5371,-4.5096,-4.5096,-4.541,-4.5594,-4.5594,-4.5711,-4.5733,-4.5603,-4.5782,-4.589,-4.5894,-4.5894,-4.5967,-4.6084,-4.589,-4.5796,-4.579,-4.5657,-4.5594,0.0,0.0,-3.2243,-3.3158,0.0,0.0,0.0,0.0,0.0,0.0,0.0,0.0,0.0,0.0,0.0,0.0,0.0,0.0,0.0,0.0,0.0,-2.7097,-2.6624,-2.615,0.0,0.0,-2.5612,-2.6509,-2.6428,-2.6959,-2.833,-2.9265,-3.0196,-3.112,-3.31,-3.4769,-3.6054,-3.6754,-3.7624,-3.8707,-3.8414,-3.8432,-3.8707,-3.8707,-3.8707,-3.8707,-3.8707,-3.8707,-3.8726,-3.9001,-3.99,-4.1132,-4.1389,-4.2323,-4.3515,-4.3515,-4.3515,-4.3515,-4.3515,-4.3515,-4.3515,-4.3515,-4.3646,-4.3849,-4.3971,-4.4276,-4.4618,-4.4751,-4.4861,-4.4896,-4.4657,-4.4594,-4.4677,-4.4957,-4.4455,-4.4116,-4.4864,-4.5041,-4.5196,-4.5742,-4.6909,-4.7732,-4.7405,-4.795,-4.8153,-4.7333,-4.7883,-4.8395,-4.8395,-4.7621,-4.7041,-4.6934,-4.6025,-4.5429,-4.5429,-4.5522,-4.5635,-4.5737,-4.5769,-4.5803,-4.5799,-4.5857,-4.5936,-4.6033,-4.6036,-4.6047,-4.6108,-4.6021,-4.5955,-4.5876,-4.5828,-4.5764,-3.0076,-3.0828,0.0,-3.2565,-3.3322,0.0,-3.3807,0.0,-3.4766,0.0,0.0,0.0,0.0,0.0,0.0,0.0,0.0,0.0,0.0,-2.817,0.0,-2.7381,-2.6553,-2.5896,-2.5642,-2.5531,-2.5741,-2.6365,-2.6422,-2.7113,0.0,-2.9446,-3.0379,-3.1597,-3.3438,-3.5006,-3.6285,-3.7107,-3.7915,-3.8707,-3.8707,-3.8707,-3.8707,-3.8707,-3.8707,-3.8707,-3.8707,-3.8854,-3.9148,-3.9441,-4.0325,-4.157,-4.1846,-4.2598,-4.3515,-4.3515,-4.3515,-4.3515,-4.3515,-4.3515,-4.3515,-4.3515,-4.3646,-4.3836,-4.3836,-4.4091,-4.4392,-4.4392,-4.458,-4.4707,-4.4441,-4.4819,-4.5242,-4.5064,-4.4776,-4.4683,-4.5108,-4.5193,-4.5316,-4.573,-4.7099,-4.8107,-4.7789,-4.8585,-4.895,-4.799,-4.8525,-4.9127,-4.9433,-4.8715,-4.8053,-4.7747,-4.6714,-4.6091,-4.6135,-4.6124,-4.6312,-4.6723,-4.6804,-4.6824,-4.6822,-4.6911,-4.7125,-4.7476,-4.6928,-4.6799,-4.7092,-4.6431,-4.6067,-4.5974,-4.592,-4.59]},{"header":{"parameterUnit":"m.s-1","parameterCategory":1,"la1":30.6,"la2":29.2853,"lo1":-89.7004,"lo2":-87.6739,"dy":0.0162,"dx":0.0183,"nx":112,"ny":82,"refTime":"2023-02-25T06:00:00:Z","depth":0,"parameterNumber":3,"parameterNumberName":"V-component_of_WINDS"},"data":[0.0,0.0,0.0,0.0,0.0,0.0,0.0,0.0,0.0,0.0,0.0,0.0,0.0,0.0,0.0,0.0,0.0,0.0,0.0,0.0,0.0,0.0,0.0,0.0,0.0,0.0,0.0,0.0,0.0,0.0,0.0,0.0,0.0,0.0,0.0,0.0,0.0,0.0,0.0,0.0,0.0,0.0,0.0,0.0,0.0,0.0,0.0,0.0,0.0,0.0,0.0,0.0,0.0,0.0,0.0,0.0,0.0,0.0,0.0,0.0,0.0,0.0,0.0,0.0,0.0,0.0,0.0,0.0,0.0,0.0,0.0,0.0,0.0,0.0,0.0,0.0,0.0,0.0,0.0,0.0,0.0,0.0,0.0,0.0,0.0,0.0,0.0,0.0,0.0,0.0,-0.3963,-0.5683,-0.7537,-0.8604,-0.8428,-0.8119,-0.7495,-0.6468,0.0,0.0,0.0,0.0,0.0,0.0,0.0,0.0,0.0,0.0,0.0,0.0,0.0,0.0,0.0,0.0,0.0,0.0,0.0,0.0,0.0,0.0,0.0,0.0,0.0,0.0,0.0,0.0,0.0,0.0,0.0,0.0,0.0,0.0,0.0,0.0,0.0,0.0,0.0,0.0,0.0,0.0,0.0,0.0,0.0,0.0,0.0,0.0,0.0,0.0,0.0,0.0,0.0,0.0,0.0,0.0,0.0,0.0,0.0,0.0,0.0,0.0,0.0,0.0,0.0,0.0,0.0,0.0,0.0,0.0,0.0,0.0,0.0,0.0,0.0,0.0,0.0,0.0,0.0,0.0,0.0,0.0,0.0,0.0,0.0,0.0,0.0,0.0,0.0,0.0,0.0,0.0,0.0,0.0,0.0,0.0,0.0,0.0,0.0,0.0,0.0,0.0,0.0,0.0,-0.412,-0.6014,-0.7623,-0.8404,-0.8079,-0.7719,-0.7078,-0.6156,0.0,0.0,0.0,0.0,0.0,0.0,0.0,0.0,0.0,0.0,0.0,0.0,0.0,0.0,0.0,0.0,0.0,0.0,0.0,0.0,0.0,0.0,0.0,0.0,0.0,0.0,0.0,0.0,0.0,0.0,0.0,0.0,0.0,0.0,0.0,0.0,0.0,0.0,0.0,0.0,0.0,0.0,0.0,0.0,0.0,0.0,0.0,0.0,0.0,0.0,0.0,0.0,0.0,0.0,0.0,0.0,0.0,0.0,0.0,0.0,0.0,0.0,0.0,0.0,0.0,0.0,0.0,0.0,0.0,0.0,0.0,0.0,0.0,0.0,0.0,0.0,0.0,0.0,0.0,0.0,0.0,0.0,0.0,0.0,0.0,0.0,0.0,0.0,0.0,0.0,0.0,0.0,0.0,0.0,0.0,0.0,0.0,0.0,0.0,0.0,0.0,0.0,0.0,-0.2562,-0.3354,-0.4878,-0.6299,-0.7083,-0.6944,-0.6989,-0.6434,-0.5124,-0.5329,0.0,0.0,0.0,0.0,0.0,0.0,0.0,0.0,0.0,0.0,0.0,0.0,0.0,0.0,0.0,0.0,0.0,0.0,0.0,0.0,0.0,0.0,0.0,0.0,0.0,0.0,0.0,0.0,0.0,0.0,0.0,0.0,0.0,0.0,0.0,0.0,0.0,0.0,0.0,0.0,0.0,0.0,0.0,0.0,0.0,0.0,0.0,0.0,0.0,0.0,0.0,0.0,0.0,0.0,0.0,0.0,0.0,0.0,0.0,0.0,0.0,0.0,0.0,0.0,0.0,0.0,0.0,0.0,0.0,0.0,0.0,0.0,0.0,0.0,0.0,0.0,0.0,0.0,0.0,0.0,0.0,0.0,0.0,0.0,0.0,0.0,0.0,0.0,0.0,0.0,0.0,0.0,0.0,0.0,0.0,0.0,0.0,0.0,0.0,0.0,0.0,0.0,-0.1882,-0.2484,-0.3446,-0.4709,-0.5501,-0.5465,-0.5906,-0.5601,-0.4242,-0.4688,0.0,0.0,0.0,0.0,0.0,0.0,0.0,0.0,0.0,0.0,0.0,0.0,0.0,0.0,0.0,0.0,0.0,0.0,0.0,0.0,0.0,0.0,0.0,0.0,0.0,0.0,0.0,0.0,0.0,0.0,0.0,0.0,0.0,0.0,0.0,0.0,0.0,0.0,0.0,0.0,0.0,0.0,0.0,0.0,0.0,0.0,0.0,0.0,0.0,0.0,0.0,0.0,0.0,0.0,0.0,0.0,0.0,0.0,0.0,0.0,0.0,0.0,0.0,0.0,0.0,0.0,0.0,0.0,0.0,0.0,0.0,0.0,0.0,0.0,0.0,0.0,0.0,0.0,0.0,0.0,0.0,0.0,0.0,0.0,0.0,0.0,0.0,0.0,0.0,0.0,0.0,0.0,0.0,0.0,0.0,0.0,0.0,0.0,0.0,0.0,0.0,0.0,-0.1253,-0.2049,-0.214,-0.3339,-0.4083,-0.3967,-0.4392,-0.449,-0.4054,-0.4452,0.0,0.0,0.0,0.0,0.0,0.0,0.0,0.0,0.0,0.0,0.0,0.0,0.0,0.0,0.0,0.0,0.0,0.0,0.0,0.0,0.0,0.0,0.0,0.0,0.0,0.0,0.0,0.0,0.0,0.0,0.0,0.0,0.0,0.0,0.0,0.0,0.0,0.0,0.0,0.0,0.0,0.0,0.0,0.0,0.0,0.0,0.0,0.0,0.0,0.0,0.0,0.0,0.0,0.0,0.0,0.0,0.0,0.0,0.0,0.0,0.0,0.0,0.0,0.0,0.0,0.0,0.0,0.0,0.0,0.0,0.0,0.0,0.0,0.0,0.0,0.0,0.0,0.0,0.0,0.0,0.0,0.0,0.0,0.0,0.0,0.0,0.0,0.0,0.0,0.0,0.0,0.0,0.0,0.0,0.0,0.0,0.0,0.0,0.0,0.0,0.0,0.0,-0.0453,-0.1084,-0.1902,-0.2399,-0.2655,-0.2672,-0.3671,-0.3894,-0.294,0.0,0.0,0.0,0.0,0.0,0.0,0.0,0.0,0.0,0.0,0.0,0.0,0.0,0.0,0.0,0.0,0.0,0.0,0.0,0.0,0.0,0.0,0.0,0.0,0.0,0.0,0.0,0.0,0.0,0.0,0.0,0.0,0.0,0.0,0.0,0.0,0.0,0.0,0.0,0.0,0.0,0.0,0.0,0.0,0.0,0.0,0.0,0.0,0.0,0.0,0.0,0.0,0.0,0.0,0.0,0.0,0.0,0.0,0.0,0.0,0.0,0.0,0.0,0.0,0.0,0.0,0.0,0.0,0.0,0.0,0.0,0.0,0.0,0.0,0.0,0.0,0.0,0.0,0.0,0.0,0.0,0.0,0.0,0.0,0.0,0.0,0.0,0.0,0.0,0.0,0.0,0.0,0.0,0.0,0.0,0.0,0.0,0.0,0.0,0.0,0.0,0.0,0.0,0.0,-0.0332,-0.1247,-0.1277,-0.1284,-0.136,-0.2463,-0.2893,-0.2257,0.0,0.0,0.0,0.0,0.0,0.0,0.0,0.0,0.0,0.0,0.0,0.0,0.0,0.0,0.0,0.0,0.0,0.0,0.0,0.0,0.0,0.0,0.0,0.0,0.0,0.0,0.0,0.0,0.0,0.0,0.0,0.0,0.0,0.0,0.0,0.0,0.0,0.0,0.0,0.0,0.0,0.0,0.0,0.0,0.0,0.0,0.0,0.0,0.0,0.0,0.0,0.0,0.0,0.0,0.0,0.0,0.0,0.0,0.0,0.0,0.0,0.0,0.0,0.0,0.0,0.0,0.0,0.0,0.0,0.0,0.0,0.0,0.0,0.0,0.0,0.0,0.0,0.0,0.0,0.0,0.0,0.0,0.0,0.0,0.0,0.0,0.0,0.0,0.0,0.0,0.0,0.0,0.0,0.0,0.0,0.0,0.0,0.0,0.0,0.0,0.0,0.0,0.0,0.0,0.0,0.0,0.0,0.0,0.0,-0.0558,-0.1254,0.0,0.0,0.0,0.0,0.0,0.0,0.0,0.0,0.0,0.0,0.0,0.0,0.0,0.0,0.0,0.0,0.0,0.0,0.0,0.0,0.0,0.0,0.0,0.0,0.0,0.0,0.0,0.0,0.0,0.0,0.0,0.0,0.0,0.0,0.0,0.0,0.0,0.0,0.0,0.0,0.0,0.0,0.0,0.0,0.0,0.0,0.0,0.0,0.0,0.0,0.0,0.0,0.0,0.0,0.0,0.0,0.0,0.0,0.0,0.0,0.0,0.0,0.0,0.0,0.0,0.0,0.0,0.0,0.0,0.0,0.0,0.0,0.0,0.0,0.0,0.0,0.0,0.0,0.0,0.0,0.0,0.0,0.0,0.0,0.0,0.0,0.0,0.0,0.0,0.0,0.0,0.0,0.0,0.0,0.0,0.0,0.0,0.0,0.0,0.0,0.0,0.0,0.0,0.0,0.0,0.0,0.0,0.0,0.0,0.0,-0.0642,-0.1138,-0.1422,0.0,0.0,0.0,0.0,0.0,0.0,0.0,0.0,0.0,0.0,0.0,0.0,0.0,0.0,0.0,0.0,0.0,0.0,0.0,0.0,0.0,0.0,0.0,0.0,0.0,0.0,0.0,0.0,0.0,0.0,0.0,0.0,0.0,0.0,0.0,0.0,0.0,0.0,0.0,0.0,0.0,0.0,0.0,0.0,0.0,0.0,0.0,0.0,0.0,0.0,0.0,0.0,0.0,0.0,0.0,0.0,0.0,0.0,0.0,0.0,0.0,0.0,0.0,0.0,0.0,0.0,0.0,0.0,0.0,0.0,0.0,0.0,0.0,0.0,0.0,0.0,0.0,0.0,0.0,0.0,0.0,0.0,0.0,0.0,0.0,0.0,0.0,0.0,0.0,0.0,0.0,0.0,0.0,0.0,0.0,0.0,0.0,0.0,0.0,0.0,0.0,0.0,0.0,0.0,0.0,0.0,0.0,0.0,0.0,-0.0393,-0.0802,-0.1069,0.0,0.0,0.0,0.0,0.0,0.0,0.0,0.0,0.0,0.0,0.0,0.0,0.0,0.0,0.0,0.0,0.0,0.0,0.0,0.0,0.0,0.0,0.0,0.0,0.0,0.0,0.0,0.0,0.0,0.0,0.0,0.0,0.0,0.0,0.0,0.0,0.0,0.0,0.0,0.0,0.0,0.0,0.0,0.0,0.0,0.0,0.0,0.0,0.0,0.0,0.0,0.0,0.0,0.0,0.0,0.0,0.0,0.0,0.0,0.0,0.0,0.0,0.0,0.0,0.0,0.0,0.0,0.0,0.0,0.0,0.0,0.0,0.0,0.0,0.0,0.0,0.0,0.0,0.0,0.0,0.0,0.0,0.0,0.0,0.0,0.0,0.0,0.0,0.0,0.0,0.0,0.0,0.0,0.0,0.0,0.0,0.0,0.0,0.0,0.0,0.0,0.0,0.0,0.0,0.0,0.0,0.0,0.0,0.0,0.0,-0.03,-0.0955,0.0,0.0,0.0,0.0,0.0,0.0,0.0,0.0,0.0,0.0,0.0,0.0,0.0,0.0,0.0,0.0,0.0,0.0,0.0,0.0,0.0,0.0,0.0,0.0,0.0,0.0,0.0,0.0,0.0,0.0,0.0,0.0,0.0,0.0,0.0,0.0,0.0,0.0,0.0,0.0,0.0,0.0,0.0,0.0,0.0,0.0,0.0,0.0,0.0,0.0,0.0,0.0,0.0,0.0,0.0,0.0,0.0,0.0,0.0,0.0,0.971,0.0,0.0,0.0,0.0,0.0,0.0,0.0,0.0,0.0,0.0,0.0,0.0,0.0,0.0,0.0,0.0,0.0,0.0,0.0,0.0,0.0,0.0,0.0,0.0,0.0,0.0,0.0,0.0,0.0,0.0,0.0,0.0,0.0,0.0,0.0,0.0,0.0,0.0,0.0,0.0,0.0,0.0,0.0,0.0,0.0,0.0,0.0,0.0,0.0,-0.006,-0.0225,-0.0246,0.0,0.0,0.0,0.0,0.0,0.0,0.0,0.0,0.0,0.0,0.0,0.0,0.0,0.0,0.0,0.0,0.0,0.0,0.0,0.0,0.0,0.0,0.0,0.0,0.0,0.0,0.0,0.0,0.0,0.0,0.0,0.0,0.0,0.0,0.0,0.0,0.0,0.0,0.0,0.0,0.0,0.0,0.0,0.0,0.0,0.0,0.0,0.0,0.0,0.0,0.0,0.0,0.0,0.0,0.0,0.0,0.0,0.0,0.0,0.0,1.0028,0.0,0.0,0.0,0.0,0.0,0.0,0.0,0.0,0.0,0.0,0.0,0.0,0.0,0.0,0.0,0.0,0.0,0.0,0.0,0.0,0.0,0.0,0.0,0.0,0.0,0.0,0.0,0.0,0.0,0.0,0.0,0.0,0.0,0.0,0.0,0.0,0.0,0.0,0.0,0.0,0.0,0.0,0.0,0.0,0.0,0.0,0.0,0.0,0.0,0.0,0.0,0.0,0.0,0.0,0.0,0.0,0.0,0.0,0.0,0.0,0.0,0.0,0.0,0.0,0.0,0.0,0.0,0.0,0.0,0.0,0.0,0.0,0.0,0.0,0.0,0.0,0.0,0.0,0.0,0.0,0.0,0.0,0.0,0.0,0.0,0.0,0.0,0.0,0.0,0.0,0.0,0.0,0.0,0.0,0.0,0.0,0.0,0.0,0.0,0.0,0.0,0.0,0.0,0.0,1.6386,1.6627,1.686,1.686,1.6106,1.4697,1.3153,1.1927,1.0973,1.102,0.0,0.0,0.0,0.0,0.0,0.0,0.0,0.0,0.0,0.0,0.0,0.0,0.0,0.0,0.0,0.0,0.0,0.0,0.0,0.0,0.0,0.0,0.0,0.0,0.5374,0.4441,0.3303,0.0,0.0,0.0,0.0,0.0,0.0,0.0,0.0,0.0,0.0,0.0,0.0031,0.0,0.0,0.0,0.0,0.0,0.0,0.0,0.0,0.0,0.0,-0.0274,0.0,0.0,0.0,0.0,0.0,0.0,0.0,0.0,0.0,0.0,0.0,0.0,0.0,0.0,0.0,0.0,0.0,0.0,0.0,0.0,0.0,0.0,0.0,0.0,0.0,0.0,0.0,0.0,0.0,0.0,0.0,0.0,1.5431,1.5685,0.0,0.0,0.0,0.0,0.0,0.0,0.0,0.0,0.0,0.0,0.0,0.0,0.0,1.6066,1.6844,1.6931,1.7112,1.7355,1.7388,1.7428,1.7468,1.7468,1.7236,1.6815,1.6577,0.0,1.1615,1.1946,0.0,0.0,0.0,0.0,0.0,0.0,0.0,0.0,0.0,0.0,0.0,0.0,0.0,0.0,0.0,0.0,0.0,0.0,0.0,0.0,0.0,0.0,0.5969,0.5986,0.5902,0.5725,0.0,0.4044,0.2789,0.2544,0.2433,0.0,0.0,0.0,0.0,0.0,0.0,0.0,0.0093,0.0,0.0,0.0,0.0,0.0,0.0,0.0,0.0,0.0,0.0,-0.0053,-0.0133,-0.0134,0.0,0.0,0.0,0.0,0.0,0.0,0.0,0.0,0.0,0.0,0.0,0.0,0.0,0.0,0.0,0.0,0.0,0.0,0.0,0.0,0.0,0.0,0.0,0.0,0.0,0.0,0.0,0.0,0.0,1.5832,1.6174,1.5424,1.6234,1.6502,0.0,0.0,0.0,0.0,0.0,0.0,0.0,0.0,0.0,1.6567,1.7061,1.7428,1.7635,1.7976,1.821,1.8337,1.8504,1.8584,1.8584,1.8584,1.8424,1.8136,1.7976,1.6808,1.4998,1.4484,1.3971,1.3399,0.0,0.0,0.0,0.0,1.0592,1.023,0.9213,0.85,0.7947,0.715,0.0,0.0,0.0,0.0,0.0,0.0,0.0,0.0,0.0,0.0,0.6257,0.6179,0.6352,0.6428,0.623,0.5457,0.4525,0.0,0.3535,0.3411,0.2744,0.0,0.0,0.0,0.0,0.1666,0.0853,0.0735,0.0554,0.0067,0.0,0.0,0.0,0.0,0.0,0.0,0.0,0.0,0.0,0.0,-0.0358,0.0,0.0,0.0,0.0,0.0,0.0,0.0,0.0,0.0,0.0,0.0,0.0,0.0,0.0,0.0,0.0,0.0,0.0,0.0,0.0,0.0,0.0,0.0,0.0,0.0,0.0,0.0,0.0,1.6301,1.6623,1.5331,1.6603,1.7079,0.0,0.0,0.0,0.0,0.0,0.0,1.6714,1.7415,1.7782,1.7775,1.8364,1.8671,1.8584,1.9032,1.9225,1.9152,1.9372,1.9497,1.9424,1.9424,1.9165,1.8804,1.8584,1.8143,1.7495,1.6393,1.5772,1.5378,1.413,1.367,1.3574,1.2626,1.2139,1.1761,1.0682,1.0052,0.954,0.8352,0.8373,0.8699,0.812,0.0,0.0,0.0,0.0,0.6314,0.6057,0.622,0.6515,0.6485,0.6712,0.6854,0.6586,0.6457,0.5993,0.0,0.4607,0.4456,0.3538,0.0,0.0,0.0,0.2947,0.2591,0.1765,0.1651,0.1313,0.0436,0.0328,0.0257,0.0032,0.0,0.0,0.0,0.0,0.0,0.0,0.0,-0.0249,-0.0801,0.0,0.0,0.0,0.0,0.0,0.0,0.0,0.0,0.0,0.0,0.0,0.0,0.0,0.0,0.0,0.0,0.0,0.0,0.0,0.0,0.0,0.0,0.0,0.0,0.0,0.0,0.0,0.0,0.0,1.5858,1.7348,0.0,0.0,0.0,0.0,1.7448,1.7488,1.7629,1.7889,1.827,1.8698,1.9296,1.9357,1.9579,2.0053,2.0093,2.0034,1.9753,1.9773,1.9633,1.9424,1.9424,1.9052,1.851,1.8497,1.8143,1.7515,1.662,1.6079,1.5704,1.5138,1.4918,1.4879,1.4511,1.3812,1.305,1.26,1.1768,1.0921,1.0892,1.0713,1.0404,0.9907,0.9667,0.0,0.0,0.7413,0.7277,0.6638,0.6494,0.6576,0.6953,0.6967,0.6842,0.6722,0.6569,0.6325,0.0,0.5528,0.5346,0.5263,0.0,0.4747,0.4038,0.3934,0.3598,0.2734,0.2627,0.2274,0.134,0.1244,0.0892,0.0062,0.0,0.0,0.0,0.0,0.0,0.0,0.0,-0.0027,-0.0053,-0.0051,0.0,0.0,0.0,0.0,0.0,0.0,0.0,0.0,0.0,0.0,0.0,0.0,0.0,0.0,0.0,0.0,0.0,0.0,0.0,0.0,0.0,0.0,0.0,0.0,0.0,0.0,0.0,0.0,1.7569,1.8604,0.0,1.821,1.823,1.833,1.8437,1.8798,1.9058,1.9165,1.9633,1.9993,2.0201,2.0388,2.0588,2.0795,2.0795,2.0555,2.008,2.008,1.9826,1.9424,1.9424,1.9145,1.8758,1.8571,1.8263,1.7829,1.7128,1.6824,1.662,1.6039,1.5852,1.5819,1.5471,1.5147,1.4727,1.3773,1.3135,1.266,1.2074,1.1483,1.0997,1.0937,1.083,1.0451,0.9346,0.9135,0.9006,0.7991,0.7827,0.77,0.6923,0.682,0.6834,0.6491,0.6484,0.6369,0.6017,0.5783,0.562,0.5429,0.5233,0.5066,0.4931,0.4779,0.444,0.3654,0.3468,0.2866,0.1437,0.122,0.0847,0.006,0.0,0.0,0.0,0.0,0.0,0.0,0.0,0.0,0.0,0.0,0.0,0.0,0.0,0.0,0.0,0.0,0.0,0.0,0.0,0.0,0.0,0.0,0.0,0.0,0.0,0.0,0.0,0.0,0.0,0.0,0.0,0.0,0.0,0.0,0.0,0.0,1.8891,1.9955,2.0329,2.1438,2.1867,2.1175,2.0793,2.0578,2.0578,2.0373,2.0241,2.0241,2.0615,2.0822,2.0822,2.1009,2.1109,2.1109,2.1109,2.0815,2.0173,2.0173,1.9927,1.9424,1.9265,1.9058,1.8764,1.8464,1.817,1.7849,1.7407,1.7199,1.7146,1.6556,1.6213,1.6099,1.5905,1.5784,1.5683,1.4848,1.4374,1.4037,1.3391,1.2733,1.2175,1.2201,1.2029,1.1663,1.0623,1.0437,1.0303,0.9194,0.8986,0.8792,0.755,0.7274,0.7102,0.6515,0.6409,0.6351,0.601,0.5871,0.5725,0.5515,0.5311,0.5243,0.5378,0.5274,0.4997,0.4448,0.4351,0.3791,0.2314,0.1845,0.1313,0.0508,0.0174,0.0,0.0,0.0,0.0,0.0,0.0,0.0,0.0,0.0,0.0,0.0,0.0,0.0,0.0,0.0,0.0,0.0,0.0,0.0,0.0,0.0,0.0,0.0,0.0,0.0,0.0,0.0,0.0,0.0,0.0,0.0,0.0,0.0,0.0,1.9663,2.1315,2.2902,2.3977,2.5688,2.6508,2.567,2.4545,2.3907,2.3829,2.2167,2.1179,2.1109,2.1109,2.1109,2.1109,2.1109,2.1109,2.1109,2.1102,2.0808,2.0173,2.016,1.992,1.9417,1.9065,1.8771,1.8477,1.8135,1.7883,1.7562,1.7306,1.7186,1.7132,1.6549,1.6092,1.5791,1.5784,1.5784,1.5784,1.5784,1.5451,1.5022,1.5015,1.462,1.4048,1.3706,1.342,1.2975,1.1651,1.1257,1.1075,1.0169,0.9938,0.975,0.8921,0.8393,0.7767,0.678,0.6474,0.6246,0.5897,0.5835,0.5755,0.5606,0.5494,0.5395,0.5395,0.5395,0.0,0.5123,0.5264,0.4963,0.3892,0.3128,0.2306,0.1354,0.0479,0.0,0.0,0.0,0.0,0.0,0.0,0.0,0.0,0.0,0.0,0.0,0.0,0.0,0.0,0.0,0.0,0.0,0.0,0.0,0.0,0.0,0.0,0.0,0.0,0.0,0.0,0.0,0.0,0.0,0.0,0.0,0.0,2.1322,2.253,2.1502,2.3198,2.4959,2.6246,2.6819,2.7106,2.7127,2.6575,2.562,2.4184,2.3547,2.2574,2.1179,2.1109,2.1109,2.1109,2.1109,2.1109,2.1109,2.0902,2.0608,2.0227,2.002,1.9726,1.9424,1.9279,1.8965,1.8484,1.8404,1.807,1.7542,1.7034,1.6827,1.6794,1.642,1.6219,1.6126,1.5912,1.5784,1.5784,1.5784,1.5585,1.5244,1.5075,1.471,1.4349,1.4055,1.3908,1.374,1.3116,1.2945,1.2671,1.1393,1.1078,1.0769,0.9582,0.9191,0.8984,0.861,0.7932,0.7295,0.6965,0.6297,0.5722,0.5501,0.5423,0.5395,0.5395,0.5395,0.0,0.5337,0.5237,0.4628,0.3171,0.2724,0.1969,0.0493,0.015,0.0,0.0,0.0,0.0,0.0,0.0,0.0,0.0,0.0,0.0,0.0,0.0,0.0,0.0,0.0,0.0,0.0,0.0,0.0,0.0,0.0,0.0,0.0,0.0,0.0,0.0,0.0,0.0,0.0,0.0,0.0,0.0,2.3917,2.5341,2.5094,2.6329,2.7772,2.9199,2.9654,2.9878,2.9814,2.9116,2.8078,2.6605,2.5763,2.4676,2.3208,2.3124,2.3124,2.3124,2.2522,2.216,2.216,2.1189,2.0528,2.0227,1.994,1.9646,1.9424,1.9239,1.8931,1.8484,1.8357,1.8029,1.7535,1.6947,1.6707,0.0,0.0,0.0,0.0,0.0,1.5784,1.5784,1.5784,1.5638,1.5351,1.5102,1.4763,1.4469,1.4175,1.4001,1.3868,1.3646,1.36,1.3397,1.26,1.2308,1.19,1.0705,1.0234,0.9898,0.9397,0.8504,0.7706,0.7355,0.6472,0.0,0.5446,0.5395,0.5395,0.5395,0.5395,0.5351,0.5225,0.5148,0.4721,0.3712,0.3224,0.2575,0.1659,0.1166,0.0,0.0,0.0,0.0917,0.093,0.0868,0.0,0.0,0.0,0.026,0.0,0.0,0.0,0.0,-0.0451,-0.1027,0.0,0.0,0.0,0.0,0.0,0.0,0.0,0.0,0.0,0.0,0.0,0.0,0.0,0.0,0.0,0.0,2.6765,2.8074,2.9439,2.9981,3.0751,3.2105,3.2939,3.3242,3.2773,3.168,3.0592,2.9714,2.8123,2.6865,2.6009,2.5976,0.0,0.0,0.0,2.3559,2.3522,2.1623,2.0474,2.018,1.9887,1.9619,1.9417,1.9058,1.8764,1.8477,1.8176,1.7869,1.7542,1.6981,1.672,1.66,1.5997,1.5784,1.5784,1.5784,1.5784,1.5784,1.5784,0.0,0.0,1.511,1.481,1.4516,1.4222,1.3928,1.3646,1.3613,1.358,1.3553,1.3553,1.3313,1.287,1.2013,1.1384,1.0714,0.982,0.8765,0.7861,0.7561,0.6591,0.5715,0.547,0.5405,0.5395,0.5395,0.5395,0.53,0.5003,0.5049,0.5051,0.4817,0.0,0.0,0.3668,0.2791,0.2234,0.2193,0.2194,0.2198,0.22,0.2096,0.1777,0.1235,0.1097,0.0754,0.0114,0.0118,0.0072,0.0,0.0,-0.0385,0.0,0.0,0.0,0.0,0.0,0.0,0.0,0.0,0.0,0.0,0.0,0.0,0.0,0.0,0.0,2.7215,2.9211,3.0885,3.1561,3.2015,3.2347,3.2676,3.3115,3.3125,3.2363,3.2099,3.1172,2.9349,2.8521,2.7539,2.6106,2.5976,2.5976,2.5976,2.4417,2.3447,2.3178,2.1242,2.0174,1.988,0.0,0.0,1.9417,1.9058,1.8764,1.8477,1.8176,1.7869,1.7555,1.7259,1.6837,1.6319,1.5965,1.5784,1.5784,1.5784,1.5784,1.5784,1.5784,1.5792,1.5698,1.5404,1.5117,1.4823,1.4522,1.4235,0.0,1.3666,1.3433,1.3293,1.3293,1.2886,1.2501,1.2581,1.2288,1.1966,1.1774,1.0271,0.8952,0.8802,0.7137,0.5745,0.5576,0.5477,0.5395,0.5395,0.5395,0.5375,0.5317,0.5334,0.505,0.4251,0.402,0.36,0.2808,0.2573,0.2371,0.2218,0.2195,0.2198,0.22,0.2172,0.2111,0.199,0.1974,0.1589,0.0889,0.0896,0.0574,0.0,0.0,-0.0386,0.0,0.0,0.0,0.0,0.0,0.0,0.0,0.0,0.0,0.0,0.0,2.0699,2.3389,0.0,2.7141,2.906,3.0769,3.1992,3.2422,3.248,3.2402,3.2178,3.2529,3.2539,3.1904,3.2041,3.167,3.0426,3.0071,2.9498,2.8504,2.8426,2.8426,2.8426,2.6053,2.4674,2.4327,2.1562,2.0087,1.98,1.9506,1.9424,1.9366,1.9212,1.8985,1.8691,1.8397,1.8096,1.7769,1.7174,1.6667,1.6295,1.5945,1.5784,1.5784,1.5784,1.5784,1.5784,1.5784,1.5784,1.5785,1.5491,1.5297,1.5097,1.4656,1.4422,1.4242,1.3948,1.3761,1.3614,1.3427,1.3093,1.2752,1.2784,1.2556,1.2305,1.2305,1.072,0.9268,0.9113,0.7382,0.5867,0.5722,0.5576,0.5484,0.5405,0.5395,0.5365,0.5257,0.5247,0.5075,0.461,0.4505,0.4244,0.3744,0.3582,0.3467,0.335,0.3345,0.3347,0.3344,0.326,0.3075,0.2815,0.269,0.2139,0.1109,0.1104,0.0725,0.0,0.0,-0.0186,0.0,0.0,0.0,0.0,0.0,0.0,0.0,1.7048,1.7554,1.9148,1.9163,2.0332,2.5022,2.5877,2.71,3.0672,3.1846,3.2412,3.2744,3.2432,3.2012,3.1572,3.1904,3.1963,3.1445,3.1787,3.1865,3.1426,3.1396,3.125,3.0908,3.0889,3.0889,3.0889,2.8,2.6319,2.594,2.2707,2.0812,2.0171,1.9925,1.9707,1.9424,1.9305,1.9152,1.8905,1.8557,1.823,1.7836,1.7048,1.6567,1.6319,1.5965,1.5784,1.5784,1.5784,1.5784,1.5784,1.5784,1.5784,1.5744,1.5558,1.5444,1.5297,1.4763,1.4563,1.4456,1.4168,1.4048,1.3948,1.3666,1.3387,1.3133,1.2857,1.2596,1.2371,1.2311,1.072,0.9283,0.9169,0.7446,0.5952,0.5867,0.5725,0.5589,0.5498,0.5457,0.5395,0.5204,0.5187,0.5177,0.5147,0.5074,0.4982,0.4894,0.4667,0.4522,0.4491,0.4491,0.4491,0.4491,0.4351,0.4045,0.3608,0.3462,0.2773,0.1543,0.1402,0.0939,0.0215,0.0055,0.0,1.6981,1.6393,1.6293,1.7208,1.7068,1.7181,0.0,1.9025,1.8844,1.96,2.0939,2.2792,2.536,2.7033,2.903,3.2118,3.2666,3.2744,3.2793,3.2432,3.2012,3.1572,3.1904,3.1855,3.1045,3.1348,3.1416,3.0996,3.0957,3.0947,3.0889,3.0889,3.0889,3.0889,2.9098,2.7821,2.7136,2.5277,2.3352,2.1417,2.138,2.0644,1.9417,1.9092,1.8958,1.8891,1.8282,1.7923,1.7589,1.6961,1.6687,1.66,1.5997,1.5784,1.5784,1.5784,1.5784,1.5784,1.5784,1.5784,1.5778,1.5792,1.5605,1.5337,1.5062,1.473,1.4456,1.4168,1.3901,1.3646,1.3613,1.3387,1.3133,1.2857,1.2757,1.2663,1.2358,1.072,0.9291,0.9266,0.7501,0.5986,0.5969,0.5878,0.5772,0.5755,0.5644,0.5559,0.5542,0.5538,0.5488,0.5385,0.5354,0.5238,0.4911,0.4762,0.4634,0.4498,0.4491,0.4491,0.4491,0.4474,0.444,0.4381,0.4365,0.3942,0.3142,0.2435,0.1692,0.0973,0.0307,0.0,1.7629,1.7256,1.7143,1.7502,1.7789,1.8223,1.9092,1.9232,1.9345,1.9933,2.0759,2.2377,2.5334,2.6667,2.8455,3.1918,3.2637,3.2793,3.2793,3.2432,3.1914,3.123,3.1074,3.0986,3.0898,3.1055,3.1074,3.0898,3.0889,3.0889,3.0889,3.0889,3.0771,3.0498,2.8923,2.7705,2.6968,2.4466,2.2671,2.1586,2.0759,1.9982,1.9424,1.9239,1.8998,1.8657,1.841,1.8029,1.7535,1.6947,1.6707,1.6647,1.6059,1.5784,1.5784,1.5784,1.5784,1.5784,1.5784,1.5784,1.5784,1.5784,1.5698,1.5565,1.5149,1.4877,1.4683,1.4215,1.4001,1.3861,1.3646,1.3513,1.3387,1.3086,1.3019,1.2933,1.2663,1.0986,0.9491,0.9322,0.7605,0.6166,0.6166,0.6037,0.5966,0.6054,0.5864,0.5711,0.5711,0.564,0.5532,0.5412,0.5395,0.5306,0.5029,0.4877,0.4796,0.4731,0.4675,0.4624,0.4624,0.4539,0.4491,0.4491,0.4491,0.4125,0.3345,0.3037,0.2287,0.109,0.0783,0.042,1.7935,1.7862,1.7862,1.813,1.8684,1.9252,1.9573,1.9753,1.9993,2.0494,2.0702,2.1797,2.4903,2.5738,2.7193,3.1096,3.1846,3.2142,3.2711,3.2226,3.1592,3.0967,3.0381,3.0156,3.0498,3.0635,3.0752,3.0879,3.0889,3.0889,3.0889,3.0889,3.0732,3.04,2.9143,2.8157,2.7512,2.5091,2.3545,2.2806,2.1316,2.0371,1.9975,1.9591,1.9045,1.849,1.849,1.8096,1.7481,1.7001,1.6734,1.6547,1.6119,1.5905,1.5784,1.5784,1.5784,1.5784,1.5784,1.5784,1.5784,1.5784,1.5784,1.5684,1.5237,1.5075,1.4901,1.4349,1.4148,1.4015,1.368,1.366,1.3633,1.33,1.3273,1.3141,1.2518,1.095,0.952,0.8999,0.748,0.63,0.63,0.6169,0.6132,0.6282,0.6108,0.5911,0.5871,0.5739,0.5606,0.5528,0.5481,0.5395,0.5206,0.5029,0.4931,0.4891,0.4775,0.4691,0.4691,0.4573,0.4491,0.4491,0.4491,0.4208,0.3622,0.3456,0.2815,0.173,0.1284,0.0811,0.0,1.744,1.7641,1.9305,1.9753,2.0074,2.1279,2.1256,2.1142,2.1514,2.1289,2.1739,2.3851,2.4235,2.5644,2.9789,3.0048,3.0516,3.2539,3.1719,3.0918,3.0898,3.0117,2.959,2.9665,2.998,3.04,3.0859,3.0889,3.0889,3.0889,3.0889,3.0889,3.0869,3.0372,2.9933,2.9495,2.8956,2.7791,2.5927,2.4378,2.2927,2.1472,2.0033,1.9045,1.849,1.849,1.7989,1.7213,1.7192,1.6851,1.6335,1.6315,1.6086,1.5784,1.5784,1.5784,1.5784,1.5784,1.5784,1.5784,1.5784,1.5784,1.5724,1.5471,1.519,1.4948,1.4596,1.4302,1.4015,1.368,1.3854,1.3928,1.3347,1.3387,1.3137,1.1579,1.0445,0.9325,0.8085,0.7022,0.63,0.63,0.6296,0.6293,0.63,0.6289,0.6231,0.6003,0.5888,0.5793,0.5789,0.5664,0.5556,0.5399,0.5213,0.5032,0.4897,0.4775,0.4691,0.4691,0.4573,0.4491,0.4491,0.4491,0.4491,0.446,0.368,0.3314,0.3289,0.1786,0.109,0.0,0.0,1.9145,2.0134,2.0675,2.1132,2.1527,2.1541,2.1323,2.1029,2.0581,2.0738,2.232,2.2585,2.3567,2.6534,2.7211,2.8079,3.0048,3.0014,2.9811,2.9994,2.9756,2.9453,2.917,2.9531,0.0,3.04,3.043,3.0566,3.0869,3.0889,3.0752,3.0439,3.001,2.958,2.9141,2.7746,2.6737,2.61,2.3535,2.2089,2.1521,1.9818,1.8965,1.8758,1.8364,1.8023,1.7695,1.7101,1.674,1.652,1.6132,1.5919,1.5784,1.5784,1.5784,1.5784,1.5784,1.5784,1.5784,1.5784,1.5784,1.5724,1.5484,1.5197,1.4948,1.4603,1.4309,1.4062,1.3968,1.4015,1.4035,1.3841,1.3259,1.2535,1.181,1.0264,0.8855,0.818,0.727,0.6552,0.6552,0.6552,0.6519,0.6457,0.6361,0.6245,0.6013,0.6074,0.6064,0.5823,0.585,0.582,0.5667,0.5518,0.5416,0.5369,0.5125,0.4942,0.4847,0.4697,0.4593,0.4491,0.4491,0.4491,0.4491,0.4236,0.3846,0.3314,0.2286,0.1563,0.0,1.9459,2.0301,2.1102,2.1583,2.1864,2.1864,2.1769,2.142,2.0661,2.0054,1.9863,2.05,2.064,2.1402,2.3762,2.4738,2.6049,2.8412,2.8888,2.9246,2.9741,2.9658,2.9453,2.918,2.9258,2.9512,2.9941,3.0264,3.0508,3.0635,3.0247,2.9887,2.9602,2.851,2.7807,2.7483,2.6031,2.4986,2.448,2.2533,2.1309,2.0745,1.9494,1.8925,1.8891,1.8249,1.7929,1.7836,1.7261,1.6834,1.6526,1.6253,1.5964,1.5784,1.5784,1.5784,1.5784,1.5784,1.5784,1.5784,1.5784,1.5784,1.5792,1.5611,1.5351,1.5077,1.4883,1.4623,1.4402,1.4402,1.4402,1.4376,1.4269,1.3347,1.2283,1.1517,0.9942,0.851,0.7793,0.715,0.6702,0.6702,0.6702,0.6647,0.6535,0.6433,0.632,0.6132,0.6238,0.6224,0.5986,0.6003,0.5952,0.5891,0.5701,0.5589,0.5589,0.5301,0.5059,0.4968,0.4799,0.4646,0.4576,0.4518,0.4491,0.4491,0.4491,0.4236,0.3707,0.2982,0.2232,1.9826,2.0528,2.1042,2.2178,2.2438,2.2412,2.2385,2.1911,2.1236,2.0347,1.9679,1.9078,1.8484,1.8404,1.9147,2.1455,2.2688,2.4458,2.7642,2.8549,2.9196,3.0098,2.9844,2.959,2.9626,2.9219,2.915,2.9597,0.0,3.0644,3.0254,2.9053,2.8417,2.8417,2.6125,2.492,2.4903,2.4185,2.3095,2.1692,2.1643,2.0866,1.9526,1.9115,1.8925,1.8891,1.8249,1.7883,1.7602,1.7569,1.7061,1.6319,1.6587,1.6333,1.5784,1.5784,1.5784,1.5784,1.5784,1.5784,1.5784,1.5784,1.5784,1.5784,1.5784,1.5625,1.5398,1.5398,1.519,1.5008,1.5008,1.5008,1.489,1.4515,1.3536,1.227,1.0689,0.9419,0.8235,0.6958,0.6722,0.6722,0.6722,0.6715,0.6664,0.6559,0.6528,0.647,0.632,0.63,0.63,0.63,0.6166,0.6078,0.6078,0.5883,0.578,0.5738,0.5417,0.5177,0.5163,0.4883,0.4701,0.4691,0.4566,0.4491,0.4491,0.4491,0.4491,0.4491,0.3735,0.2982,2.0855,2.159,2.2151,2.2913,2.2752,2.2305,2.1877,2.1149,2.0321,1.9381,1.843,1.7588,1.6947,1.7253,1.7841,1.8864,2.0969,2.3462,2.6159,2.773,2.8939,3.0091,3.0098,2.9912,2.9655,2.9756,2.9785,2.959,2.9832,3.0146,3.0684,2.922,2.8417,2.8417,2.6313,2.5108,2.4903,2.4185,2.3599,2.3207,2.2145,2.1422,2.0966,1.9551,1.8925,1.8891,1.8249,1.7949,1.7896,1.7442,1.6994,1.658,1.644,1.6159,1.5784,1.5784,1.5784,1.5784,1.5784,1.5784,1.5784,1.5784,1.5784,1.5784,1.5784,1.5625,1.5398,1.5398,1.519,1.5008,1.5008,1.5008,1.4713,1.3623,1.2455,1.1131,0.9739,0.8424,0.7418,0.7078,0.6984,0.6984,0.6984,0.69,0.6858,0.6817,0.6715,0.6549,0.6334,0.63,0.63,0.63,0.6908,0.7331,0.7331,0.7859,0.8115,0.7855,0.7065,0.6449,0.6085,0.5288,0.4806,0.4694,0.4566,0.4491,0.4491,0.4491,0.4491,0.4491,0.3735,0.3262,2.2011,2.2572,2.2866,2.3073,2.2672,2.2011,2.1162,2.0394,1.9492,1.821,1.7321,1.6738,1.6466,1.6504,1.6911,1.7971,1.9924,2.2225,2.5034,2.6833,2.8483,3.0306,3.0508,3.041,3.0176,3.0176,3.0185,3.0146,3.0146,2.9987,2.9551,2.8047,2.6833,2.6114,2.4084,2.2916,2.265,2.2135,2.1877,2.1885,2.1038,2.0644,2.058,1.9444,1.8925,1.8891,0.0,1.7916,1.7809,1.7393,1.6951,1.65,1.6339,1.6092,1.5784,1.5784,1.5784,1.5784,1.5784,1.5784,1.5784,1.5784,1.5784,1.5784,1.5784,1.5712,1.5585,1.5585,1.5471,1.5344,1.5344,1.4963,1.4266,1.3395,1.175,1.0181,0.9366,0.8091,0.7095,0.7095,0.7206,0.7253,0.7119,0.7518,0.7806,0.7707,0.7647,0.7492,0.727,0.6745,0.6549,0.7012,0.7486,0.797,0.8428,0.8867,0.8975,0.8604,0.7665,0.6915,0.6546,0.5488,0.4877,0.4792,0.4604,0.4491,0.4491,0.4491,0.4491,0.4491,0.407,0.3677,2.3073,2.3354,2.326,2.2993,2.2392,2.1577,2.0434,1.9606,1.8611,1.6981,1.6353,1.6177,1.6307,1.6028,1.6313,1.788,1.9295,2.1302,2.4357,2.617,2.8134,3.0607,3.0889,3.0889,3.0889,3.0527,3.0459,3.0859,3.0655,2.9724,2.7917,2.6228,2.4476,2.2771,2.1036,2.0054,1.9806,1.9512,1.9424,1.9424,1.9424,1.9424,1.9417,1.9098,1.8938,1.8838,1.8275,1.7903,1.7562,1.732,1.6878,1.6326,1.6286,1.6092,1.5784,1.5784,1.5784,1.5784,1.5784,1.5784,1.5784,1.5784,1.5784,1.5784,1.5784,1.5784,1.5784,1.5784,1.5784,1.5778,1.5581,1.4752,1.3724,1.3119,1.1189,0.9465,0.9147,0.8075,0.7156,0.7156,0.7417,0.7555,0.7396,0.8356,0.9116,0.903,0.8892,0.8704,0.8534,0.7345,0.686,0.7728,0.7982,0.8419,0.9266,0.9495,0.9373,0.8861,0.7903,0.7158,0.6733,0.5588,0.4958,0.4887,0.4665,0.4511,0.4491,0.4491,0.4491,0.4491,0.4491,0.4125,2.3434,2.3514,2.3313,2.326,2.2245,2.1015,2.0087,1.8657,0.0,1.6563,1.5779,1.5154,1.4926,1.5401,1.6147,1.7231,1.9311,2.1837,2.4935,2.6795,2.863,3.0645,3.0889,3.0889,3.0889,3.082,3.0801,3.0889,2.9406,2.833,2.7966,2.5158,2.2651,2.0787,2.014,1.9853,1.98,1.9512,1.9424,1.9424,1.9424,1.9424,1.9424,1.9319,1.9025,1.8557,1.8457,0.0,1.7562,1.732,1.6991,1.6607,1.6366,1.6092,1.5784,1.5784,1.5784,1.5784,1.5784,1.5784,1.5784,1.5784,1.5784,1.5784,1.5784,1.5784,1.5784,1.5784,1.5784,1.5581,1.4507,1.407,1.3332,1.1118,1.0136,0.943,0.8295,0.7779,0.7519,0.7519,0.7563,0.7862,0.8611,0.9121,0.9716,1.0558,0.9815,0.9189,0.9154,0.7704,0.6743,0.6905,0.8486,0.9518,0.9457,1.1109,1.1565,1.0187,0.9258,0.82,0.6903,0.5866,0.5169,0.4894,0.4745,0.4617,0.4491,0.4491,0.4491,0.4491,0.4491,0.4436,2.3794,2.3781,2.348,2.3166,2.1857,2.0381,1.9352,0.0,0.0,1.5792,1.513,1.4811,1.5092,1.5401,1.5974,1.7176,1.8386,2.0226,2.3163,2.4406,2.6155,2.9242,2.9589,2.9962,3.083,3.0889,3.0889,3.0889,2.9226,2.7812,2.6826,2.3334,2.0976,2.0013,1.9726,1.9646,1.98,1.9512,1.9424,1.9424,1.9424,1.9424,1.9366,1.9205,1.8905,1.8484,1.833,1.7916,1.7387,1.7041,1.6747,1.6453,1.6159,1.5952,1.5784,1.5784,1.5784,1.5784,1.5784,1.5784,1.5784,1.5784,1.5784,1.5784,1.5784,1.5784,1.5784,1.5784,1.5784,1.5683,1.5045,1.3878,1.2522,1.1312,0.9881,0.8657,0.7876,0.8291,0.8777,0.864,0.9269,0.9923,1.0305,1.1017,1.1687,1.2152,1.1121,1.0538,1.1043,0.8752,0.7203,0.7544,0.8424,0.9128,0.9473,1.0467,1.0644,0.9628,0.8697,0.7788,0.695,0.5818,0.5176,0.5002,0.4806,0.4653,0.461,0.4528,0.4491,0.4491,0.4491,0.4491,2.3875,2.3895,2.3627,2.3082,2.149,1.9833,1.8664,1.7201,0.0,1.5338,1.4798,1.4685,1.5548,1.5421,1.5606,1.6944,1.7237,1.8326,2.1272,2.1929,2.3539,2.7368,2.8185,2.8911,3.0265,3.0704,3.0889,3.0889,2.8941,2.689,2.5052,2.1647,1.9706,1.9706,1.9486,1.9472,1.9706,1.9486,1.9424,1.9424,1.9424,1.9424,1.9417,1.9125,1.8824,1.8477,1.8243,1.7762,1.7179,1.6827,1.6533,1.6295,1.5945,1.5784,1.5784,1.5784,1.5784,1.5784,1.5784,1.5784,1.5784,1.5784,1.5784,1.5784,1.5784,1.5784,1.5784,1.5784,1.5784,1.573,1.5439,1.3884,1.2285,1.1945,1.0337,0.8799,0.8548,0.9505,1.0343,1.0076,1.1034,1.1915,1.1919,1.2787,1.3531,1.3656,1.2602,1.2113,1.287,0.9962,0.8027,0.8552,0.8438,0.8617,0.9218,0.9518,0.9369,0.8663,0.7869,0.7199,0.6698,0.5763,0.5197,0.51,0.4904,0.4755,0.4691,0.4597,0.4522,0.4491,0.4491,0.4491,2.332,2.3587,2.3627,2.3082,2.1336,1.9533,1.8302,0.0,1.5565,1.5951,1.5028,1.4439,1.5504,1.507,1.487,1.5832,0.0,1.7583,2.0986,2.1639,2.2847,2.5543,2.7353,2.8477,2.8605,3.002,3.0889,3.0889,2.7459,2.4701,2.3049,2.07,1.9464,1.9464,1.9379,1.9379,1.9464,1.9379,1.9424,1.9424,1.9424,1.9424,1.9424,1.9397,1.9018,1.849,1.8464,1.7956,0.0,1.6827,1.6533,1.6295,1.5945,1.5784,1.5784,1.5784,1.5784,1.5784,1.5784,1.5784,1.5784,1.5784,1.5784,1.5784,1.5784,1.5784,1.5784,1.5784,1.5784,1.5534,1.4364,1.3926,1.3392,1.2188,1.1707,1.1546,1.1507,1.1628,1.1741,1.1701,1.1823,1.2202,1.3076,1.3572,1.4141,1.5068,1.4229,1.3514,1.363,1.1086,0.9284,0.9225,0.8993,0.8763,0.8535,0.9517,0.9538,0.8173,0.7977,0.7317,0.5975,0.5788,0.5545,0.5106,0.5073,0.4958,0.4691,0.4677,0.4627,0.4491,0.4491,0.4491,2.2605,2.3133,2.336,2.2746,2.1056,1.9279,1.8222,0.0,1.5152,1.5149,1.4574,1.425,1.465,1.4608,1.4689,0.0,0.0,0.0,1.8576,1.8939,2.0157,2.3193,2.5094,2.6743,2.8286,2.9657,3.0007,2.881,2.5384,2.3069,2.2449,2.0494,1.9424,1.9424,1.9424,1.9424,1.9424,1.9424,1.9424,1.9424,1.9424,1.9424,1.9417,1.9185,1.8878,1.8477,1.8303,1.7916,0.0,1.6901,1.664,1.6486,1.6012,1.5784,1.5784,1.5784,1.5784,1.5784,1.5784,1.5784,1.5784,1.5784,1.5784,1.5784,1.5784,1.5784,1.5784,1.5784,1.5784,1.5683,1.5194,1.4459,1.3536,1.2237,1.1896,1.1896,1.1896,1.2528,1.3102,1.3102,1.374,1.4387,1.4804,1.4975,1.5156,1.5577,1.4596,1.4057,1.4663,1.1765,0.9903,1.0442,0.8989,0.7845,0.7539,0.794,0.7919,0.7267,0.707,0.6721,0.6122,0.5901,0.5677,0.5413,0.5318,0.5165,0.4955,0.4775,0.466,0.4627,0.4532,0.4491,2.158,2.2472,2.2913,2.2311,2.0688,1.8985,0.0,0.0,1.4983,1.4888,1.4428,1.4208,1.4489,1.453,1.4616,0.0,0.0,1.5778,1.6918,1.7146,1.8138,2.0634,2.2525,2.4366,2.6345,2.8007,2.8364,2.6849,2.4025,2.2285,2.218,2.0424,1.9424,1.9424,1.9424,1.9424,1.9424,1.9424,1.9424,1.9424,1.9279,1.9239,1.9225,1.8931,1.8637,1.8343,1.8082,1.7822,0.0,1.6914,1.6653,1.6526,1.5977,1.5784,1.5784,1.5784,1.5784,1.5784,1.5784,1.5784,1.5784,1.5784,1.5784,1.5784,1.5784,1.5784,1.5784,1.5784,1.5784,1.5784,1.5784,1.5146,1.422,1.3301,1.306,1.306,1.306,1.3782,1.4459,1.4459,1.5194,1.5784,1.5784,1.5784,1.5784,1.5784,1.5045,1.4731,1.5405,1.2895,1.11,1.1404,0.9401,0.7779,0.7125,0.6974,0.6883,0.6776,0.6529,0.6392,0.6303,0.6006,0.5779,0.5593,0.5518,0.5332,0.51,0.4921,0.4775,0.4687,0.4607,0.4535,2.0292,2.1543,2.2291,2.171,2.0234,1.8617,0.0,1.6067,1.5144,1.5595,1.4859,1.4412,1.5504,1.5021,1.4616,0.0,0.0,0.0,1.6587,1.7018,1.742,1.7963,1.978,2.1271,2.2155,2.4567,2.588,2.5575,2.3758,0.0,2.2195,2.0424,1.9424,1.9424,1.9424,1.9424,1.9424,1.9424,1.9424,1.9424,1.9065,1.8925,1.8918,1.8631,1.833,1.7995,1.7995,1.7709,0.0,1.6834,1.6533,1.6246,1.5945,1.5784,1.5784,1.5784,1.5784,1.5784,1.5784,1.5784,1.5784,1.5784,1.5784,1.5784,1.5784,1.5784,1.5784,1.5784,1.5784,1.5784,1.5784,1.5778,1.5784,1.5778,1.5778,1.5778,1.5778,1.5784,1.5784,1.5784,1.5778,1.5784,1.5784,1.5784,1.5784,1.5784,1.5778,1.5778,1.5778,1.4651,1.3295,1.1863,1.0375,0.8894,0.7514,0.7224,0.7034,0.6893,0.678,0.6566,0.6313,0.6108,0.5888,0.5596,0.5589,0.5437,0.51,0.5096,0.4945,0.4691,0.4691,0.4634,1.8931,1.9746,2.0241,1.9853,1.8878,1.7749,1.6824,1.5772,1.4929,1.4655,1.4328,1.4208,1.4531,1.4402,1.4389,1.4928,0.0,0.0,0.0,0.0,1.7215,1.8223,2.1647,2.4326,2.5413,2.6099,2.6289,2.5942,2.3438,2.1912,2.18,2.0254,1.9424,1.9424,1.9424,1.9424,1.9424,1.9424,1.9424,1.9424,1.9065,1.9032,1.9205,1.8718,1.8437,1.8337,1.8082,1.7709,1.7179,1.6827,1.6533,1.6295,1.5945,1.5784,1.5784,1.5784,1.5784,1.5784,1.5784,1.5784,1.5784,1.5784,1.5784,1.5784,1.5784,1.5784,1.5784,1.5784,1.5784,1.5784,1.5784,1.5784,1.5784,1.5784,1.5784,1.5784,1.5784,1.5784,1.5784,1.5784,1.5784,1.5784,1.5784,1.5784,1.5784,1.5784,1.5784,1.5784,1.5784,1.4704,1.3363,1.1989,1.0544,0.9082,0.7527,0.7227,0.7078,0.7034,0.6841,0.6658,0.6566,0.6318,0.6095,0.5895,0.5891,0.5742,0.5443,0.5338,0.5081,0.4691,0.4691,0.4638,0.0,1.8497,1.8965,1.8671,1.8003,0.0,0.0,1.5511,1.4841,1.4208,1.4088,1.4088,1.4088,1.4175,1.4369,1.4736,0.0,0.0,0.0,1.6266,1.7061,1.8029,2.1578,2.4159,2.478,2.55,2.5796,2.5459,2.369,2.2332,2.1643,2.0759,1.9982,1.9424,1.9424,1.9424,1.9424,1.9424,1.9424,1.9424,1.9065,1.8965,1.9018,1.8537,1.825,1.8136,1.7956,1.7595,0.0,1.6827,1.6533,1.6295,1.5945,1.5784,1.5784,1.5784,1.5784,1.5784,1.5784,1.5784,1.5784,1.5784,1.5784,1.5784,1.5784,1.5784,1.5784,1.5784,1.5784,1.5784,1.5784,1.5784,1.5784,1.5784,1.5784,1.5784,1.5784,1.5784,1.5784,1.5784,1.5784,1.5784,1.5784,1.5784,1.5784,1.5784,1.5784,1.5784,1.5784,1.4704,1.3392,1.2042,1.0644,0.9175,0.7617,0.7316,0.7204,0.7098,0.6876,0.6759,0.6702,0.6508,0.6244,0.5996,0.5993,0.5911,0.5671,0.5494,0.5221,0.4857,0.4802,0.4694,0.0,0.0,0.0,0.0,0.0,0.0,0.0,0.0,0.0,0.0,1.4088,1.4095,1.4115,1.4322,1.4502,1.4543,1.501,0.0,1.5391,1.6226,1.7054,1.7642,2.007,2.1575,2.1319,2.343,2.4746,2.4586,2.4504,2.3667,2.182,2.1635,2.0923,1.9424,1.9403,1.9403,1.9424,1.9424,1.9424,1.9424,1.9045,1.8764,1.851,1.815,1.7836,0.0,1.7562,1.7427,1.7119,1.6787,1.6506,1.6213,1.5939,1.5784,1.5784,1.5784,1.5784,1.5784,1.5784,1.5784,1.5784,1.5784,1.5784,1.5784,1.5784,1.5784,1.5784,1.5784,1.5784,1.5784,1.5784,1.5784,1.5784,1.5784,1.5784,1.5784,1.5784,1.5784,1.5784,1.5784,1.5784,1.5784,1.5784,1.5784,1.5784,1.5784,1.5784,1.5784,1.5683,1.4609,1.3343,1.1896,1.061,0.9239,0.7722,0.7465,0.7305,0.7105,0.6964,0.6861,0.6709,0.6552,0.6339,0.6013,0.5996,0.5919,0.58,0.5549,0.5291,0.5096,0.4965,0.4853,0.0,0.0,0.0,0.0,0.0,0.0,0.0,0.0,0.0,0.0,0.0,0.0,0.0,0.0,0.0,1.4834,1.5022,1.5189,1.5364,1.6941,1.829,1.8934,2.0959,2.2523,2.3087,2.4757,2.6225,2.7274,2.6299,2.497,2.3383,2.2202,2.0923,1.9424,1.9145,1.9138,1.9424,1.9424,1.9424,1.9417,1.8838,1.8677,1.8798,1.8029,1.7649,1.7569,1.74,1.7012,1.6522,1.6455,1.6199,1.5925,1.5804,1.5784,1.5784,1.5784,1.5784,1.5784,1.5784,1.5784,1.5784,1.5784,1.5784,1.5784,1.5784,1.5784,1.5784,1.5784,1.5784,1.5784,1.5784,1.5784,1.5784,1.5784,1.5784,1.5784,1.5784,1.5784,1.5784,1.5784,1.5784,1.5784,1.5784,1.5784,1.5784,1.5784,1.5784,1.5439,1.4459,1.407,1.3,1.0681,1.0151,0.9372,0.787,0.7522,0.7305,0.7105,0.6964,0.6861,0.6709,0.6552,0.6429,0.6248,0.6091,0.5919,0.58,0.5623,0.5396,0.51,0.5066,0.4972,0.0,0.0,0.0,0.0,0.0,0.0,0.0,0.0,0.0,0.0,0.0,0.0,0.0,0.0,0.0,1.471,1.5097,1.5558,1.6126,1.7281,1.8297,1.8891,2.0838,2.2559,0.0,2.5206,2.6717,2.8184,2.7384,2.6161,2.4617,2.3132,2.1574,1.9949,1.9265,1.8998,1.9165,1.9032,1.8965,1.8965,1.8644,1.8504,1.8448,1.8016,1.7649,1.7427,1.7266,1.6871,1.6321,1.6321,1.6099,1.5784,1.5784,1.5784,1.5784,1.5784,1.5784,1.5784,1.5784,1.5784,1.5784,1.5784,1.5784,1.5784,1.5784,1.5784,1.5784,1.5784,1.5784,1.5784,1.5784,1.5784,1.5784,1.5784,1.5784,1.5784,1.5784,1.5784,1.5635,1.5045,1.5391,1.5635,1.5045,1.5391,1.5784,1.5784,1.5784,1.5337,1.407,1.3343,1.2231,1.0194,0.946,0.8758,0.7873,0.7665,0.7478,0.7258,0.7061,0.6916,0.681,0.6658,0.6518,0.6303,0.6179,0.6027,0.58,0.5725,0.5532,0.5237,0.5237,0.5159,0.0,0.0,0.0,0.0,0.0,0.0,0.0,0.0,0.0,0.0,0.0,0.0,0.0,1.4382,1.4519,1.4696,1.5418,1.6306,1.7333,1.7722,1.805,1.8564,2.0238,2.2017,2.3589,2.4899,2.6354,2.8087,2.7803,2.6903,2.5413,2.3906,2.2312,2.0567,1.9382,1.8791,1.8791,1.8591,1.849,1.849,1.8444,1.8263,1.7922,1.7876,1.7582,1.7065,0.0,0.0,1.6206,1.6206,1.6059,1.5784,1.5784,1.5784,1.5784,1.5784,1.5784,1.5784,1.5784,1.5784,1.5784,1.5784,1.5784,1.5784,1.5784,1.5784,1.5784,1.5784,1.5784,1.5784,1.5784,1.5784,1.5784,1.5784,1.5784,1.573,1.554,1.5486,1.5146,1.383,1.4609,1.5146,1.407,1.4949,1.573,1.5534,1.5486,1.4997,1.3488,1.2328,1.1116,0.985,0.8676,0.7938,0.7858,0.7824,0.7702,0.7455,0.7272,0.7058,0.6893,0.6759,0.6549,0.6337,0.631,0.616,0.5837,0.5837,0.5684,0.5429,0.5429,0.5315,1.4396,1.4736,0.0,0.0,0.0,0.0,0.0,0.0,0.0,0.0,0.0,0.0,0.0,1.4663,1.4719,1.5465,1.6159,1.7061,1.8457,1.8905,1.9182,1.9219,1.991,2.124,2.3239,2.3595,2.4797,2.7596,2.7363,2.6464,2.4954,2.3576,2.2103,2.0552,1.8973,1.8129,1.8129,1.8384,1.849,1.849,1.8237,1.7949,1.7649,1.7454,1.7018,1.6455,0.0,1.6213,1.5899,1.5899,1.5872,1.5784,1.5784,1.5784,1.5784,1.5784,1.5784,1.5784,1.5784,1.5784,1.5784,1.5784,1.5784,1.5784,1.5784,1.5784,1.5784,1.5784,1.5784,1.5784,1.5784,1.5784,1.5784,1.5784,1.5784,1.5486,1.4411,1.4166,1.3782,1.2479,1.3295,1.4118,1.3926,1.4949,1.5439,1.4364,1.4166,1.3343,1.0921,1.0435,0.9801,0.8432,0.8137,0.7982,0.7958,0.7885,0.779,0.7746,0.7489,0.7214,0.6896,0.6658,0.6525,0.648,0.6361,0.6173,0.5956,0.5956,0.5844,0.5555,0.5555,0.5504,1.4249,1.4502,1.473,0.0,0.0,0.0,0.0,0.0,0.0,0.0,0.0,0.0,0.0,0.0,1.5571,1.6607,1.7001,1.7475,1.831,1.8698,1.8891,1.8891,1.9406,2.0394,2.1977,2.2794,2.4031,2.6082,2.6487,2.6357,2.572,2.4239,2.2778,2.1225,1.9848,1.8693,1.7796,1.7776,1.7822,1.7822,1.7629,1.7402,1.7101,1.6974,1.6673,1.6321,0.0,1.6106,1.5784,1.5784,1.5784,1.5784,1.5784,1.5784,1.5784,1.5784,1.5784,1.5784,1.5784,1.5784,1.5784,1.5784,1.5784,1.5784,1.5784,1.5784,1.5784,1.5784,1.5784,1.5784,1.5784,1.5784,1.5784,1.5784,1.5289,1.4609,1.4022,1.3343,1.2425,1.1116,1.194,1.2619,1.1891,1.3445,1.4555,1.3974,1.3926,1.3199,1.1263,1.044,0.9509,0.8137,0.7988,0.7988,0.7988,0.7924,0.7831,0.759,0.7448,0.7238,0.69,0.6715,0.6556,0.6515,0.6371,0.6183,0.5993,0.5993,0.5918,0.5701,0.5627,0.5552,1.4068,1.4249,1.4489,0.0,0.0,0.0,0.0,0.0,0.0,0.0,0.0,0.0,0.0,1.5645,1.6373,1.7415,1.7702,1.7969,1.8464,1.8684,1.8824,1.8891,1.9239,1.9934,2.1018,2.2284,2.3516,2.4621,2.5626,2.6191,2.6084,2.4668,2.3134,2.1628,2.0473,1.9105,1.7534,1.7313,1.7199,1.7199,1.7132,1.6945,1.6607,1.6607,1.6446,1.6166,1.6166,1.6039,1.5784,1.5784,1.5784,1.5784,1.5784,1.5784,1.5784,1.5784,1.5784,1.5784,1.5784,1.5784,1.5784,1.5784,1.5784,1.5784,1.5784,1.5784,1.5784,1.5784,1.5784,1.5784,1.5784,1.5784,1.573,1.5439,1.4609,1.3728,1.3102,1.2183,1.1072,0.9801,1.0583,1.117,1.0145,1.2183,1.3776,1.3494,1.368,1.3295,1.1653,1.0583,0.9509,0.8137,0.7988,0.7988,0.7988,0.7988,0.7879,0.7499,0.7456,0.7268,0.7041,0.6817,0.6647,0.6569,0.6388,0.6242,0.6084,0.6084,0.6006,0.585,0.5742,0.5674,1.4015,1.4102,1.4188,1.4482,0.0,0.0,1.5611,1.5364,0.0,1.5658,0.0,0.0,0.0,1.6246,1.6847,1.7482,1.8056,1.8811,1.9913,1.986,1.9806,2.0074,1.9907,2.0103,2.0985,2.1954,2.2921,2.3727,2.5028,2.5605,2.5233,2.3864,2.2518,2.1287,1.9841,1.8455,1.7233,1.7213,1.7199,1.7199,1.6867,1.6587,1.6355,1.6355,1.6146,1.5865,1.5865,1.5798,1.5784,1.5784,1.5784,1.5784,1.5784,1.5784,1.5784,1.5784,1.5784,1.5784,1.5784,1.5784,1.5784,1.5784,1.5784,1.5784,1.5784,1.5784,1.5784,1.5784,1.5784,1.5784,1.5784,1.5784,1.5486,1.4316,1.3974,1.3247,1.0823,1.019,0.9752,0.8382,0.9213,1.0096,0.9998,1.2183,1.3494,1.2237,1.3102,1.3006,1.0485,1.0047,0.9509,0.8137,0.7988,0.7988,0.7988,0.7988,0.7917,0.779,0.7522,0.7409,0.7388,0.6929,0.6695,0.6685,0.6446,0.6293,0.6282,0.6282,0.6166,0.5976,0.5966,0.5922,1.374,1.3948,1.4115,1.4222,0.0,0.0,0.0,1.5805,1.5886,1.6059,1.6306,0.0,0.0,1.6707,1.7168,1.7756,1.8364,1.8978,1.9606,1.976,1.9706,1.9446,1.9486,1.9449,1.9194,2.0089,2.1044,2.1951,2.3096,2.4013,2.4621,2.4181,2.3305,2.1992,2.1423,2.0101,1.801,1.7867,1.7379,1.665,1.6493,1.6279,1.5999,1.5999,1.5939,1.5784,1.5784,1.5784,1.5784,1.5784,1.5784,1.5784,1.5784,1.5784,1.5784,1.5784,1.5784,1.5784,1.5784,1.5784,1.5784,1.5784,1.5784,1.5784,1.5784,1.5784,1.5635,1.4848,1.4609,1.48,1.5581,1.5784,1.5486,1.4214,1.3247,1.2188,1.0386,0.9361,0.8627,0.8088,0.8432,0.9019,0.9854,1.1458,1.2764,1.3102,1.359,1.3247,1.1409,1.0485,0.9805,0.9316,0.9266,0.892,0.8088,0.7988,0.7965,0.7907,0.7678,0.7472,0.7419,0.7031,0.6844,0.6844,0.6637,0.6528,0.6433,0.6433,0.6358,0.6173,0.6074,0.5959,1.3387,1.3581,1.3834,0.0,0.0,0.0,1.5798,1.6199,1.646,1.6647,1.6985,1.7112,1.676,0.0,1.7201,1.7782,1.831,1.8844,1.9426,1.9439,1.9305,1.9092,1.8991,1.8664,1.7963,1.8855,1.9646,2.0027,2.167,2.2888,2.3612,2.398,2.3602,2.233,2.2236,2.1182,1.897,1.8371,1.7698,1.6843,1.6366,1.6025,1.5784,1.5784,1.5784,1.5784,1.5784,1.5784,1.5784,1.5784,1.5784,1.5784,1.5784,1.5784,1.5784,1.5784,1.5784,1.5784,1.5784,1.5784,1.5784,1.5784,1.5784,1.573,1.5343,1.5194,1.4949,1.3638,1.3247,1.359,1.4854,1.4902,1.437,1.3494,1.228,1.1086,1.0214,0.8958,0.8005,0.8102,0.8022,0.8283,0.9217,1.0779,1.2188,1.3151,1.3974,1.4022,1.2716,1.1745,1.1068,1.0632,1.0243,0.9608,0.8726,0.8237,0.7988,0.7988,0.7804,0.76,0.7451,0.7112,0.6886,0.6886,0.6776,0.6624,0.6511,0.6562,0.6487,0.6296,0.6196,0.6146,1.2871,1.3012,1.328,0.0,0.0,0.0,1.6005,1.6493,1.6867,1.7462,1.7407,1.7112,1.6767,1.6707,1.6901,1.7488,1.7842,1.8402,1.9626,1.9038,1.8704,1.9343,1.8557,1.7896,1.7609,1.8577,1.8865,1.8174,2.0847,2.2377,2.1997,2.3128,2.3229,2.2062,2.1887,2.1215,1.9923,1.8719,1.8115,1.8067,1.6531,1.5784,1.5784,1.5784,1.5832,1.5825,1.5832,1.5832,1.5825,1.5832,1.5784,1.5784,1.5784,1.5784,1.5784,1.5784,1.5784,1.5784,1.5784,1.5784,1.5784,1.5784,1.5784,1.5581,1.4268,1.3926,1.3632,1.2285,1.1896,1.2188,1.3536,1.2866,1.1896,1.1901,1.0974,1.0044,1.0171,0.9083,0.8085,0.8238,0.8143,0.8041,0.8041,1.019,1.1896,1.1901,1.4124,1.5337,1.407,1.3926,1.3392,1.2042,1.0779,0.9998,0.9998,0.8775,0.7988,0.7988,0.7896,0.7746,0.7604,0.717,0.6889,0.6886,0.678,0.663,0.6518,0.6627,0.6593,0.6306,0.6446,0.6476,1.2924,1.3012,0.0,1.3533,0.0,0.0,0.0,1.6192,0.0,0.0,1.7407,1.7172,1.7085,1.7065,1.7192,1.7522,1.7842,1.8189,1.8798,1.8657,1.8477,1.8444,1.8009,1.7595,1.7353,1.7216,1.7421,1.8041,1.8753,1.9823,2.1437,2.1851,2.2262,2.2745,2.2736,2.2138,2.0922,1.9699,1.8652,1.7787,1.6427,1.5784,1.5784,1.5784,1.6292,1.7084,1.6204,1.6298,1.7084,1.615,1.5784,1.5784,1.5784,1.5784,1.5784,1.5784,1.5784,1.5784,1.5784,1.5784,1.5784,1.5784,1.5784,1.5581,1.4268,1.3926,1.344,1.1214,1.0583,1.0681,1.1068,1.0872,1.1019,1.2861,1.3006,1.2247,1.0457,1.0581,1.0517,0.8464,0.8948,0.9654,0.9434,1.0047,1.1165,1.3006,1.3974,1.4316,1.3974,1.3926,1.3392,1.2042,1.1556,1.0974,1.0096,0.8775,0.7988,0.7988,0.7896,0.7746,0.7604,0.737,0.719,0.7038,0.6991,0.6896,0.6793,0.7666,0.799,0.7797,0.844,0.8728,1.271,1.2879,0.0,1.3721,1.4703,1.5671,1.6086,0.0,0.0,0.0,1.7668,1.7373,1.7373,1.728,1.7259,1.7434,1.7569,1.7796,1.809,1.7929,1.7756,1.7695,1.7321,1.7045,1.6871,1.6373,1.6381,1.7134,1.7515,1.8549,2.0486,2.1025,2.1845,2.3047,2.3091,2.2775,2.2031,2.08,1.9633,1.8411,1.7171,1.6292,1.5784,1.5784,1.648,1.7645,1.6897,1.6716,1.6897,1.6109,1.5784,1.5784,1.5784,1.5784,1.5784,1.5784,1.5784,1.5784,1.5784,1.5784,1.5784,1.5784,1.5784,1.5439,1.3638,1.3102,1.2571,0.9948,0.9217,0.946,1.0485,1.073,1.1312,1.3392,1.3488,1.284,1.1855,1.1915,1.1538,0.9318,0.9592,1.0029,0.9331,1.0047,1.1312,1.2861,1.3974,1.4657,1.4657,1.4657,1.4172,1.2813,1.2237,1.1365,1.0096,0.8775,0.7988,0.7988,0.7896,0.7746,0.7604,0.7451,0.7299,0.7098,0.7095,0.7024,0.6886,0.8177,0.8666,0.8397,0.893,0.9151,1.2345,1.2746,1.332,1.3968,1.5003,0.0,1.658,1.7121,1.7662,1.825,0.0,1.7575,1.7549,1.7353,1.7159,1.7159,1.7159,1.7253,1.7468,1.7041,1.6807,1.7125,1.6663,1.6321,1.6321,1.6005,1.5784,1.5784,1.699,1.8234,1.9451,2.0621,2.1845,2.3047,2.3091,2.3091,2.3091,2.1889,2.0702,1.9497,1.828,1.7037,1.5784,1.5784,1.6433,1.7552,1.7777,1.7084,1.5784,1.5784,1.5784,1.5784,1.5784,1.5784,1.5784,1.5784,1.5784,1.5784,1.5784,1.5784,1.5784,1.5784,1.573,1.5146,1.2673,1.1799,1.1214,0.8726,0.7988,0.8577,1.1214,1.1896,1.2285,1.3734,1.3151,1.2591,1.3863,1.3068,1.1762,1.0482,1.0158,0.9615,0.8244,1.0122,1.1854,1.2078,1.4244,1.5784,1.5784,1.5784,1.5289,1.4022,1.2716,1.1365,1.0096,0.8775,0.7988,0.7988,0.7909,0.7763,0.7607,0.7451,0.7299,0.7098,0.7095,0.7078,0.7075,0.8293,0.8794,0.8613,0.8578,0.8473,0.0,1.2784,0.0,0.0,1.5311,1.6273,1.6627,1.6807,1.7001,1.7414,1.7515,1.7515,1.7333,1.7001,1.68,1.68,1.68,1.682,1.6887,1.6787,1.6727,1.6794,1.6493,1.6321,1.6321,1.6005,1.5784,1.5784,1.699,1.8234,1.9451,2.0621,2.1845,2.3047,2.3091,2.3091,2.3091,2.1889,2.0702,1.9497,1.828,1.7037,1.5784,1.5784,1.5967,1.6339,1.8265,1.7848,1.5784,1.5784,1.5784,1.5784,1.5784,1.5784,1.5784,1.5784,1.5784,1.5784,1.5784,1.5784,1.5784,1.5784,1.5099,1.4022,1.2382,1.1214,1.0047,0.8432,0.7988,0.8577,1.1214,1.1896,1.2479,1.4806,1.5146,1.4833,1.4355,1.4129,1.3283,1.0841,1.0574,1.0147,0.8296,0.9633,1.1586,1.3512,1.4938,1.5784,1.5784,1.5784,1.5289,1.4022,1.2716,1.1365,1.0096,0.8775,0.7988,0.7988,0.7958,0.7872,0.7611,0.7451,0.7299,0.7098,0.7095,0.7562,0.8487,0.8742,0.9317,1.0118,0.9734,0.9549,0.0,0.0,0.0,1.4783,0.0,1.6346,1.664,1.6707,1.6747,1.6907,1.7054,1.7114,1.7018,1.6807,1.666,1.652,1.65,1.6446,1.6306,1.6286,1.6286,1.6286,1.6152,1.6059,1.6059,1.5919,1.5772,1.5631,1.635,1.745,1.8904,1.9669,2.0844,2.2454,2.2691,2.2789,2.2789,2.2397,2.1578,2.035,1.9131,1.7576,1.5825,1.6433,1.6386,1.592,1.7809,1.7576,1.5784,1.5784,1.5784,1.5784,1.5784,1.5784,1.5784,1.5784,1.5784,1.5784,1.5784,1.5784,1.5784,1.5784,1.4949,1.3638,1.2334,1.1023,0.9706,0.8382,0.7988,0.8577,1.1214,1.1896,1.2576,1.5201,1.5784,1.5714,1.5352,1.4721,1.3678,1.1728,1.1499,1.1053,0.9275,1.0794,1.2885,1.474,1.5482,1.5784,1.5784,1.5784,1.5051,1.3156,1.2334,1.1116,0.9217,0.8382,0.7988,0.7988,0.7921,0.7831,0.7607,0.7451,0.7299,0.7098,0.7095,0.7401,0.8061,0.8627,0.9192,0.9788,0.9471,0.9321,0.0,0.0,1.3661,1.5172,1.5865,0.0,1.6486,1.6553,1.6553,1.6553,1.6593,1.6627,1.6627,1.6587,1.6473,1.6233,1.6192,1.6112,1.5865,1.5784,1.5784,1.5784,1.5738,1.5752,1.5752,1.5712,1.5578,1.5337,1.5724,1.6673,1.8319,1.8827,1.9904,2.1853,2.2217,2.2441,2.251,2.274,2.2358,2.1293,2.0079,1.8311,1.6157,1.7225,1.699,1.5872,1.7131,1.699,1.5784,1.5784,1.5784,1.5784,1.5784,1.5784,1.5784,1.5784,1.5784,1.5784,1.5784,1.5784,1.5784,1.5784,1.4949,1.3638,1.2334,1.1023,0.9706,0.8382,0.7988,0.8577,1.1214,1.1896,1.2576,1.5201,1.5784,1.5817,1.5908,1.4886,1.3565,1.2293,1.1999,1.1641,1.0649,1.2375,1.4328,1.5701,1.5865,1.5784,1.5784,1.5784,1.4908,1.2479,1.2042,1.0925,0.8528,0.8137,0.7988,0.7988,0.7919,0.7787,0.7641,0.7492,0.7336,0.7139,0.7109,0.7183,0.7404,0.8189,0.8715,0.8886,0.8571,0.8399,0.0,0.0,1.3726,0.0,1.511,1.5591,0.0,0.0,1.5898,0.0,1.6152,1.6333,1.6333,1.6119,1.5884,1.5844,1.5885,1.5872,1.5791,1.5784,1.5784,1.5784,1.5605,1.5451,1.5451,1.5224,1.5109,1.5068,1.6054,1.7161,1.8337,1.9444,2.0572,2.1843,2.1943,2.2139,2.251,2.2207,2.1788,2.1293,2.0079,1.8772,1.7451,1.7638,1.699,1.5872,1.7131,1.699,1.5784,1.5784,1.5784,1.5784,1.5784,1.5784,1.5784,1.5784,1.5784,1.5784,1.5784,1.5784,1.5784,1.5784,1.4949,1.3638,1.2334,1.1023,0.9706,0.8382,0.7988,0.8577,1.1214,1.1896,1.2576,1.5201,1.5784,1.5565,1.4753,1.4286,1.338,1.1116,1.049,1.0717,1.2045,1.3177,1.4443,1.5978,1.5999,1.5784,1.5784,1.5784,1.5242,1.3782,1.2571,1.1312,0.985,0.8676,0.7988,0.7988,0.7971,0.7891,0.779,0.7645,0.7499,0.7343,0.7207,0.7621,0.8671,0.7753,0.7885,0.8886,0.7677,0.714,1.2225,1.2472,1.2872,0.0,1.4349,1.4736,1.503,1.5224,1.5391,1.5551,1.5691,1.5832,1.5992,1.5919,1.5784,1.5784,1.5691,1.5585,1.5585,1.5444,1.556,1.6179,1.5627,1.5416,1.6027,1.5428,1.4941,1.473,1.5935,1.6988,1.7746,1.9049,2.0199,2.1152,2.1387,2.1611,2.1756,2.1855,2.1446,2.0591,2.0027,1.8842,1.7078,1.7078,1.66,1.5832,1.6386,1.6339,1.5784,1.5784,1.5784,1.5784,1.5784,1.5784,1.5784,1.5784,1.5784,1.5784,1.5784,1.5784,1.5784,1.5784,1.4949,1.3638,1.2334,1.1023,0.9706,0.8382,0.8528,0.9558,1.1414,1.2479,1.3494,1.5343,1.5784,1.528,1.3387,1.2926,1.262,1.1704,1.1262,1.185,1.4272,1.482,1.5185,1.5909,1.5912,1.5784,1.5784,1.5784,1.5289,1.4022,1.2716,1.1365,1.0096,0.8775,0.7988,0.7988,0.7988,0.7921,0.7818,0.775,0.7607,0.7422,0.7217,0.736,0.7885,0.736,0.736,0.7881,0.7294,0.7004,0.0,0.0,1.2084,1.2973,1.3587,1.4055,0.0,0.0,1.493,0.0,1.5291,1.5351,1.5571,1.5671,1.5698,1.5618,1.5431,1.5291,1.5291,1.5149,1.5397,1.6463,1.5581,1.5273,1.6381,1.5425,1.4649,1.4429,1.5619,1.6638,1.7286,1.858,1.9706,2.0576,2.0889,2.1123,2.119,2.167,2.1342,2.0319,2.0117,1.8999,1.707,1.6763,1.6287,1.5611,1.5691,1.5718,1.5718,1.5718,1.5718,1.5771,1.5698,1.5718,1.5784,1.5784,1.5784,1.5784,1.5784,1.5784,1.5784,1.5784,1.5146,1.4118,1.2818,1.1745,1.0725,0.9361,0.9706,1.0779,1.2091,1.3151,1.422,1.5486,1.5784,1.5194,1.2915,1.1942,1.1668,1.2173,1.2397,1.3187,1.5337,1.5726,1.5784,1.5784,1.5784,1.5784,1.5784,1.5784,1.5439,1.4459,1.2915,1.1507,1.0583,0.897,0.7988,0.7988,0.7988,0.7938,0.7875,0.7831,0.7706,0.7489,0.7295,0.7136,0.7095,0.7095,0.7095,0.7095,0.7095,0.7095,0.0,1.1663,0.0,1.198,1.2819,0.0,0.0,0.0,1.4629,1.4968,1.5028,1.5035,1.5055,1.5237,1.5331,1.5102,1.5042,1.5028,1.5028,1.5022,1.5397,1.6463,1.5392,1.4957,1.6041,1.4908,1.4128,1.4115,1.5131,1.6188,1.7261,1.8407,1.9499,2.0566,2.0625,2.0801,2.119,2.167,2.1629,2.1149,2.05,1.9519,1.8286,1.7237,1.6139,1.5068,1.5297,1.5418,1.5418,1.5418,1.5578,1.5751,1.5524,1.5585,1.5784,1.5784,1.5784,1.5784,1.5784,1.5784,1.5784,1.5784,1.5778,1.5439,1.4166,1.3728,1.344,1.2091,1.175,1.2091,1.344,1.383,1.422,1.5486,1.5784,1.5439,1.407,1.2053,1.0756,1.1756,1.315,1.4166,1.4033,1.501,1.5784,1.5784,1.5784,1.5784,1.5784,1.5784,1.5784,1.573,1.3403,1.1853,1.1799,0.9456,0.7988,0.7988,0.7988,0.7985,0.7978,0.7889,0.7804,0.7787,0.7506,0.7288,0.7095,0.7095,0.7095,0.7095,0.7095,0.7095,0.0,0.0,0.0,1.149,1.1904,1.2261,1.2599,1.3079,1.3507,1.3774,1.4135,1.4402,1.4402,1.4841,1.5129,1.5028,1.4803,1.4676,1.4676,1.4522,1.4812,1.5885,1.5579,1.5342,1.5584,1.5328,1.4733,1.3856,1.5591,1.6887,1.7302,1.9027,2.0206,2.0605,2.0605,2.0508,2.0352,2.0547,2.0187,1.9362,1.9392,1.8456,1.6637,1.6258,1.5475,1.4459,1.471,1.4943,1.5117,1.5117,1.5291,1.5538,1.5438,1.5571,1.5784,1.5784,1.5784,1.5784,1.5784,1.5784,1.5784,1.5784,1.5784,1.5581,1.4268,1.3926,1.3632,1.2285,1.2522,1.3295,1.3782,1.4507,1.5242,1.5683,1.5194,1.4459,1.4022,1.2537,1.1742,1.2926,1.3659,1.4274,1.5016,1.5486,1.5784,1.5784,1.5784,1.5784,1.5784,1.5099,1.4902,1.573,1.2716,1.1023,1.1848,0.9505,0.7988,0.7988,0.7988,0.7988,0.7988,0.7938,0.7913,0.7814,0.7706,0.7533,0.7288,0.7142,0.7095,0.7095,0.7095,0.7095,1.1847,0.0,0.0,0.0,0.0,1.1442,1.1677,1.2134,1.2576,1.2846,1.33,1.3667,1.3774,1.4115,1.4442,1.4636,1.4335,1.4148,1.4349,1.4122,1.4379,1.5564,1.5696,1.5778,1.5963,1.5815,1.5449,1.4883,1.636,0.0,1.7868,1.9599,2.0537,2.0352,2.0243,2.0,1.9707,1.9399,1.8929,1.8285,1.7917,1.7049,1.5703,1.5338,1.4776,1.4095,1.4295,1.4543,1.4816,1.4816,1.5044,1.5384,1.5291,1.5484,1.5784,1.5784,1.5784,1.5784,1.5784,1.5784,1.5784,1.5784,1.5784,1.5635,1.48,1.4555,1.4364,1.3451,1.3836,1.4555,1.4555,1.5146,1.5784,1.5784,1.5146,1.4586,1.4678,1.3737,1.3079,1.3874,1.4467,1.5099,1.5848,1.5844,1.5784,1.5784,1.5784,1.5784,1.5784,1.4704,1.4214,1.5045,1.2086,1.0342,1.117,0.9262,0.7988,0.7988,0.7988,0.7988,0.7988,0.7988,0.7941,0.7889,0.7838,0.7716,0.7519,0.7316,0.7146,0.7095,0.7095,0.7095,0.0,0.0,0.0,0.0,0.0,0.0,1.1369,0.0,1.1953,1.2191,1.2543,1.2851,1.31,1.316,1.336,1.3941,1.3574,1.3414,1.3981,1.378,1.4104,1.5486,1.5681,1.6093,1.7155,1.6298,1.6134,1.7204,1.7277,1.777,1.8899,1.9972,2.0332,1.9912,1.9482,1.9268,1.9268,1.8359,1.7993,1.8228,1.6237,1.5423,1.5621,1.4573,1.4088,1.4088,1.4088,1.4249,1.4502,1.4502,1.485,1.5357,1.5115,1.5317,1.5784,1.5784,1.5784,1.5784,1.5784,1.5784,1.5784,1.5784,1.5784,1.5784,1.5784,1.5784,1.5784,1.5784,1.5784,1.5784,1.5784,1.5784,1.5784,1.5784,1.5784,1.5912,1.6213,1.5532,1.4773,1.4406,1.5625,1.66,1.6306,1.6019,1.5784,1.5784,1.5784,1.5784,1.5784,1.4704,1.3926,1.3926,1.1551,0.9998,0.9998,0.8775,0.7988,0.7988,0.7988,0.7988,0.7988,0.7988,0.7988,0.7988,0.7892,0.7818,0.7811,0.7516,0.7295,0.7102,0.7098,0.7095,1.3189,0.0,0.0,0.0,0.0,0.0,0.0,0.0,1.1196,1.1102,1.1645,1.2107,1.1944,1.2098,1.2365,1.2739,1.3026,1.3267,1.3434,1.352,1.3749,1.4152,1.4914,1.5514,1.5828,1.5594,1.5868,0.0,1.6929,1.7324,1.8446,1.9222,1.959,1.9463,1.9043,1.8783,1.8783,1.7859,1.7127,1.6614,1.5724,1.5031,1.4531,1.425,1.4088,1.4088,1.4088,1.4135,1.4208,1.4208,1.4556,1.5122,1.5042,1.5317,1.5784,1.5784,1.5784,1.5784,1.5784,1.5784,1.5784,1.5784,1.5784,1.5784,1.5784,1.5784,1.5784,1.5784,1.5784,1.5784,1.5784,1.5784,1.5784,1.5784,1.5784,1.5912,1.6213,1.6246,1.6101,1.5816,1.613,1.6299,1.6005,1.5838,1.5784,1.5784,1.5784,1.5784,1.5784,1.4704,1.3926,1.3926,1.1551,0.9998,0.9998,0.8775,0.7988,0.7988,0.7988,0.7988,0.7988,0.7988,0.7988,0.7988,0.7948,0.7874,0.7811,0.7516,0.735,0.7305,0.7146,0.7095,0.0,0.0,0.0,0.0,0.0,0.0,1.0459,1.0508,1.0548,1.0285,1.0727,1.1122,1.1076,1.1243,1.145,1.171,1.2332,1.2847,1.3024,1.316,1.3433,1.3949,1.4659,1.5238,1.5623,1.5834,1.6427,1.7484,1.7445,1.7842,1.8898,1.9169,1.9287,1.9287,1.8691,1.8151,1.7783,1.6821,1.5987,1.523,1.4702,1.4251,1.3908,1.4035,1.4088,1.4088,1.4088,1.4088,1.4088,1.4088,1.4479,1.5022,1.5142,1.5424,1.5784,1.5784,1.5784,1.5784,1.5784,1.5784,1.5784,1.5784,1.5784,1.5784,1.5784,1.5784,1.5784,1.5784,1.5784,1.5784,1.5784,1.5784,1.5784,1.5784,1.5925,1.6092,1.6393,1.668,1.684,1.6723,1.654,1.64,1.6226,1.5992,1.5784,1.5784,1.5784,1.5872,1.5999,1.4773,1.3721,1.3295,1.1315,0.9756,0.9217,0.8432,0.7988,0.7988,0.7988,0.7988,0.7988,0.7988,0.7988,0.7988,0.7988,0.7914,0.7811,0.7638,0.7492,0.7412,0.7214,0.7095,0.0,0.0,0.0,0.0,1.143,0.0,1.0301,1.0187,1.0114,0.9753,0.9913,1.0174,1.0405,1.0499,1.0658,1.0978,1.1606,1.2263,1.2784,1.2975,1.3442,1.4589,1.4819,1.528,1.6258,1.6599,1.7256,1.8481,1.8444,1.873,1.9691,1.9414,1.9219,1.9219,1.8477,1.7611,1.6665,1.5675,1.4864,1.4223,1.3535,1.334,1.366,1.3968,1.4088,1.4088,1.4088,1.4088,1.4088,1.4122,1.4462,1.5035,1.5251,1.5545,1.5784,1.5784,1.5784,1.5784,1.5784,1.5784,1.5784,1.5784,1.5784,1.5784,1.5784,1.5784,1.5784,1.5784,1.5683,1.5635,1.5778,1.5683,1.5635,1.5784,1.6052,1.6346,1.66,1.6914,1.7199,1.7199,1.6907,1.6687,1.662,1.6179,1.5784,1.5784,1.5784,1.5939,1.6239,1.5023,1.3688,1.2508,1.1095,0.9608,0.8137,0.7988,0.7988,0.7988,0.7988,0.7988,0.7988,0.7988,0.7988,0.7988,0.7988,0.7924,0.7834,0.7821,0.7668,0.7439,0.7238,0.7132,0.0,0.0,0.0,0.0,1.143,0.0,1.064,1.0655,1.0608,0.9869,0.9913,0.9957,0.9544,0.9886,1.0428,1.1133,1.1234,1.1699,1.3025,1.3994,1.4787,1.5351,1.5428,1.596,1.7283,1.6458,1.6776,1.8961,1.8783,1.8627,1.8851,1.8773,1.8724,1.8724,1.8568,1.804,1.7099,1.5847,1.4984,1.4512,1.3639,1.3487,1.4001,1.4062,1.4088,1.4088,1.4088,1.4088,1.4108,1.4342,1.4643,1.5015,1.5068,1.5364,1.5784,1.5784,1.5784,1.5784,1.5784,1.5784,1.5784,1.5784,1.5784,1.5784,1.5784,1.5784,1.5784,1.5784,1.5045,1.4507,1.5534,1.5045,1.4507,1.5581,1.6052,1.6286,1.6346,1.6824,1.7199,1.7199,1.6907,1.6553,1.6079,1.5858,1.5784,1.5784,1.5784,1.5939,1.6239,1.5813,1.4666,1.2602,1.1885,1.0583,0.8187,0.7988,0.7988,0.7988,0.7988,0.7988,0.7988,0.7988,0.7988,0.7988,0.7988,0.7975,0.7944,0.7872,0.7723,0.7553,0.7397,0.739,1.5451,1.4714,1.3839,1.2095,1.1536,0.0,0.0,1.0555,1.0434,0.9993,0.99,0.9853,0.9677,0.98,1.0208,1.116,1.1089,1.17,1.3794,1.3771,1.4002,1.5299,1.4829,1.5041,1.6643,1.6368,1.6884,1.8818,1.8965,1.8965,1.8965,1.8965,1.8965,1.8965,1.8278,1.7432,1.6403,1.5272,1.4426,1.3895,1.3547,1.354,1.3874,1.4021,1.4088,1.4088,1.4088,1.4088,1.4095,1.4249,1.4563,1.5022,1.5169,1.5444,1.5784,1.5784,1.5784,1.5784,1.5784,1.5784,1.5784,1.5784,1.5784,1.5784,1.5784,1.5784,1.5683,1.5045,1.4411,1.407,1.4704,1.4364,1.422,1.5486,1.6166,1.6486,1.6486,1.6947,1.7373,1.7233,1.7079,1.6787,1.6346,1.5477,1.4854,1.4854,1.4854,1.4948,1.528,1.5615,1.5153,1.354,1.2469,1.1116,0.9167,0.8382,0.7988,0.7988,0.7988,0.7988,0.7988,0.7988,0.7988,0.7988,0.7988,0.7988,0.7988,0.7914,0.7848,0.7702,0.7553,0.7526,1.5539,1.5057,1.4443,1.2394,1.173,1.1443,0.0,0.0,0.0,1.0221,0.9967,0.0,0.0,0.0,0.0,1.1551,0.0,0.0,0.0,1.3426,0.0,1.5431,1.4478,1.4287,1.6024,1.6434,1.7108,1.829,1.8721,1.8955,1.9043,1.9121,1.916,1.916,1.7904,1.6728,1.5725,1.4641,1.3818,1.33,1.3433,1.358,1.3693,1.3975,1.4088,1.4088,1.4088,1.4088,1.4088,1.4088,1.4479,1.5028,1.5224,1.5524,1.5784,1.5784,1.5784,1.5784,1.5784,1.5784,1.5784,1.5784,1.5784,1.573,1.5486,1.5439,1.5146,1.3878,1.3343,1.3247,1.3776,1.3734,1.3938,1.551,1.6273,1.662,1.662,1.7041,1.7348,1.7166,1.7112,1.7018,1.6673,1.5377,1.4274,1.3932,1.3926,1.4015,1.4274,1.4969,1.5153,1.4378,1.2856,1.1365,1.0096,0.8775,0.7988,0.7988,0.7988,0.7988,0.7988,0.7988,0.7889,0.7637,0.7889,0.7889,0.7637,0.7889,0.7928,0.7851,0.7706,0.7655,1.5253,1.4557,1.3555,1.2223,1.2037,1.2051,1.1422,0.0,1.1129,1.0646,0.0,1.0196,0.0,0.0,0.0,0.0,0.0,0.0,1.5009,1.4242,1.4363,1.685,1.5975,1.5704,1.7083,1.6899,1.6922,1.749,1.7578,1.7764,1.8135,1.8471,1.8676,1.8676,1.7719,1.686,1.6162,1.4554,1.3703,1.3553,1.3327,1.3534,1.4041,1.4075,1.4088,1.4088,1.4088,1.4088,1.4088,1.4088,1.4479,1.5015,1.5042,1.5344,1.5784,1.5784,1.5784,1.5784,1.5784,1.5784,1.5784,1.5784,1.5784,1.5588,1.4459,1.4118,1.383,1.2479,1.1312,1.097,1.3295,1.3006,1.2824,1.5612,1.6321,1.6375,1.6375,1.658,1.6794,1.676,1.676,1.666,1.6373,1.6168,1.5531,1.4106,1.3926,1.4015,1.4274,1.4177,1.4171,1.428,1.2856,1.1365,1.0096,0.8775,0.7988,0.7988,0.7988,0.7988,0.7988,0.7988,0.7437,0.6229,0.7385,0.7434,0.6232,0.7434,0.7982,0.7961,0.7858,0.7862,1.5443,1.4879,1.4168,1.2544,1.2084,1.1984,1.1737,1.155,1.1403,1.137,0.0,0.0,0.0,0.0,0.0,0.0,1.2622,0.0,0.0,0.0,1.4052,1.6002,0.0,0.0,1.6162,1.6299,1.6416,1.6633,1.6855,1.7305,1.7978,1.8174,1.81,1.7789,1.7022,1.6192,1.5288,1.4185,1.3753,1.3901,1.3774,1.3848,1.4088,1.4088,1.4088,1.4088,1.4088,1.4088,1.4088,1.4088,1.4479,1.5008,1.5008,1.5317,1.5784,1.5784,1.5784,1.5784,1.5784,1.5784,1.5784,1.5784,1.5289,1.4609,1.407,1.3343,1.2474,1.1165,1.0386,1.0243,1.1356,1.175,1.2408,1.4407,1.5599,1.6321,1.6321,1.6633,1.7018,1.7018,1.7101,1.6858,1.5739,1.4722,1.3736,1.2851,1.2889,1.3062,1.3154,1.3719,1.4186,1.4292,1.2219,1.0583,1.0047,0.8775,0.7988,0.7988,0.7988,0.7988,0.7988,0.7988,0.7385,0.6029,0.6531,0.6581,0.5979,0.6581,0.7235,0.7988,0.7924,0.7928,1.5521,1.4985,1.4378,1.2732,1.2144,1.2027,1.2027,1.1824,1.1703,1.1844,1.147,0.0,0.0,0.0,0.0,0.0,0.0,1.2449,0.0,1.3975,0.0,0.0,0.0,0.0,0.0,1.5635,1.5819,1.5598,1.6166,1.6721,1.7134,1.7605,1.7516,1.6873,1.632,1.5561,1.4608,1.3881,1.3714,1.4088,1.4008,1.4008,1.4088,1.4088,1.4088,1.4088,1.4088,1.4088,1.4095,1.4175,1.4509,1.5015,1.5095,1.5391,1.5784,1.5784,1.5784,1.5784,1.5784,1.5784,1.5784,1.5784,1.5188,1.4364,1.4022,1.2958,1.1604,1.0342,0.9756,0.9608,1.0337,1.1262,1.2476,1.4183,1.5464,1.6321,1.6321,1.6656,1.6985,1.7065,1.7313,1.7075,1.5811,1.4214,1.2737,1.1662,1.1713,1.1861,1.1861,1.2654,1.3309,1.3705,1.1481,0.9998,0.9998,0.8775,0.7988,0.7988,0.7637,0.7637,0.7988,0.7282,0.6429,0.5475,0.5475,0.5275,0.4922,0.5627,0.6481,0.7484,0.7839,0.7988,0.0,0.0,0.0,1.2556,0.0,0.0,0.0,0.0,1.2198,1.196,0.0,0.0,0.0,0.0,0.0,0.0,0.0,0.0,0.0,0.0,0.0,0.0,0.0,0.0,0.0,1.5186,1.5098,1.4321,1.543,1.5779,1.5058,1.6539,1.6978,1.5974,1.573,1.5292,1.4608,1.3673,1.3514,1.4082,1.3753,1.3808,1.4088,1.4088,1.4088,1.4088,1.4088,1.4088,1.4108,1.4389,1.4689,1.5035,1.5277,1.5565,1.5784,1.5784,1.5784,1.5784,1.5784,1.5784,1.5784,1.5784,1.5784,1.5486,1.4262,1.2958,1.1604,1.0342,0.9069,0.8627,1.1165,1.2107,1.3016,1.5605,1.6266,1.6321,1.6321,1.6335,1.6386,1.6667,1.6961,1.7213,1.7148,1.5917,1.3877,1.0915,1.0483,1.0483,1.0483,1.0374,1.0814,1.2119,1.0893,0.9998,0.9998,0.8775,0.7988,0.7988,0.6781,0.6631,0.7939,0.552,0.4116,0.4066,0.4066,0.3416,0.2113,0.4722,0.6029,0.6079,0.7385,0.7988,0.0,0.0,1.4061,1.3397,0.0,0.0,0.0,0.0,0.0,0.0,0.0,0.0,0.0,0.0,0.0,0.0,0.0,0.0,0.0,0.0,0.0,1.5527,1.541,1.5136,0.0,0.0,1.4344,1.3836,1.4687,1.5137,1.4905,1.5601,1.5677,1.501,1.478,1.4358,1.366,1.3514,1.3694,1.4088,1.3981,1.3988,1.4088,1.4088,1.4088,1.4088,1.4088,1.4088,1.4095,1.4195,1.4522,1.5022,1.5115,1.5404,1.5784,1.5784,1.5784,1.5784,1.5784,1.5784,1.5784,1.5784,1.5242,1.4459,1.4022,1.2958,1.1799,1.1365,1.0925,1.0779,1.1653,1.2629,1.3659,1.4716,1.547,1.5785,1.512,1.4961,1.474,1.3985,1.4174,1.4082,1.3091,1.2568,1.2173,1.1911,1.122,1.0729,1.0729,1.0612,1.0698,1.116,0.9678,0.8676,0.8676,0.8283,0.7637,0.6734,0.6229,0.5827,0.537,0.4466,0.3565,0.2715,0.2665,0.2464,0.2013,0.2916,0.3819,0.467,0.512,0.5822,1.5865,1.5119,0.0,1.3656,1.2875,0.0,1.2305,0.0,1.2697,0.0,0.0,0.0,0.0,0.0,0.0,0.0,0.0,0.0,0.0,1.3437,0.0,1.5061,1.5061,1.4951,1.4805,1.4408,1.3867,1.3217,1.3791,1.4114,0.0,1.4521,1.4612,1.4027,1.415,1.3877,1.3206,1.346,1.3753,1.4088,1.4088,1.4088,1.4088,1.4088,1.4088,1.4088,1.4088,1.4142,1.4249,1.4355,1.4727,1.513,1.5231,1.5504,1.5784,1.5784,1.5784,1.5784,1.5784,1.5784,1.5784,1.5784,1.5242,1.4561,1.4561,1.3638,1.2624,1.2624,1.1945,1.1458,1.2377,1.2693,1.3133,1.4642,1.5199,1.5168,1.4439,1.4303,1.3909,1.2628,1.273,1.2665,1.1694,1.1217,1.102,1.119,1.0591,1.0107,1.017,1.0077,0.9995,0.9931,0.8816,0.7868,0.7359,0.7305,0.6715,0.5375,0.4816,0.4406,0.3993,0.3075,0.2418,0.2021,0.1536,0.1277,0.1285,0.1774,0.2465,0.3316,0.3765,0.4218]}]]